<?xml version="1.0" encoding="UTF-8" standalone="no" ?><gpx xmlns="http://www.topografix.com/GPX/1/1" xmlns:gpxx="http://www.garmin.com/xmlschemas/GpxExtensions/v3" xmlns:wptx1="http://www.garmin.com/xmlschemas/WaypointExtension/v1" xmlns:gpxtpx="http://www.garmin.com/xmlschemas/TrackPointExtension/v1" creator="GuideVTT.com" version="1.1" xmlns:xsi="http://www.w3.org/2001/XMLSchema-instance" xsi:schemaLocation="http://www.topografix.com/GPX/1/1 http://www.topografix.com/GPX/1/1/gpx.xsd http://www.garmin.com/xmlschemas/GpxExtensions/v3 http://www8.garmin.com/xmlschemas/GpxExtensionsv3.xsd http://www.garmin.com/xmlschemas/WaypointExtension/v1 http://www8.garmin.com/xmlschemas/WaypointExtensionv1.xsd http://www.garmin.com/xmlschemas/TrackPointExtension/v1 http://www.garmin.com/xmlschemas/TrackPointExtensionv1.xsd">
<metadata><link href="http://www.garmin.com"><text>Garmin International</text></link><time>2013-06-22T15:13:50Z</time></metadata>
<trk><name>2015-05-13_trace_20.gpx</name><extensions><gpxx:TrackExtension><gpxx:DisplayColor>Cyan</gpxx:DisplayColor></gpxx:TrackExtension></extensions><trkseg>
<trkpt lat="44.84221410937607" lon="-0.5632913019508123"><ele></ele><time>2017-7-15T16:23:27Z</time></trkpt>
<trkpt lat="44.84218904748559" lon="-0.5632068961858749"><ele></ele><time>2017-7-15T16:23:30Z</time></trkpt>
<trkpt lat="44.84217194840312" lon="-0.5631768889725208"><ele></ele><time>2017-7-15T16:23:33Z</time></trkpt>
<trkpt lat="44.84172175638378" lon="-0.5626646708697081"><ele></ele><time>2017-7-15T16:23:36Z</time></trkpt>
<trkpt lat="44.84125521965325" lon="-0.5622212681919336"><ele></ele><time>2017-7-15T16:23:39Z</time></trkpt>
<trkpt lat="44.841112392023206" lon="-0.5620988085865974"><ele></ele><time>2017-7-15T16:23:42Z</time></trkpt>
<trkpt lat="44.840673515573144" lon="-0.5617399793118238"><ele></ele><time>2017-7-15T16:23:45Z</time></trkpt>
<trkpt lat="44.84023782424629" lon="-0.5612380709499121"><ele></ele><time>2017-7-15T16:23:48Z</time></trkpt>
<trkpt lat="44.839824847877026" lon="-0.560732139274478"><ele></ele><time>2017-7-15T16:23:51Z</time></trkpt>
<trkpt lat="44.839392844587564" lon="-0.5602012295275927"><ele></ele><time>2017-7-15T16:23:54Z</time></trkpt>
<trkpt lat="44.83896218240261" lon="-0.5596714932471514"><ele></ele><time>2017-7-15T16:23:57Z</time></trkpt>
<trkpt lat="44.838507967069745" lon="-0.5592783819884062"><ele></ele><time>2017-7-15T16:24:0Z</time></trkpt>
<trkpt lat="44.838488856330514" lon="-0.5588274355977774"><ele></ele><time>2017-7-15T16:24:3Z</time></trkpt>
<trkpt lat="44.83848734758794" lon="-0.5588309559971094"><ele></ele><time>2017-7-15T16:24:6Z</time></trkpt>
<trkpt lat="44.83849564567208" lon="-0.5587861966341734"><ele></ele><time>2017-7-15T16:24:9Z</time></trkpt>
<trkpt lat="44.838115107268095" lon="-0.5581859685480595"><ele></ele><time>2017-7-15T16:24:12Z</time></trkpt>
<trkpt lat="44.83773775398731" lon="-0.5575710721313953"><ele></ele><time>2017-7-15T16:24:15Z</time></trkpt>
<trkpt lat="44.83737842179835" lon="-0.5569858476519585"><ele></ele><time>2017-7-15T16:24:18Z</time></trkpt>
<trkpt lat="44.837004421278834" lon="-0.5563771538436413"><ele></ele><time>2017-7-15T16:24:21Z</time></trkpt>
<trkpt lat="44.83664207160473" lon="-0.5557966232299805"><ele></ele><time>2017-7-15T16:24:24Z</time></trkpt>
<trkpt lat="44.83634510077536" lon="-0.5552968941628933"><ele></ele><time>2017-7-15T16:24:27Z</time></trkpt>
<trkpt lat="44.8359788954258" lon="-0.5546971689909697"><ele></ele><time>2017-7-15T16:24:30Z</time></trkpt>
<trkpt lat="44.835636243224144" lon="-0.5541107710450888"><ele></ele><time>2017-7-15T16:24:33Z</time></trkpt>
<trkpt lat="44.835282526910305" lon="-0.5535066034644842"><ele></ele><time>2017-7-15T16:24:36Z</time></trkpt>
<trkpt lat="44.83492939732969" lon="-0.552883492782712"><ele></ele><time>2017-7-15T16:24:39Z</time></trkpt>
<trkpt lat="44.83459470793605" lon="-0.5522623099386692"><ele></ele><time>2017-7-15T16:24:42Z</time></trkpt>
<trkpt lat="44.8342533968389" lon="-0.5516410432755947"><ele></ele><time>2017-7-15T16:24:45Z</time></trkpt>
<trkpt lat="44.833941673859954" lon="-0.551017764955759"><ele></ele><time>2017-7-15T16:24:48Z</time></trkpt>
<trkpt lat="44.833604553714395" lon="-0.5503850989043713"><ele></ele><time>2017-7-15T16:24:51Z</time></trkpt>
<trkpt lat="44.83332199975848" lon="-0.5497605632990599"><ele></ele><time>2017-7-15T16:24:54Z</time></trkpt>
<trkpt lat="44.83326726593077" lon="-0.5495906621217728"><ele></ele><time>2017-7-15T16:24:57Z</time></trkpt>
<trkpt lat="44.83293551020324" lon="-0.548945926129818"><ele></ele><time>2017-7-15T16:25:0Z</time></trkpt>
<trkpt lat="44.832611130550504" lon="-0.548311248421669"><ele></ele><time>2017-7-15T16:25:3Z</time></trkpt>
<trkpt lat="44.83226110227406" lon="-0.5476485751569271"><ele></ele><time>2017-7-15T16:25:6Z</time></trkpt>
<trkpt lat="44.8319446016103" lon="-0.5470324214547873"><ele></ele><time>2017-7-15T16:25:9Z</time></trkpt>
<trkpt lat="44.83162206597626" lon="-0.546406377106905"><ele></ele><time>2017-7-15T16:25:12Z</time></trkpt>
<trkpt lat="44.8313023801893" lon="-0.54579290561378"><ele></ele><time>2017-7-15T16:25:15Z</time></trkpt>
<trkpt lat="44.830982526764274" lon="-0.5451806075870991"><ele></ele><time>2017-7-15T16:25:18Z</time></trkpt>
<trkpt lat="44.830648927018046" lon="-0.5445735901594162"><ele></ele><time>2017-7-15T16:25:21Z</time></trkpt>
<trkpt lat="44.8303337674588" lon="-0.5439378228038549"><ele></ele><time>2017-7-15T16:25:24Z</time></trkpt>
<trkpt lat="44.82999882660806" lon="-0.5432961881160736"><ele></ele><time>2017-7-15T16:25:27Z</time></trkpt>
<trkpt lat="44.82967243529856" lon="-0.5426658689975739"><ele></ele><time>2017-7-15T16:25:30Z</time></trkpt>
<trkpt lat="44.82933632098138" lon="-0.5420459434390068"><ele></ele><time>2017-7-15T16:25:33Z</time></trkpt>
<trkpt lat="44.82899157330394" lon="-0.5414481461048126"><ele></ele><time>2017-7-15T16:25:36Z</time></trkpt>
<trkpt lat="44.82864540070295" lon="-0.540853701531887"><ele></ele><time>2017-7-15T16:25:39Z</time></trkpt>
<trkpt lat="44.8282784409821" lon="-0.540267638862133"><ele></ele><time>2017-7-15T16:25:42Z</time></trkpt>
<trkpt lat="44.828046932816505" lon="-0.5398538243025541"><ele></ele><time>2017-7-15T16:25:45Z</time></trkpt>
<trkpt lat="44.827993120998144" lon="-0.5397471226751804"><ele></ele><time>2017-7-15T16:25:48Z</time></trkpt>
<trkpt lat="44.82763018459082" lon="-0.539132310077548"><ele></ele><time>2017-7-15T16:25:51Z</time></trkpt>
<trkpt lat="44.82726909220219" lon="-0.5385544616729021"><ele></ele><time>2017-7-15T16:25:54Z</time></trkpt>
<trkpt lat="44.82688562013209" lon="-0.5380060337483883"><ele></ele><time>2017-7-15T16:25:57Z</time></trkpt>
<trkpt lat="44.826492592692375" lon="-0.5374181270599365"><ele></ele><time>2017-7-15T16:26:0Z</time></trkpt>
<trkpt lat="44.82608338817954" lon="-0.5368722975254059"><ele></ele><time>2017-7-15T16:26:3Z</time></trkpt>
<trkpt lat="44.82567041181028" lon="-0.5363287311047316"><ele></ele><time>2017-7-15T16:26:6Z</time></trkpt>
<trkpt lat="44.82548760250211" lon="-0.5361376237124205"><ele></ele><time>2017-7-15T16:26:9Z</time></trkpt>
<trkpt lat="44.82510454952717" lon="-0.5356600228697062"><ele></ele><time>2017-7-15T16:26:12Z</time></trkpt>
<trkpt lat="44.82467355206609" lon="-0.5351710226386786"><ele></ele><time>2017-7-15T16:26:15Z</time></trkpt>
<trkpt lat="44.82423333451152" lon="-0.5347166396677494"><ele></ele><time>2017-7-15T16:26:18Z</time></trkpt>
<trkpt lat="44.82376386411488" lon="-0.5342748295515776"><ele></ele><time>2017-7-15T16:26:21Z</time></trkpt>
<trkpt lat="44.823296908289194" lon="-0.5338549800217152"><ele></ele><time>2017-7-15T16:26:24Z</time></trkpt>
<trkpt lat="44.82281737960875" lon="-0.5334122478961945"><ele></ele><time>2017-7-15T16:26:27Z</time></trkpt>
<trkpt lat="44.82231647707522" lon="-0.5330002773553133"><ele></ele><time>2017-7-15T16:26:30Z</time></trkpt>
<trkpt lat="44.821815490722656" lon="-0.5326414480805397"><ele></ele><time>2017-7-15T16:26:33Z</time></trkpt>
<trkpt lat="44.82130645774305" lon="-0.5323090218007565"><ele></ele><time>2017-7-15T16:26:36Z</time></trkpt>
<trkpt lat="44.820787785574794" lon="-0.531961340457201"><ele></ele><time>2017-7-15T16:26:39Z</time></trkpt>
<trkpt lat="44.82026140205562" lon="-0.5316533055156469"><ele></ele><time>2017-7-15T16:26:42Z</time></trkpt>
<trkpt lat="44.81974583119154" lon="-0.5312768742442131"><ele></ele><time>2017-7-15T16:26:45Z</time></trkpt>
<trkpt lat="44.81920947320759" lon="-0.530918799340725"><ele></ele><time>2017-7-15T16:26:48Z</time></trkpt>
<trkpt lat="44.81869172304869" lon="-0.5305782426148653"><ele></ele><time>2017-7-15T16:26:51Z</time></trkpt>
<trkpt lat="44.8181729670614" lon="-0.530230812728405"><ele></ele><time>2017-7-15T16:26:54Z</time></trkpt>
<trkpt lat="44.81767097488046" lon="-0.5299204308539629"><ele></ele><time>2017-7-15T16:26:57Z</time></trkpt>
<trkpt lat="44.817170994356275" lon="-0.5295854061841965"><ele></ele><time>2017-7-15T16:27:0Z</time></trkpt>
<trkpt lat="44.81708097271621" lon="-0.5295234639197588"><ele></ele><time>2017-7-15T16:27:3Z</time></trkpt>
<trkpt lat="44.81708223000169" lon="-0.5294840689748526"><ele></ele><time>2017-7-15T16:27:6Z</time></trkpt>
<trkpt lat="44.81711994856596" lon="-0.5292572546750307"><ele></ele><time>2017-7-15T16:27:9Z</time></trkpt>
<trkpt lat="44.81731683947146" lon="-0.5286232475191355"><ele></ele><time>2017-7-15T16:27:12Z</time></trkpt>
<trkpt lat="44.817510126158595" lon="-0.5278778448700905"><ele></ele><time>2017-7-15T16:27:15Z</time></trkpt>
<trkpt lat="44.817701652646065" lon="-0.5271658021956682"><ele></ele><time>2017-7-15T16:27:18Z</time></trkpt>
<trkpt lat="44.81790457852185" lon="-0.5264078266918659"><ele></ele><time>2017-7-15T16:27:21Z</time></trkpt>
<trkpt lat="44.81810222379863" lon="-0.5256624240428209"><ele></ele><time>2017-7-15T16:27:24Z</time></trkpt>
<trkpt lat="44.81826424598694" lon="-0.524911405518651"><ele></ele><time>2017-7-15T16:27:27Z</time></trkpt>
<trkpt lat="44.818386202678084" lon="-0.5241363309323788"><ele></ele><time>2017-7-15T16:27:30Z</time></trkpt>
<trkpt lat="44.81846700422466" lon="-0.5235612485557795"><ele></ele><time>2017-7-15T16:27:33Z</time></trkpt>
<trkpt lat="44.81855685822666" lon="-0.5229000840336084"><ele></ele><time>2017-7-15T16:27:36Z</time></trkpt>
<trkpt lat="44.81843498535454" lon="-0.5226402450352907"><ele></ele><time>2017-7-15T16:27:39Z</time></trkpt>
<trkpt lat="44.81838318519294" lon="-0.5225524865090847"><ele></ele><time>2017-7-15T16:27:42Z</time></trkpt>
<trkpt lat="44.818711671978235" lon="-0.5220418609678745"><ele></ele><time>2017-7-15T16:27:45Z</time></trkpt>
<trkpt lat="44.81872516684234" lon="-0.5219810083508492"><ele></ele><time>2017-7-15T16:27:48Z</time></trkpt>
<trkpt lat="44.818732710555196" lon="-0.5219186469912529"><ele></ele><time>2017-7-15T16:27:51Z</time></trkpt>
<trkpt lat="44.81882809661329" lon="-0.5211334303021431"><ele></ele><time>2017-7-15T16:27:54Z</time></trkpt>
<trkpt lat="44.81883538886905" lon="-0.5210763495415449"><ele></ele><time>2017-7-15T16:27:57Z</time></trkpt>
<trkpt lat="44.81906128115952" lon="-0.5206788796931505"><ele></ele><time>2017-7-15T16:28:0Z</time></trkpt>
<trkpt lat="44.819550197571516" lon="-0.5203177873045206"><ele></ele><time>2017-7-15T16:28:3Z</time></trkpt>
<trkpt lat="44.820048585534096" lon="-0.5199644062668085"><ele></ele><time>2017-7-15T16:28:6Z</time></trkpt>
<trkpt lat="44.82059072703123" lon="-0.5196681898087263"><ele></ele><time>2017-7-15T16:28:9Z</time></trkpt>
<trkpt lat="44.82099934481084" lon="-0.5195037368685007"><ele></ele><time>2017-7-15T16:28:12Z</time></trkpt>
<trkpt lat="44.8210655618459" lon="-0.5190803669393063"><ele></ele><time>2017-7-15T16:28:15Z</time></trkpt>
<trkpt lat="44.82102541252971" lon="-0.5189599189907312"><ele></ele><time>2017-7-15T16:28:18Z</time></trkpt>
<trkpt lat="44.821363873779774" lon="-0.5184995010495186"><ele></ele><time>2017-7-15T16:28:21Z</time></trkpt>
<trkpt lat="44.82148884795606" lon="-0.5185572523623705"><ele></ele><time>2017-7-15T16:28:24Z</time></trkpt>
<trkpt lat="44.82153276912868" lon="-0.5185699090361595"><ele></ele><time>2017-7-15T16:28:27Z</time></trkpt>
<trkpt lat="44.82182295061648" lon="-0.5182370636612177"><ele></ele><time>2017-7-15T16:28:30Z</time></trkpt>
<trkpt lat="44.82199804857373" lon="-0.51750423386693"><ele></ele><time>2017-7-15T16:28:33Z</time></trkpt>
<trkpt lat="44.82213425450027" lon="-0.5167216993868351"><ele></ele><time>2017-7-15T16:28:36Z</time></trkpt>
<trkpt lat="44.82209603302181" lon="-0.5159282684326172"><ele></ele><time>2017-7-15T16:28:39Z</time></trkpt>
<trkpt lat="44.82204859144986" lon="-0.5156415235251188"><ele></ele><time>2017-7-15T16:28:42Z</time></trkpt>
<trkpt lat="44.82185228727758" lon="-0.5149071849882603"><ele></ele><time>2017-7-15T16:28:45Z</time></trkpt>
<trkpt lat="44.82160426676273" lon="-0.5142212100327015"><ele></ele><time>2017-7-15T16:28:48Z</time></trkpt>
<trkpt lat="44.821364460512996" lon="-0.5136793199926615"><ele></ele><time>2017-7-15T16:28:51Z</time></trkpt>
<trkpt lat="44.82095575891435" lon="-0.5132562853395939"><ele></ele><time>2017-7-15T16:28:54Z</time></trkpt>
<trkpt lat="44.82056859880686" lon="-0.513063333928585"><ele></ele><time>2017-7-15T16:28:57Z</time></trkpt>
<trkpt lat="44.820478996261954" lon="-0.5129597336053848"><ele></ele><time>2017-7-15T16:29:0Z</time></trkpt>
<trkpt lat="44.82013525441289" lon="-0.5124010797590017"><ele></ele><time>2017-7-15T16:29:3Z</time></trkpt>
<trkpt lat="44.819984547793865" lon="-0.5122445896267891"><ele></ele><time>2017-7-15T16:29:6Z</time></trkpt>
<trkpt lat="44.819485154002905" lon="-0.5117983371019363"><ele></ele><time>2017-7-15T16:29:9Z</time></trkpt>
<trkpt lat="44.81900051236153" lon="-0.5113765597343445"><ele></ele><time>2017-7-15T16:29:12Z</time></trkpt>
<trkpt lat="44.81852559372783" lon="-0.5109629966318607"><ele></ele><time>2017-7-15T16:29:15Z</time></trkpt>
<trkpt lat="44.818046148866415" lon="-0.5105472542345524"><ele></ele><time>2017-7-15T16:29:18Z</time></trkpt>
<trkpt lat="44.81754373759031" lon="-0.5101036839187145"><ele></ele><time>2017-7-15T16:29:21Z</time></trkpt>
<trkpt lat="44.81705876067281" lon="-0.5096790567040443"><ele></ele><time>2017-7-15T16:29:24Z</time></trkpt>
<trkpt lat="44.81652466580272" lon="-0.5093393381685019"><ele></ele><time>2017-7-15T16:29:27Z</time></trkpt>
<trkpt lat="44.81597766280174" lon="-0.5091043934226036"><ele></ele><time>2017-7-15T16:29:30Z</time></trkpt>
<trkpt lat="44.815451027825475" lon="-0.5088821891695261"><ele></ele><time>2017-7-15T16:29:33Z</time></trkpt>
<trkpt lat="44.81492263264954" lon="-0.5085442308336496"><ele></ele><time>2017-7-15T16:29:36Z</time></trkpt>
<trkpt lat="44.81441846117377" lon="-0.5081661231815815"><ele></ele><time>2017-7-15T16:29:39Z</time></trkpt>
<trkpt lat="44.81390389613807" lon="-0.5078048631548882"><ele></ele><time>2017-7-15T16:29:42Z</time></trkpt>
<trkpt lat="44.81339771300554" lon="-0.5074673239141703"><ele></ele><time>2017-7-15T16:29:45Z</time></trkpt>
<trkpt lat="44.81321733444929" lon="-0.5073656514286995"><ele></ele><time>2017-7-15T16:29:48Z</time></trkpt>
<trkpt lat="44.81270469725132" lon="-0.5070796608924866"><ele></ele><time>2017-7-15T16:29:51Z</time></trkpt>
<trkpt lat="44.81216557323933" lon="-0.5067894794046879"><ele></ele><time>2017-7-15T16:29:54Z</time></trkpt>
<trkpt lat="44.81164178811014" lon="-0.5065713822841644"><ele></ele><time>2017-7-15T16:29:57Z</time></trkpt>
<trkpt lat="44.81157884001732" lon="-0.50654087215662"><ele></ele><time>2017-7-15T16:30:0Z</time></trkpt>
<trkpt lat="44.81156283058226" lon="-0.5065251141786575"><ele></ele><time>2017-7-15T16:30:3Z</time></trkpt>
<trkpt lat="44.8110859002918" lon="-0.5061449948698282"><ele></ele><time>2017-7-15T16:30:6Z</time></trkpt>
<trkpt lat="44.81065104715526" lon="-0.5056367162615061"><ele></ele><time>2017-7-15T16:30:9Z</time></trkpt>
<trkpt lat="44.810218792408705" lon="-0.5051771365106106"><ele></ele><time>2017-7-15T16:30:12Z</time></trkpt>
<trkpt lat="44.809692995622754" lon="-0.5049039702862501"><ele></ele><time>2017-7-15T16:30:15Z</time></trkpt>
<trkpt lat="44.80914272367954" lon="-0.5047041457146406"><ele></ele><time>2017-7-15T16:30:18Z</time></trkpt>
<trkpt lat="44.80861097574234" lon="-0.5045466497540474"><ele></ele><time>2017-7-15T16:30:21Z</time></trkpt>
<trkpt lat="44.80802164413035" lon="-0.5044137127697468"><ele></ele><time>2017-7-15T16:30:24Z</time></trkpt>
<trkpt lat="44.80743105523288" lon="-0.5043042451143265"><ele></ele><time>2017-7-15T16:30:27Z</time></trkpt>
<trkpt lat="44.80687298811972" lon="-0.504191005602479"><ele></ele><time>2017-7-15T16:30:30Z</time></trkpt>
<trkpt lat="44.8063300922513" lon="-0.5040750000625849"><ele></ele><time>2017-7-15T16:30:33Z</time></trkpt>
<trkpt lat="44.80576808564365" lon="-0.5039656162261963"><ele></ele><time>2017-7-15T16:30:36Z</time></trkpt>
<trkpt lat="44.80519509874284" lon="-0.5038777738809586"><ele></ele><time>2017-7-15T16:30:39Z</time></trkpt>
<trkpt lat="44.80467466637492" lon="-0.5038329306989908"><ele></ele><time>2017-7-15T16:30:42Z</time></trkpt>
<trkpt lat="44.804499903693795" lon="-0.5038993991911411"><ele></ele><time>2017-7-15T16:30:45Z</time></trkpt>
<trkpt lat="44.80430653318763" lon="-0.5033804755657911"><ele></ele><time>2017-7-15T16:30:48Z</time></trkpt>
<trkpt lat="44.804508704692125" lon="-0.5026214942336082"><ele></ele><time>2017-7-15T16:30:51Z</time></trkpt>
<trkpt lat="44.80456117540598" lon="-0.5022512655705214"><ele></ele><time>2017-7-15T16:30:54Z</time></trkpt>
<trkpt lat="44.8044460080564" lon="-0.5019464157521725"><ele></ele><time>2017-7-15T16:30:57Z</time></trkpt>
<trkpt lat="44.804013250395656" lon="-0.5014579184353352"><ele></ele><time>2017-7-15T16:31:0Z</time></trkpt>
<trkpt lat="44.803981482982635" lon="-0.5014113150537014"><ele></ele><time>2017-7-15T16:31:3Z</time></trkpt>
<trkpt lat="44.80391275137663" lon="-0.501194978132844"><ele></ele><time>2017-7-15T16:31:6Z</time></trkpt>
<trkpt lat="44.80390696786344" lon="-0.501132532954216"><ele></ele><time>2017-7-15T16:31:9Z</time></trkpt>
<trkpt lat="44.804035294801" lon="-0.5003397725522518"><ele></ele><time>2017-7-15T16:31:12Z</time></trkpt>
<trkpt lat="44.80413009412587" lon="-0.499985720962286"><ele></ele><time>2017-7-15T16:31:15Z</time></trkpt>
<trkpt lat="44.80424182489514" lon="-0.4997946135699749"><ele></ele><time>2017-7-15T16:31:18Z</time></trkpt>
<trkpt lat="44.804275184869766" lon="-0.49975178204476833"><ele></ele><time>2017-7-15T16:31:21Z</time></trkpt>
<trkpt lat="44.80445045046508" lon="-0.4995267279446125"><ele></ele><time>2017-7-15T16:31:24Z</time></trkpt>
<trkpt lat="44.804744236171246" lon="-0.4988597799092531"><ele></ele><time>2017-7-15T16:31:27Z</time></trkpt>
<trkpt lat="44.80504732578993" lon="-0.49819559790194035"><ele></ele><time>2017-7-15T16:31:30Z</time></trkpt>
<trkpt lat="44.80507439933717" lon="-0.498148575425148"><ele></ele><time>2017-7-15T16:31:33Z</time></trkpt>
<trkpt lat="44.805475138127804" lon="-0.4975674580782652"><ele></ele><time>2017-7-15T16:31:36Z</time></trkpt>
<trkpt lat="44.80585559271276" lon="-0.4970142524689436"><ele></ele><time>2017-7-15T16:31:39Z</time></trkpt>
<trkpt lat="44.80622640810907" lon="-0.49641075544059277"><ele></ele><time>2017-7-15T16:31:42Z</time></trkpt>
<trkpt lat="44.8065838124603" lon="-0.4958341643214226"><ele></ele><time>2017-7-15T16:31:45Z</time></trkpt>
<trkpt lat="44.80695689097047" lon="-0.4952346906065941"><ele></ele><time>2017-7-15T16:31:48Z</time></trkpt>
<trkpt lat="44.807306583970785" lon="-0.49462239257991314"><ele></ele><time>2017-7-15T16:31:51Z</time></trkpt>
<trkpt lat="44.8076475597918" lon="-0.4940156266093254"><ele></ele><time>2017-7-15T16:31:54Z</time></trkpt>
<trkpt lat="44.807996498420835" lon="-0.49338631331920624"><ele></ele><time>2017-7-15T16:31:57Z</time></trkpt>
<trkpt lat="44.80835264548659" lon="-0.4927495401352644"><ele></ele><time>2017-7-15T16:32:0Z</time></trkpt>
<trkpt lat="44.808507626876235" lon="-0.4920248407870531"><ele></ele><time>2017-7-15T16:32:3Z</time></trkpt>
<trkpt lat="44.808403104543686" lon="-0.49127734266221523"><ele></ele><time>2017-7-15T16:32:6Z</time></trkpt>
<trkpt lat="44.808213505893946" lon="-0.49056018702685833"><ele></ele><time>2017-7-15T16:32:9Z</time></trkpt>
<trkpt lat="44.80798602104187" lon="-0.4898701049387455"><ele></ele><time>2017-7-15T16:32:12Z</time></trkpt>
<trkpt lat="44.807748813182116" lon="-0.48915328457951546"><ele></ele><time>2017-7-15T16:32:15Z</time></trkpt>
<trkpt lat="44.80751537717879" lon="-0.4884342011064291"><ele></ele><time>2017-7-15T16:32:18Z</time></trkpt>
<trkpt lat="44.80739828199148" lon="-0.48768309876322746"><ele></ele><time>2017-7-15T16:32:21Z</time></trkpt>
<trkpt lat="44.807470282539725" lon="-0.4869350139051676"><ele></ele><time>2017-7-15T16:32:24Z</time></trkpt>
<trkpt lat="44.80761713348329" lon="-0.48619262874126434"><ele></ele><time>2017-7-15T16:32:27Z</time></trkpt>
<trkpt lat="44.807774713262916" lon="-0.4854665044695139"><ele></ele><time>2017-7-15T16:32:30Z</time></trkpt>
<trkpt lat="44.80792307294905" lon="-0.4847272206097841"><ele></ele><time>2017-7-15T16:32:33Z</time></trkpt>
<trkpt lat="44.808081071823835" lon="-0.483972430229187"><ele></ele><time>2017-7-15T16:32:36Z</time></trkpt>
<trkpt lat="44.80822934769094" lon="-0.4832110181450844"><ele></ele><time>2017-7-15T16:32:39Z</time></trkpt>
<trkpt lat="44.80815759859979" lon="-0.482444828376174"><ele></ele><time>2017-7-15T16:32:42Z</time></trkpt>
<trkpt lat="44.80801141820848" lon="-0.4816822428256273"><ele></ele><time>2017-7-15T16:32:45Z</time></trkpt>
<trkpt lat="44.80787990614772" lon="-0.4809355828911066"><ele></ele><time>2017-7-15T16:32:48Z</time></trkpt>
<trkpt lat="44.807762475684285" lon="-0.48019311390817165"><ele></ele><time>2017-7-15T16:32:51Z</time></trkpt>
<trkpt lat="44.80766549706459" lon="-0.4794310312718153"><ele></ele><time>2017-7-15T16:32:54Z</time></trkpt>
<trkpt lat="44.80791728943586" lon="-0.47883080318570137"><ele></ele><time>2017-7-15T16:32:57Z</time></trkpt>
<trkpt lat="44.8080587759614" lon="-0.4781393799930811"><ele></ele><time>2017-7-15T16:33:0Z</time></trkpt>
<trkpt lat="44.807989122346044" lon="-0.4773819074034691"><ele></ele><time>2017-7-15T16:33:3Z</time></trkpt>
<trkpt lat="44.807890048250556" lon="-0.4766070004552603"><ele></ele><time>2017-7-15T16:33:6Z</time></trkpt>
<trkpt lat="44.80775099247694" lon="-0.4757978953421116"><ele></ele><time>2017-7-15T16:33:9Z</time></trkpt>
<trkpt lat="44.80760841630399" lon="-0.4749473836272955"><ele></ele><time>2017-7-15T16:33:12Z</time></trkpt>
<trkpt lat="44.807471791282296" lon="-0.4741797689348459"><ele></ele><time>2017-7-15T16:33:15Z</time></trkpt>
<trkpt lat="44.80732879601419" lon="-0.4733570013195276"><ele></ele><time>2017-7-15T16:33:18Z</time></trkpt>
<trkpt lat="44.8073008004576" lon="-0.47289432026445866"><ele></ele><time>2017-7-15T16:33:21Z</time></trkpt>
<trkpt lat="44.807525435462594" lon="-0.47198069281876087"><ele></ele><time>2017-7-15T16:33:24Z</time></trkpt>
<trkpt lat="44.80766734108329" lon="-0.47110771760344505"><ele></ele><time>2017-7-15T16:33:27Z</time></trkpt>
<trkpt lat="44.80767580680549" lon="-0.47093069180846214"><ele></ele><time>2017-7-15T16:33:30Z</time></trkpt>
<trkpt lat="44.80760137550533" lon="-0.47002955339848995"><ele></ele><time>2017-7-15T16:33:33Z</time></trkpt>
<trkpt lat="44.80748235248029" lon="-0.46919362619519234"><ele></ele><time>2017-7-15T16:33:36Z</time></trkpt>
<trkpt lat="44.80738554149866" lon="-0.46871895901858807"><ele></ele><time>2017-7-15T16:33:39Z</time></trkpt>
<trkpt lat="44.80712394230068" lon="-0.4682110995054245"><ele></ele><time>2017-7-15T16:33:42Z</time></trkpt>
<trkpt lat="44.806702081114054" lon="-0.46759486198425293"><ele></ele><time>2017-7-15T16:33:45Z</time></trkpt>
<trkpt lat="44.80632221326232" lon="-0.46704660169780254"><ele></ele><time>2017-7-15T16:33:48Z</time></trkpt>
<trkpt lat="44.80592239648104" lon="-0.46651418320834637"><ele></ele><time>2017-7-15T16:33:51Z</time></trkpt>
<trkpt lat="44.8054648283869" lon="-0.46594463288784027"><ele></ele><time>2017-7-15T16:33:54Z</time></trkpt>
<trkpt lat="44.805011032149196" lon="-0.4654502682387829"><ele></ele><time>2017-7-15T16:33:57Z</time></trkpt>
<trkpt lat="44.80456511490047" lon="-0.4649868328124285"><ele></ele><time>2017-7-15T16:34:0Z</time></trkpt>
<trkpt lat="44.80413277633488" lon="-0.4645306896418333"><ele></ele><time>2017-7-15T16:34:3Z</time></trkpt>
<trkpt lat="44.80369540862739" lon="-0.46407245099544525"><ele></ele><time>2017-7-15T16:34:6Z</time></trkpt>
<trkpt lat="44.80320573784411" lon="-0.4635718837380409"><ele></ele><time>2017-7-15T16:34:9Z</time></trkpt>
<trkpt lat="44.80272931046784" lon="-0.4630750883370638"><ele></ele><time>2017-7-15T16:34:12Z</time></trkpt>
<trkpt lat="44.80227978900075" lon="-0.4626051150262356"><ele></ele><time>2017-7-15T16:34:15Z</time></trkpt>
<trkpt lat="44.801847198978066" lon="-0.46212256886065006"><ele></ele><time>2017-7-15T16:34:18Z</time></trkpt>
<trkpt lat="44.80175751261413" lon="-0.46196959912776947"><ele></ele><time>2017-7-15T16:34:21Z</time></trkpt>
<trkpt lat="44.801650140434504" lon="-0.46129158698022366"><ele></ele><time>2017-7-15T16:34:24Z</time></trkpt>
<trkpt lat="44.801624743267894" lon="-0.4606110602617264"><ele></ele><time>2017-7-15T16:34:27Z</time></trkpt>
<trkpt lat="44.80144327506423" lon="-0.45981327071785927"><ele></ele><time>2017-7-15T16:34:30Z</time></trkpt>
<trkpt lat="44.801197685301304" lon="-0.459122434258461"><ele></ele><time>2017-7-15T16:34:33Z</time></trkpt>
<trkpt lat="44.800874730572104" lon="-0.45846277847886086"><ele></ele><time>2017-7-15T16:34:36Z</time></trkpt>
<trkpt lat="44.80054892599583" lon="-0.45777554623782635"><ele></ele><time>2017-7-15T16:34:39Z</time></trkpt>
<trkpt lat="44.800527803599834" lon="-0.45770815573632717"><ele></ele><time>2017-7-15T16:34:42Z</time></trkpt>
<trkpt lat="44.80050056241453" lon="-0.4572188202291727"><ele></ele><time>2017-7-15T16:34:45Z</time></trkpt>
<trkpt lat="44.800510704517365" lon="-0.45715218409895897"><ele></ele><time>2017-7-15T16:34:48Z</time></trkpt>
<trkpt lat="44.800578597933054" lon="-0.45689720660448074"><ele></ele><time>2017-7-15T16:34:51Z</time></trkpt>
<trkpt lat="44.80083147995174" lon="-0.4561738483607769"><ele></ele><time>2017-7-15T16:34:54Z</time></trkpt>
<trkpt lat="44.80093910358846" lon="-0.4556844290345907"><ele></ele><time>2017-7-15T16:34:57Z</time></trkpt>
<trkpt lat="44.80110087431967" lon="-0.45495612546801567"><ele></ele><time>2017-7-15T16:35:0Z</time></trkpt>
<trkpt lat="44.80144604109228" lon="-0.45436511747539043"><ele></ele><time>2017-7-15T16:35:3Z</time></trkpt>
<trkpt lat="44.80182792060077" lon="-0.45381585136055946"><ele></ele><time>2017-7-15T16:35:6Z</time></trkpt>
<trkpt lat="44.802133943885565" lon="-0.4531185608357191"><ele></ele><time>2017-7-15T16:35:9Z</time></trkpt>
<trkpt lat="44.80228062719107" lon="-0.45275134965777397"><ele></ele><time>2017-7-15T16:35:12Z</time></trkpt>
<trkpt lat="44.802682623267174" lon="-0.4522261396050453"><ele></ele><time>2017-7-15T16:35:15Z</time></trkpt>
<trkpt lat="44.802717911079526" lon="-0.4521755129098892"><ele></ele><time>2017-7-15T16:35:18Z</time></trkpt>
<trkpt lat="44.80299677699804" lon="-0.45148903504014015"><ele></ele><time>2017-7-15T16:35:21Z</time></trkpt>
<trkpt lat="44.80318587273359" lon="-0.45070717111229897"><ele></ele><time>2017-7-15T16:35:24Z</time></trkpt>
<trkpt lat="44.80322862043977" lon="-0.4505912493914366"><ele></ele><time>2017-7-15T16:35:27Z</time></trkpt>
<trkpt lat="44.80337337590754" lon="-0.4504405427724123"><ele></ele><time>2017-7-15T16:35:30Z</time></trkpt>
<trkpt lat="44.80341570451856" lon="-0.4504143074154854"><ele></ele><time>2017-7-15T16:35:33Z</time></trkpt>
<trkpt lat="44.80370773002505" lon="-0.45023929327726364"><ele></ele><time>2017-7-15T16:35:36Z</time></trkpt>
<trkpt lat="44.803812839090824" lon="-0.45004005543887615"><ele></ele><time>2017-7-15T16:35:39Z</time></trkpt>
<trkpt lat="44.8038259986788" lon="-0.4499820526689291"><ele></ele><time>2017-7-15T16:35:42Z</time></trkpt>
<trkpt lat="44.80376179330051" lon="-0.44960553757846355"><ele></ele><time>2017-7-15T16:35:45Z</time></trkpt>
<trkpt lat="44.80338854715228" lon="-0.4489671718329191"><ele></ele><time>2017-7-15T16:35:48Z</time></trkpt>
<trkpt lat="44.803053522482514" lon="-0.44838672503829"><ele></ele><time>2017-7-15T16:35:51Z</time></trkpt>
<trkpt lat="44.8029800131917" lon="-0.4481720644980669"><ele></ele><time>2017-7-15T16:35:54Z</time></trkpt>
<trkpt lat="44.80286358855665" lon="-0.44743294827640057"><ele></ele><time>2017-7-15T16:35:57Z</time></trkpt>
<trkpt lat="44.8029575496912" lon="-0.44665259309113026"><ele></ele><time>2017-7-15T16:36:0Z</time></trkpt>
<trkpt lat="44.80305335484445" lon="-0.4463442228734493"><ele></ele><time>2017-7-15T16:36:3Z</time></trkpt>
<trkpt lat="44.80321076698601" lon="-0.44580359011888504"><ele></ele><time>2017-7-15T16:36:6Z</time></trkpt>
<trkpt lat="44.80333037674427" lon="-0.4452244006097317"><ele></ele><time>2017-7-15T16:36:9Z</time></trkpt>
<trkpt lat="44.80348720215261" lon="-0.44444563798606396"><ele></ele><time>2017-7-15T16:36:12Z</time></trkpt>
<trkpt lat="44.80357127264142" lon="-0.4440527781844139"><ele></ele><time>2017-7-15T16:36:15Z</time></trkpt>
<trkpt lat="44.803782161325216" lon="-0.44334065169095993"><ele></ele><time>2017-7-15T16:36:18Z</time></trkpt>
<trkpt lat="44.80402942746878" lon="-0.44265090487897396"><ele></ele><time>2017-7-15T16:36:21Z</time></trkpt>
<trkpt lat="44.80437803082168" lon="-0.44199191965162754"><ele></ele><time>2017-7-15T16:36:24Z</time></trkpt>
<trkpt lat="44.80476510711014" lon="-0.4414096288383007"><ele></ele><time>2017-7-15T16:36:27Z</time></trkpt>
<trkpt lat="44.80493936687708" lon="-0.4412658791989088"><ele></ele><time>2017-7-15T16:36:30Z</time></trkpt>
<trkpt lat="44.804893685504794" lon="-0.4410179425030947"><ele></ele><time>2017-7-15T16:36:33Z</time></trkpt>
<trkpt lat="44.80468690395355" lon="-0.4403090011328459"><ele></ele><time>2017-7-15T16:36:36Z</time></trkpt>
<trkpt lat="44.804530162364244" lon="-0.43958212248981"><ele></ele><time>2017-7-15T16:36:39Z</time></trkpt>
<trkpt lat="44.804394794628024" lon="-0.43880227021873"><ele></ele><time>2017-7-15T16:36:42Z</time></trkpt>
<trkpt lat="44.80426202528179" lon="-0.43805183842778206"><ele></ele><time>2017-7-15T16:36:45Z</time></trkpt>
<trkpt lat="44.80408231727779" lon="-0.4373130574822426"><ele></ele><time>2017-7-15T16:36:48Z</time></trkpt>
<trkpt lat="44.804000090807676" lon="-0.43710920959711075"><ele></ele><time>2017-7-15T16:36:51Z</time></trkpt>
<trkpt lat="44.803655594587326" lon="-0.4364398308098316"><ele></ele><time>2017-7-15T16:36:54Z</time></trkpt>
<trkpt lat="44.803331047296524" lon="-0.4358043987303972"><ele></ele><time>2017-7-15T16:36:57Z</time></trkpt>
<trkpt lat="44.80305075645447" lon="-0.43533023446798325"><ele></ele><time>2017-7-15T16:37:0Z</time></trkpt>
<trkpt lat="44.802674409002066" lon="-0.43520551174879074"><ele></ele><time>2017-7-15T16:37:3Z</time></trkpt>
<trkpt lat="44.802083149552345" lon="-0.43516041710972786"><ele></ele><time>2017-7-15T16:37:6Z</time></trkpt>
<trkpt lat="44.801927246153355" lon="-0.4351263027638197"><ele></ele><time>2017-7-15T16:37:9Z</time></trkpt>
<trkpt lat="44.80155265890062" lon="-0.43461810797452927"><ele></ele><time>2017-7-15T16:37:12Z</time></trkpt>
<trkpt lat="44.80152307078242" lon="-0.4344855062663555"><ele></ele><time>2017-7-15T16:37:15Z</time></trkpt>
<trkpt lat="44.80140907689929" lon="-0.43405543081462383"><ele></ele><time>2017-7-15T16:37:18Z</time></trkpt>
<trkpt lat="44.80126096867025" lon="-0.4338472243398428"><ele></ele><time>2017-7-15T16:37:21Z</time></trkpt>
<trkpt lat="44.800799963995814" lon="-0.43344832956790924"><ele></ele><time>2017-7-15T16:37:24Z</time></trkpt>
<trkpt lat="44.800302078947425" lon="-0.4331323318183422"><ele></ele><time>2017-7-15T16:37:27Z</time></trkpt>
<trkpt lat="44.79990016669035" lon="-0.4328547231853008"><ele></ele><time>2017-7-15T16:37:30Z</time></trkpt>
<trkpt lat="44.79984048753977" lon="-0.4327680543065071"><ele></ele><time>2017-7-15T16:37:33Z</time></trkpt>
<trkpt lat="44.799787010997534" lon="-0.43265816755592823"><ele></ele><time>2017-7-15T16:37:36Z</time></trkpt>
<trkpt lat="44.79958944953978" lon="-0.43195266276597977"><ele></ele><time>2017-7-15T16:37:39Z</time></trkpt>
<trkpt lat="44.799407897517085" lon="-0.4312117025256157"><ele></ele><time>2017-7-15T16:37:42Z</time></trkpt>
<trkpt lat="44.7992258425802" lon="-0.43049496598541737"><ele></ele><time>2017-7-15T16:37:45Z</time></trkpt>
<trkpt lat="44.79908452369273" lon="-0.42973305098712444"><ele></ele><time>2017-7-15T16:37:48Z</time></trkpt>
<trkpt lat="44.799069268628955" lon="-0.42897465638816357"><ele></ele><time>2017-7-15T16:37:51Z</time></trkpt>
<trkpt lat="44.79905770160258" lon="-0.4286563117057085"><ele></ele><time>2017-7-15T16:37:54Z</time></trkpt>
<trkpt lat="44.798915795981884" lon="-0.4282109811902046"><ele></ele><time>2017-7-15T16:37:57Z</time></trkpt>
<trkpt lat="44.798876233398914" lon="-0.4281472787261009"><ele></ele><time>2017-7-15T16:38:0Z</time></trkpt>
<trkpt lat="44.79879677295685" lon="-0.4280398227274418"><ele></ele><time>2017-7-15T16:38:3Z</time></trkpt>
<trkpt lat="44.798551853746176" lon="-0.42785181663930416"><ele></ele><time>2017-7-15T16:38:6Z</time></trkpt>
<trkpt lat="44.798334678635" lon="-0.4278073087334633"><ele></ele><time>2017-7-15T16:38:9Z</time></trkpt>
<trkpt lat="44.79777451604605" lon="-0.42778476141393185"><ele></ele><time>2017-7-15T16:38:12Z</time></trkpt>
<trkpt lat="44.79719985276461" lon="-0.4277550894767046"><ele></ele><time>2017-7-15T16:38:15Z</time></trkpt>
<trkpt lat="44.7966390196234" lon="-0.42772918939590454"><ele></ele><time>2017-7-15T16:38:18Z</time></trkpt>
<trkpt lat="44.79627398774028" lon="-0.42767160572111607"><ele></ele><time>2017-7-15T16:38:21Z</time></trkpt>
<trkpt lat="44.79576361365616" lon="-0.42740078642964363"><ele></ele><time>2017-7-15T16:38:24Z</time></trkpt>
<trkpt lat="44.7952644713223" lon="-0.4271064978092909"><ele></ele><time>2017-7-15T16:38:27Z</time></trkpt>
<trkpt lat="44.79483372531831" lon="-0.42689284309744835"><ele></ele><time>2017-7-15T16:38:30Z</time></trkpt>
<trkpt lat="44.79465560987592" lon="-0.4267391189932823"><ele></ele><time>2017-7-15T16:38:33Z</time></trkpt>
<trkpt lat="44.79448797181249" lon="-0.42650124058127403"><ele></ele><time>2017-7-15T16:38:36Z</time></trkpt>
<trkpt lat="44.79406971484423" lon="-0.4259684029966593"><ele></ele><time>2017-7-15T16:38:39Z</time></trkpt>
<trkpt lat="44.793545762076974" lon="-0.4256710968911648"><ele></ele><time>2017-7-15T16:38:42Z</time></trkpt>
<trkpt lat="44.79300797916949" lon="-0.42546012438833714"><ele></ele><time>2017-7-15T16:38:45Z</time></trkpt>
<trkpt lat="44.79246340692043" lon="-0.4253280255943537"><ele></ele><time>2017-7-15T16:38:48Z</time></trkpt>
<trkpt lat="44.79189804755151" lon="-0.4252017103135586"><ele></ele><time>2017-7-15T16:38:51Z</time></trkpt>
<trkpt lat="44.791459841653705" lon="-0.425017224624753"><ele></ele><time>2017-7-15T16:38:54Z</time></trkpt>
<trkpt lat="44.79104292578995" lon="-0.4244537930935621"><ele></ele><time>2017-7-15T16:38:57Z</time></trkpt>
<trkpt lat="44.790729777887464" lon="-0.42382556945085526"><ele></ele><time>2017-7-15T16:39:0Z</time></trkpt>
<trkpt lat="44.79041839018464" lon="-0.4231978487223387"><ele></ele><time>2017-7-15T16:39:3Z</time></trkpt>
<trkpt lat="44.790078084915876" lon="-0.4225277993828058"><ele></ele><time>2017-7-15T16:39:6Z</time></trkpt>
<trkpt lat="44.78976300917566" lon="-0.4218975640833378"><ele></ele><time>2017-7-15T16:39:9Z</time></trkpt>
<trkpt lat="44.78954751044512" lon="-0.42158651165664196"><ele></ele><time>2017-7-15T16:39:12Z</time></trkpt>
<trkpt lat="44.78906077332795" lon="-0.4212484695017338"><ele></ele><time>2017-7-15T16:39:15Z</time></trkpt>
<trkpt lat="44.78853179141879" lon="-0.4210388381034136"><ele></ele><time>2017-7-15T16:39:18Z</time></trkpt>
<trkpt lat="44.788116635754704" lon="-0.42053768411278725"><ele></ele><time>2017-7-15T16:39:21Z</time></trkpt>
<trkpt lat="44.787822514772415" lon="-0.41986729949712753"><ele></ele><time>2017-7-15T16:39:24Z</time></trkpt>
<trkpt lat="44.78754716925323" lon="-0.41920906864106655"><ele></ele><time>2017-7-15T16:39:27Z</time></trkpt>
<trkpt lat="44.787258161231875" lon="-0.41855787858366966"><ele></ele><time>2017-7-15T16:39:30Z</time></trkpt>
<trkpt lat="44.78697535581887" lon="-0.41786737740039825"><ele></ele><time>2017-7-15T16:39:33Z</time></trkpt>
<trkpt lat="44.78679422289133" lon="-0.41749161668121815"><ele></ele><time>2017-7-15T16:39:36Z</time></trkpt>
<trkpt lat="44.78667587041855" lon="-0.4173493757843971"><ele></ele><time>2017-7-15T16:39:39Z</time></trkpt>
<trkpt lat="44.78637839667499" lon="-0.4171913769096136"><ele></ele><time>2017-7-15T16:39:42Z</time></trkpt>
<trkpt lat="44.785814210772514" lon="-0.41708811186254025"><ele></ele><time>2017-7-15T16:39:45Z</time></trkpt>
<trkpt lat="44.785265447571874" lon="-0.41699607856571674"><ele></ele><time>2017-7-15T16:39:48Z</time></trkpt>
<trkpt lat="44.78471609763801" lon="-0.4169119242578745"><ele></ele><time>2017-7-15T16:39:51Z</time></trkpt>
<trkpt lat="44.784170435741544" lon="-0.416820477694273"><ele></ele><time>2017-7-15T16:39:54Z</time></trkpt>
<trkpt lat="44.78360683657229" lon="-0.41670422069728374"><ele></ele><time>2017-7-15T16:39:57Z</time></trkpt>
<trkpt lat="44.783099396154284" lon="-0.4164040647447109"><ele></ele><time>2017-7-15T16:40:0Z</time></trkpt>
<trkpt lat="44.782614167779684" lon="-0.41599913500249386"><ele></ele><time>2017-7-15T16:40:3Z</time></trkpt>
<trkpt lat="44.782222816720605" lon="-0.41541852056980133"><ele></ele><time>2017-7-15T16:40:6Z</time></trkpt>
<trkpt lat="44.781921319663525" lon="-0.4147715214639902"><ele></ele><time>2017-7-15T16:40:9Z</time></trkpt>
<trkpt lat="44.78171571157873" lon="-0.414010863751173"><ele></ele><time>2017-7-15T16:40:12Z</time></trkpt>
<trkpt lat="44.78162166662514" lon="-0.41318943724036217"><ele></ele><time>2017-7-15T16:40:15Z</time></trkpt>
<trkpt lat="44.78153164498508" lon="-0.4124197270721197"><ele></ele><time>2017-7-15T16:40:18Z</time></trkpt>
<trkpt lat="44.781309021636844" lon="-0.41172847151756287"><ele></ele><time>2017-7-15T16:40:21Z</time></trkpt>
<trkpt lat="44.781137024983764" lon="-0.4112135712057352"><ele></ele><time>2017-7-15T16:40:24Z</time></trkpt>
<trkpt lat="44.781069131568074" lon="-0.4111155029386282"><ele></ele><time>2017-7-15T16:40:27Z</time></trkpt>
<trkpt lat="44.781025210395455" lon="-0.4110268224030733"><ele></ele><time>2017-7-15T16:40:30Z</time></trkpt>
<trkpt lat="44.78101481683552" lon="-0.4109494574368"><ele></ele><time>2017-7-15T16:40:33Z</time></trkpt>
<trkpt lat="44.781110705807805" lon="-0.4107573442161083"><ele></ele><time>2017-7-15T16:40:36Z</time></trkpt>
<trkpt lat="44.78140415623784" lon="-0.4101185593754053"><ele></ele><time>2017-7-15T16:40:39Z</time></trkpt>
<trkpt lat="44.78141429834068" lon="-0.40989778004586697"><ele></ele><time>2017-7-15T16:40:42Z</time></trkpt>
<trkpt lat="44.781272979453206" lon="-0.40914030745625496"><ele></ele><time>2017-7-15T16:40:45Z</time></trkpt>
<trkpt lat="44.781117076054215" lon="-0.408385181799531"><ele></ele><time>2017-7-15T16:40:48Z</time></trkpt>
<trkpt lat="44.781158566474915" lon="-0.40790481492877007"><ele></ele><time>2017-7-15T16:40:51Z</time></trkpt>
<trkpt lat="44.781188908964396" lon="-0.4077910725027323"><ele></ele><time>2017-7-15T16:40:54Z</time></trkpt>
<trkpt lat="44.78150222450495" lon="-0.4070914350450039"><ele></ele><time>2017-7-15T16:40:57Z</time></trkpt>
<trkpt lat="44.78169878013432" lon="-0.4067016765475273"><ele></ele><time>2017-7-15T16:41:0Z</time></trkpt>
<trkpt lat="44.78207160718739" lon="-0.40664694271981716"><ele></ele><time>2017-7-15T16:41:3Z</time></trkpt>
<trkpt lat="44.78259539231658" lon="-0.40682598017156124"><ele></ele><time>2017-7-15T16:41:6Z</time></trkpt>
<trkpt lat="44.78311481885612" lon="-0.4066466074436903"><ele></ele><time>2017-7-15T16:41:9Z</time></trkpt>
<trkpt lat="44.783233338966966" lon="-0.4059344809502363"><ele></ele><time>2017-7-15T16:41:12Z</time></trkpt>
<trkpt lat="44.782810136675835" lon="-0.4054602328687906"><ele></ele><time>2017-7-15T16:41:15Z</time></trkpt>
<trkpt lat="44.78249371983111" lon="-0.4049156606197357"><ele></ele><time>2017-7-15T16:41:18Z</time></trkpt>
<trkpt lat="44.78254015557468" lon="-0.4041544161736965"><ele></ele><time>2017-7-15T16:41:21Z</time></trkpt>
<trkpt lat="44.78261576034129" lon="-0.4033948481082916"><ele></ele><time>2017-7-15T16:41:24Z</time></trkpt>
<trkpt lat="44.78284894488752" lon="-0.40269361808896065"><ele></ele><time>2017-7-15T16:41:27Z</time></trkpt>
<trkpt lat="44.78307869285345" lon="-0.4020056314766407"><ele></ele><time>2017-7-15T16:41:30Z</time></trkpt>
<trkpt lat="44.78323115967214" lon="-0.4012695327401161"><ele></ele><time>2017-7-15T16:41:33Z</time></trkpt>
<trkpt lat="44.783319337293506" lon="-0.4005069471895695"><ele></ele><time>2017-7-15T16:41:36Z</time></trkpt>
<trkpt lat="44.78309428319335" lon="-0.3998089022934437"><ele></ele><time>2017-7-15T16:41:39Z</time></trkpt>
<trkpt lat="44.78287878446281" lon="-0.39908663369715214"><ele></ele><time>2017-7-15T16:41:42Z</time></trkpt>
<trkpt lat="44.78298095986247" lon="-0.39829881861805916"><ele></ele><time>2017-7-15T16:41:45Z</time></trkpt>
<trkpt lat="44.78311641141772" lon="-0.39788760244846344"><ele></ele><time>2017-7-15T16:41:48Z</time></trkpt>
<trkpt lat="44.78314314968884" lon="-0.397704541683197"><ele></ele><time>2017-7-15T16:41:51Z</time></trkpt>
<trkpt lat="44.7831951174885" lon="-0.3969033155590296"><ele></ele><time>2017-7-15T16:41:54Z</time></trkpt>
<trkpt lat="44.78323115967214" lon="-0.39613477885723114"><ele></ele><time>2017-7-15T16:41:57Z</time></trkpt>
<trkpt lat="44.783285139128566" lon="-0.395357022061944"><ele></ele><time>2017-7-15T16:42:0Z</time></trkpt>
<trkpt lat="44.78312705643475" lon="-0.39461681619286537"><ele></ele><time>2017-7-15T16:42:3Z</time></trkpt>
<trkpt lat="44.782762778922915" lon="-0.39400292560458183"><ele></ele><time>2017-7-15T16:42:6Z</time></trkpt>
<trkpt lat="44.782421216368675" lon="-0.39341208525002"><ele></ele><time>2017-7-15T16:42:9Z</time></trkpt>
<trkpt lat="44.782055681571364" lon="-0.3928173892199993"><ele></ele><time>2017-7-15T16:42:12Z</time></trkpt>
<trkpt lat="44.78176508098841" lon="-0.3921579848974943"><ele></ele><time>2017-7-15T16:42:15Z</time></trkpt>
<trkpt lat="44.781560311093926" lon="-0.39145189337432384"><ele></ele><time>2017-7-15T16:42:18Z</time></trkpt>
<trkpt lat="44.78133676573634" lon="-0.3907295409590006"><ele></ele><time>2017-7-15T16:42:21Z</time></trkpt>
<trkpt lat="44.781100647524" lon="-0.39003292098641396"><ele></ele><time>2017-7-15T16:42:24Z</time></trkpt>
<trkpt lat="44.78093007579446" lon="-0.389299001544714"><ele></ele><time>2017-7-15T16:42:27Z</time></trkpt>
<trkpt lat="44.78091951459646" lon="-0.3891762066632509"><ele></ele><time>2017-7-15T16:42:30Z</time></trkpt>
<trkpt lat="44.7808828856796" lon="-0.38838629610836506"><ele></ele><time>2017-7-15T16:42:33Z</time></trkpt>
<trkpt lat="44.78085254319012" lon="-0.38759177550673485"><ele></ele><time>2017-7-15T16:42:36Z</time></trkpt>
<trkpt lat="44.78097039274871" lon="-0.3868378233164549"><ele></ele><time>2017-7-15T16:42:39Z</time></trkpt>
<trkpt lat="44.78127624839544" lon="-0.3861698694527149"><ele></ele><time>2017-7-15T16:42:42Z</time></trkpt>
<trkpt lat="44.781476743519306" lon="-0.3854237124323845"><ele></ele><time>2017-7-15T16:42:45Z</time></trkpt>
<trkpt lat="44.78156793862581" lon="-0.3846560977399349"><ele></ele><time>2017-7-15T16:42:48Z</time></trkpt>
<trkpt lat="44.7816255223006" lon="-0.38386124186217785"><ele></ele><time>2017-7-15T16:42:51Z</time></trkpt>
<trkpt lat="44.78169383481145" lon="-0.3830410726368427"><ele></ele><time>2017-7-15T16:42:54Z</time></trkpt>
<trkpt lat="44.781814282760024" lon="-0.38229625672101974"><ele></ele><time>2017-7-15T16:42:57Z</time></trkpt>
<trkpt lat="44.78185594081879" lon="-0.38187984377145767"><ele></ele><time>2017-7-15T16:43:0Z</time></trkpt>
<trkpt lat="44.78179877623916" lon="-0.38159997202456"><ele></ele><time>2017-7-15T16:43:3Z</time></trkpt>
<trkpt lat="44.78146182373166" lon="-0.38094484247267246"><ele></ele><time>2017-7-15T16:43:6Z</time></trkpt>
<trkpt lat="44.78130684234202" lon="-0.3802188020199537"><ele></ele><time>2017-7-15T16:43:9Z</time></trkpt>
<trkpt lat="44.78132695890963" lon="-0.3794590663164854"><ele></ele><time>2017-7-15T16:43:12Z</time></trkpt>
<trkpt lat="44.78136735968292" lon="-0.3786679822951555"><ele></ele><time>2017-7-15T16:43:15Z</time></trkpt>
<trkpt lat="44.78142695501447" lon="-0.3778646606951952"><ele></ele><time>2017-7-15T16:43:18Z</time></trkpt>
<trkpt lat="44.7814114484936" lon="-0.37709277123212814"><ele></ele><time>2017-7-15T16:43:21Z</time></trkpt>
<trkpt lat="44.7813580557704" lon="-0.3763105720281601"><ele></ele><time>2017-7-15T16:43:24Z</time></trkpt>
<trkpt lat="44.781342800706625" lon="-0.37599876523017883"><ele></ele><time>2017-7-15T16:43:27Z</time></trkpt>
<trkpt lat="44.781238194555044" lon="-0.3752443939447403"><ele></ele><time>2017-7-15T16:43:30Z</time></trkpt>
<trkpt lat="44.781117998063564" lon="-0.374463452026248"><ele></ele><time>2017-7-15T16:43:33Z</time></trkpt>
<trkpt lat="44.781041387468576" lon="-0.3737055603414774"><ele></ele><time>2017-7-15T16:43:36Z</time></trkpt>
<trkpt lat="44.781071562319994" lon="-0.37287918850779533"><ele></ele><time>2017-7-15T16:43:39Z</time></trkpt>
<trkpt lat="44.781108694151044" lon="-0.37235875613987446"><ele></ele><time>2017-7-15T16:43:42Z</time></trkpt>
<trkpt lat="44.78115395642817" lon="-0.3715411853045225"><ele></ele><time>2017-7-15T16:43:45Z</time></trkpt>
<trkpt lat="44.78116376325488" lon="-0.3707374446094036"><ele></ele><time>2017-7-15T16:43:48Z</time></trkpt>
<trkpt lat="44.781058905646205" lon="-0.36997754126787186"><ele></ele><time>2017-7-15T16:43:51Z</time></trkpt>
<trkpt lat="44.780885484069586" lon="-0.36924404092133045"><ele></ele><time>2017-7-15T16:43:54Z</time></trkpt>
<trkpt lat="44.7806828096509" lon="-0.3684858977794647"><ele></ele><time>2017-7-15T16:43:57Z</time></trkpt>
<trkpt lat="44.78048834949732" lon="-0.3677113261073828"><ele></ele><time>2017-7-15T16:44:0Z</time></trkpt>
<trkpt lat="44.7803995013237" lon="-0.3669367544353008"><ele></ele><time>2017-7-15T16:44:3Z</time></trkpt>
<trkpt lat="44.7803458571434" lon="-0.36611021496355534"><ele></ele><time>2017-7-15T16:44:6Z</time></trkpt>
<trkpt lat="44.78029112331569" lon="-0.3653143532574177"><ele></ele><time>2017-7-15T16:44:9Z</time></trkpt>
<trkpt lat="44.780250722542405" lon="-0.36451580934226513"><ele></ele><time>2017-7-15T16:44:12Z</time></trkpt>
<trkpt lat="44.780280562117696" lon="-0.3642650227993727"><ele></ele><time>2017-7-15T16:44:15Z</time></trkpt>
<trkpt lat="44.78035700507462" lon="-0.3640576545149088"><ele></ele><time>2017-7-15T16:44:18Z</time></trkpt>
<trkpt lat="44.780504275113344" lon="-0.36393594928085804"><ele></ele><time>2017-7-15T16:44:21Z</time></trkpt>
<trkpt lat="44.780565463006496" lon="-0.36328576505184174"><ele></ele><time>2017-7-15T16:44:24Z</time></trkpt>
<trkpt lat="44.780453564599156" lon="-0.363044198602438"><ele></ele><time>2017-7-15T16:44:27Z</time></trkpt>
<trkpt lat="44.780161790549755" lon="-0.3623135481029749"><ele></ele><time>2017-7-15T16:44:30Z</time></trkpt>
<trkpt lat="44.77989147417247" lon="-0.36162128672003746"><ele></ele><time>2017-7-15T16:44:33Z</time></trkpt>
<trkpt lat="44.77962979115546" lon="-0.36095735616981983"><ele></ele><time>2017-7-15T16:44:36Z</time></trkpt>
<trkpt lat="44.77936416864395" lon="-0.36027842201292515"><ele></ele><time>2017-7-15T16:44:39Z</time></trkpt>
<trkpt lat="44.77909770794213" lon="-0.3596029244363308"><ele></ele><time>2017-7-15T16:44:42Z</time></trkpt>
<trkpt lat="44.77880182676017" lon="-0.3588880319148302"><ele></ele><time>2017-7-15T16:44:45Z</time></trkpt>
<trkpt lat="44.77852991782129" lon="-0.3581985365599394"><ele></ele><time>2017-7-15T16:44:48Z</time></trkpt>
<trkpt lat="44.77825038135052" lon="-0.35752521827816963"><ele></ele><time>2017-7-15T16:44:51Z</time></trkpt>
<trkpt lat="44.777966234833" lon="-0.3568099904805422"><ele></ele><time>2017-7-15T16:44:54Z</time></trkpt>
<trkpt lat="44.77769843302667" lon="-0.3561194892972708"><ele></ele><time>2017-7-15T16:44:57Z</time></trkpt>
<trkpt lat="44.77743892930448" lon="-0.35544357262551785"><ele></ele><time>2017-7-15T16:45:0Z</time></trkpt>
<trkpt lat="44.777188980951905" lon="-0.35469221882522106"><ele></ele><time>2017-7-15T16:45:3Z</time></trkpt>
<trkpt lat="44.77700499817729" lon="-0.3539572097361088"><ele></ele><time>2017-7-15T16:45:6Z</time></trkpt>
<trkpt lat="44.77682864293456" lon="-0.353206442669034"><ele></ele><time>2017-7-15T16:45:9Z</time></trkpt>
<trkpt lat="44.77664642035961" lon="-0.3524794802069664"><ele></ele><time>2017-7-15T16:45:12Z</time></trkpt>
<trkpt lat="44.77641239762306" lon="-0.3517867159098387"><ele></ele><time>2017-7-15T16:45:15Z</time></trkpt>
<trkpt lat="44.7760358825326" lon="-0.35113971680402756"><ele></ele><time>2017-7-15T16:45:18Z</time></trkpt>
<trkpt lat="44.77573371492326" lon="-0.3506140038371086"><ele></ele><time>2017-7-15T16:45:21Z</time></trkpt>
<trkpt lat="44.77586598135531" lon="-0.3500400111079216"><ele></ele><time>2017-7-15T16:45:24Z</time></trkpt>
<trkpt lat="44.77620368823409" lon="-0.3493847977370024"><ele></ele><time>2017-7-15T16:45:27Z</time></trkpt>
<trkpt lat="44.776231767609715" lon="-0.34926703199744225"><ele></ele><time>2017-7-15T16:45:30Z</time></trkpt>
<trkpt lat="44.7762896027416" lon="-0.34850142896175385"><ele></ele><time>2017-7-15T16:45:33Z</time></trkpt>
<trkpt lat="44.77629270404577" lon="-0.34779894165694714"><ele></ele><time>2017-7-15T16:45:36Z</time></trkpt>
<trkpt lat="44.776183823123574" lon="-0.34704104997217655"><ele></ele><time>2017-7-15T16:45:39Z</time></trkpt>
<trkpt lat="44.776034876704216" lon="-0.34678774885833263"><ele></ele><time>2017-7-15T16:45:42Z</time></trkpt>
<trkpt lat="44.77595851756632" lon="-0.34669630229473114"><ele></ele><time>2017-7-15T16:45:45Z</time></trkpt>
<trkpt lat="44.77584293112159" lon="-0.34659680910408497"><ele></ele><time>2017-7-15T16:45:48Z</time></trkpt>
<trkpt lat="44.77573212236166" lon="-0.3465054463595152"><ele></ele><time>2017-7-15T16:45:51Z</time></trkpt>
<trkpt lat="44.77555417455733" lon="-0.34631584770977497"><ele></ele><time>2017-7-15T16:45:54Z</time></trkpt>
<trkpt lat="44.775471948087215" lon="-0.3462643828243017"><ele></ele><time>2017-7-15T16:45:57Z</time></trkpt>
<trkpt lat="44.77494883351028" lon="-0.346023989841342"><ele></ele><time>2017-7-15T16:46:0Z</time></trkpt>
<trkpt lat="44.774411134421825" lon="-0.3457947447896004"><ele></ele><time>2017-7-15T16:46:3Z</time></trkpt>
<trkpt lat="44.77409488521516" lon="-0.34577622078359127"><ele></ele><time>2017-7-15T16:46:6Z</time></trkpt>
<trkpt lat="44.773984495550394" lon="-0.3455470595508814"><ele></ele><time>2017-7-15T16:46:9Z</time></trkpt>
<trkpt lat="44.77392942644656" lon="-0.3454387653619051"><ele></ele><time>2017-7-15T16:46:12Z</time></trkpt>
<trkpt lat="44.77369992993772" lon="-0.34507029689848423"><ele></ele><time>2017-7-15T16:46:15Z</time></trkpt>
<trkpt lat="44.77324026636779" lon="-0.3455437906086445"><ele></ele><time>2017-7-15T16:46:18Z</time></trkpt>
<trkpt lat="44.773089308291674" lon="-0.34564211033284664"><ele></ele><time>2017-7-15T16:46:21Z</time></trkpt>
<trkpt lat="44.77293365634978" lon="-0.34552283585071564"><ele></ele><time>2017-7-15T16:46:24Z</time></trkpt>
<trkpt lat="44.77277163416147" lon="-0.3454696945846081"><ele></ele><time>2017-7-15T16:46:27Z</time></trkpt>
<trkpt lat="44.77242068387568" lon="-0.3448889125138521"><ele></ele><time>2017-7-15T16:46:30Z</time></trkpt>
<trkpt lat="44.77214793674648" lon="-0.344186257570982"><ele></ele><time>2017-7-15T16:46:33Z</time></trkpt>
<trkpt lat="44.77213720791042" lon="-0.3439886122941971"><ele></ele><time>2017-7-15T16:46:36Z</time></trkpt>
<trkpt lat="44.77218037471175" lon="-0.3432318940758705"><ele></ele><time>2017-7-15T16:46:39Z</time></trkpt>
<trkpt lat="44.77217392064631" lon="-0.3431620728224516"><ele></ele><time>2017-7-15T16:46:42Z</time></trkpt>
<trkpt lat="44.772103261202574" lon="-0.34235388971865177"><ele></ele><time>2017-7-15T16:46:45Z</time></trkpt>
<trkpt lat="44.77207333780825" lon="-0.341581329703331"><ele></ele><time>2017-7-15T16:46:48Z</time></trkpt>
<trkpt lat="44.77214466780424" lon="-0.3407889883965254"><ele></ele><time>2017-7-15T16:46:51Z</time></trkpt>
<trkpt lat="44.77221725508571" lon="-0.34003235399723053"><ele></ele><time>2017-7-15T16:46:54Z</time></trkpt>
<trkpt lat="44.77228791452944" lon="-0.3392224106937647"><ele></ele><time>2017-7-15T16:46:57Z</time></trkpt>
<trkpt lat="44.77234306745231" lon="-0.3384116291999817"><ele></ele><time>2017-7-15T16:47:0Z</time></trkpt>
<trkpt lat="44.77232680656016" lon="-0.33801835030317307"><ele></ele><time>2017-7-15T16:47:3Z</time></trkpt>
<trkpt lat="44.772221026942134" lon="-0.33731527626514435"><ele></ele><time>2017-7-15T16:47:6Z</time></trkpt>
<trkpt lat="44.77202480658889" lon="-0.3365754056721926"><ele></ele><time>2017-7-15T16:47:9Z</time></trkpt>
<trkpt lat="44.771940652281046" lon="-0.33641908317804337"><ele></ele><time>2017-7-15T16:47:12Z</time></trkpt>
<trkpt lat="44.77186613716185" lon="-0.33643207512795925"><ele></ele><time>2017-7-15T16:47:15Z</time></trkpt>
<trkpt lat="44.77172766812146" lon="-0.33586294390261173"><ele></ele><time>2017-7-15T16:47:18Z</time></trkpt>
<trkpt lat="44.77174233645201" lon="-0.335787171497941"><ele></ele><time>2017-7-15T16:47:21Z</time></trkpt>
<trkpt lat="44.771675700321794" lon="-0.3350160364061594"><ele></ele><time>2017-7-15T16:47:24Z</time></trkpt>
<trkpt lat="44.771674359217286" lon="-0.3349474724382162"><ele></ele><time>2017-7-15T16:47:27Z</time></trkpt>
<trkpt lat="44.771640580147505" lon="-0.33462703227996826"><ele></ele><time>2017-7-15T16:47:30Z</time></trkpt>
<trkpt lat="44.77165650576353" lon="-0.33383041620254517"><ele></ele><time>2017-7-15T16:47:33Z</time></trkpt>
<trkpt lat="44.771694391965866" lon="-0.3330148570239544"><ele></ele><time>2017-7-15T16:47:36Z</time></trkpt>
<trkpt lat="44.771690871566534" lon="-0.33225604332983494"><ele></ele><time>2017-7-15T16:47:39Z</time></trkpt>
<trkpt lat="44.77164912968874" lon="-0.33149873837828636"><ele></ele><time>2017-7-15T16:47:42Z</time></trkpt>
<trkpt lat="44.771596072241664" lon="-0.3307029604911804"><ele></ele><time>2017-7-15T16:47:45Z</time></trkpt>
<trkpt lat="44.77148149162531" lon="-0.3299381956458092"><ele></ele><time>2017-7-15T16:47:48Z</time></trkpt>
<trkpt lat="44.771295161917806" lon="-0.32912992872297764"><ele></ele><time>2017-7-15T16:47:51Z</time></trkpt>
<trkpt lat="44.77108335122466" lon="-0.3283356595784426"><ele></ele><time>2017-7-15T16:47:54Z</time></trkpt>
<trkpt lat="44.770939936861396" lon="-0.3275500237941742"><ele></ele><time>2017-7-15T16:47:57Z</time></trkpt>
<trkpt lat="44.77094203233719" lon="-0.32675642520189285"><ele></ele><time>2017-7-15T16:48:0Z</time></trkpt>
<trkpt lat="44.771109921857715" lon="-0.3259033989161253"><ele></ele><time>2017-7-15T16:48:3Z</time></trkpt>
<trkpt lat="44.771377639845014" lon="-0.32521977089345455"><ele></ele><time>2017-7-15T16:48:6Z</time></trkpt>
<trkpt lat="44.771697828546166" lon="-0.32452591694891453"><ele></ele><time>2017-7-15T16:48:9Z</time></trkpt>
<trkpt lat="44.77198482491076" lon="-0.32378604635596275"><ele></ele><time>2017-7-15T16:48:12Z</time></trkpt>
<trkpt lat="44.77213058620691" lon="-0.3229476884007454"><ele></ele><time>2017-7-15T16:48:15Z</time></trkpt>
<trkpt lat="44.7721416503191" lon="-0.32264309003949165"><ele></ele><time>2017-7-15T16:48:18Z</time></trkpt>
<trkpt lat="44.772075517103076" lon="-0.3217807598412037"><ele></ele><time>2017-7-15T16:48:21Z</time></trkpt>
<trkpt lat="44.7719497885555" lon="-0.3209025878459215"><ele></ele><time>2017-7-15T16:48:24Z</time></trkpt>
<trkpt lat="44.77183839306235" lon="-0.3201565146446228"><ele></ele><time>2017-7-15T16:48:27Z</time></trkpt>
<trkpt lat="44.77173370309174" lon="-0.3193738963454962"><ele></ele><time>2017-7-15T16:48:30Z</time></trkpt>
<trkpt lat="44.77169455960393" lon="-0.3186067007482052"><ele></ele><time>2017-7-15T16:48:33Z</time></trkpt>
<trkpt lat="44.77171903476119" lon="-0.3178166225552559"><ele></ele><time>2017-7-15T16:48:36Z</time></trkpt>
<trkpt lat="44.771762704476714" lon="-0.3170319925993681"><ele></ele><time>2017-7-15T16:48:39Z</time></trkpt>
<trkpt lat="44.77173646911979" lon="-0.3162495419383049"><ele></ele><time>2017-7-15T16:48:42Z</time></trkpt>
<trkpt lat="44.77159112691879" lon="-0.31548628583550453"><ele></ele><time>2017-7-15T16:48:45Z</time></trkpt>
<trkpt lat="44.77139499038458" lon="-0.31471313908696175"><ele></ele><time>2017-7-15T16:48:48Z</time></trkpt>
<trkpt lat="44.7710675932467" lon="-0.3141091391444206"><ele></ele><time>2017-7-15T16:48:51Z</time></trkpt>
<trkpt lat="44.770806077867746" lon="-0.31368895433843136"><ele></ele><time>2017-7-15T16:48:54Z</time></trkpt>
<trkpt lat="44.770693592727184" lon="-0.3135665785521269"><ele></ele><time>2017-7-15T16:48:57Z</time></trkpt>
<trkpt lat="44.7705115377903" lon="-0.3134571947157383"><ele></ele><time>2017-7-15T16:49:0Z</time></trkpt>
<trkpt lat="44.76998917758465" lon="-0.313259968534112"><ele></ele><time>2017-7-15T16:49:3Z</time></trkpt>
<trkpt lat="44.76953228004277" lon="-0.31285579316318035"><ele></ele><time>2017-7-15T16:49:6Z</time></trkpt>
<trkpt lat="44.76952616125345" lon="-0.31205967999994755"><ele></ele><time>2017-7-15T16:49:9Z</time></trkpt>
<trkpt lat="44.76950512267649" lon="-0.3112999442964792"><ele></ele><time>2017-7-15T16:49:12Z</time></trkpt>
<trkpt lat="44.76950738579035" lon="-0.31092116609215736"><ele></ele><time>2017-7-15T16:49:15Z</time></trkpt>
<trkpt lat="44.7696219664067" lon="-0.3106342535465956"><ele></ele><time>2017-7-15T16:49:18Z</time></trkpt>
<trkpt lat="44.770032931119204" lon="-0.3100964706391096"><ele></ele><time>2017-7-15T16:49:21Z</time></trkpt>
<trkpt lat="44.770373571664095" lon="-0.3096282575279474"><ele></ele><time>2017-7-15T16:49:24Z</time></trkpt>
<trkpt lat="44.77029989473522" lon="-0.30932952649891376"><ele></ele><time>2017-7-15T16:49:27Z</time></trkpt>
<trkpt lat="44.76987870410085" lon="-0.3087934199720621"><ele></ele><time>2017-7-15T16:49:30Z</time></trkpt>
<trkpt lat="44.769472600892186" lon="-0.30826812610030174"><ele></ele><time>2017-7-15T16:49:33Z</time></trkpt>
<trkpt lat="44.7690193913877" lon="-0.30777493491768837"><ele></ele><time>2017-7-15T16:49:36Z</time></trkpt>
<trkpt lat="44.76854195818305" lon="-0.30729666352272034"><ele></ele><time>2017-7-15T16:49:39Z</time></trkpt>
<trkpt lat="44.768080953508615" lon="-0.30682736076414585"><ele></ele><time>2017-7-15T16:49:42Z</time></trkpt>
<trkpt lat="44.767624977976084" lon="-0.306354034692049"><ele></ele><time>2017-7-15T16:49:45Z</time></trkpt>
<trkpt lat="44.767177971079946" lon="-0.3058936167508364"><ele></ele><time>2017-7-15T16:49:48Z</time></trkpt>
<trkpt lat="44.766725515946746" lon="-0.30545230954885483"><ele></ele><time>2017-7-15T16:49:51Z</time></trkpt>
<trkpt lat="44.766252525150776" lon="-0.30507445335388184"><ele></ele><time>2017-7-15T16:49:54Z</time></trkpt>
<trkpt lat="44.76574458181858" lon="-0.30470640398561954"><ele></ele><time>2017-7-15T16:49:57Z</time></trkpt>
<trkpt lat="44.76525164209306" lon="-0.30435193330049515"><ele></ele><time>2017-7-15T16:50:0Z</time></trkpt>
<trkpt lat="44.76473590359092" lon="-0.3039960376918316"><ele></ele><time>2017-7-15T16:50:3Z</time></trkpt>
<trkpt lat="44.76420717313886" lon="-0.3037086222320795"><ele></ele><time>2017-7-15T16:50:6Z</time></trkpt>
<trkpt lat="44.76367919705808" lon="-0.3034264873713255"><ele></ele><time>2017-7-15T16:50:9Z</time></trkpt>
<trkpt lat="44.76314786821604" lon="-0.3031472861766815"><ele></ele><time>2017-7-15T16:50:12Z</time></trkpt>
<trkpt lat="44.7626247536391" lon="-0.30283480882644653"><ele></ele><time>2017-7-15T16:50:15Z</time></trkpt>
<trkpt lat="44.7621310595423" lon="-0.3024185635149479"><ele></ele><time>2017-7-15T16:50:18Z</time></trkpt>
<trkpt lat="44.761736020445824" lon="-0.3018779307603836"><ele></ele><time>2017-7-15T16:50:21Z</time></trkpt>
<trkpt lat="44.76140879094601" lon="-0.30120084062218666"><ele></ele><time>2017-7-15T16:50:24Z</time></trkpt>
<trkpt lat="44.76110930554569" lon="-0.30055392533540726"><ele></ele><time>2017-7-15T16:50:27Z</time></trkpt>
<trkpt lat="44.76075500249863" lon="-0.29995319433510303"><ele></ele><time>2017-7-15T16:50:30Z</time></trkpt>
<trkpt lat="44.760333225131035" lon="-0.299422787502408"><ele></ele><time>2017-7-15T16:50:33Z</time></trkpt>
<trkpt lat="44.75989912636578" lon="-0.2989724278450012"><ele></ele><time>2017-7-15T16:50:36Z</time></trkpt>
<trkpt lat="44.75944759324193" lon="-0.29850270599126816"><ele></ele><time>2017-7-15T16:50:39Z</time></trkpt>
<trkpt lat="44.759042747318745" lon="-0.2979774121195078"><ele></ele><time>2017-7-15T16:50:42Z</time></trkpt>
<trkpt lat="44.75866581313312" lon="-0.2973976358771324"><ele></ele><time>2017-7-15T16:50:45Z</time></trkpt>
<trkpt lat="44.75833841599524" lon="-0.29677008278667927"><ele></ele><time>2017-7-15T16:50:48Z</time></trkpt>
<trkpt lat="44.758055191487074" lon="-0.2960972674190998"><ele></ele><time>2017-7-15T16:50:51Z</time></trkpt>
<trkpt lat="44.757777499035" lon="-0.2954475022852421"><ele></ele><time>2017-7-15T16:50:54Z</time></trkpt>
<trkpt lat="44.75756258703768" lon="-0.2947484515607357"><ele></ele><time>2017-7-15T16:50:57Z</time></trkpt>
<trkpt lat="44.75741749629378" lon="-0.2939877100288868"><ele></ele><time>2017-7-15T16:51:0Z</time></trkpt>
<trkpt lat="44.757226472720504" lon="-0.29324742034077644"><ele></ele><time>2017-7-15T16:51:3Z</time></trkpt>
<trkpt lat="44.756907876580954" lon="-0.2926106471568346"><ele></ele><time>2017-7-15T16:51:6Z</time></trkpt>
<trkpt lat="44.75647914223373" lon="-0.2920891251415014"><ele></ele><time>2017-7-15T16:51:9Z</time></trkpt>
<trkpt lat="44.75602584891021" lon="-0.2916458062827587"><ele></ele><time>2017-7-15T16:51:12Z</time></trkpt>
<trkpt lat="44.75562980398536" lon="-0.2910651918500662"><ele></ele><time>2017-7-15T16:51:15Z</time></trkpt>
<trkpt lat="44.75535722449422" lon="-0.2903955616056919"><ele></ele><time>2017-7-15T16:51:18Z</time></trkpt>
<trkpt lat="44.755221689119935" lon="-0.28963607735931873"><ele></ele><time>2017-7-15T16:51:21Z</time></trkpt>
<trkpt lat="44.7552184201777" lon="-0.28883401304483414"><ele></ele><time>2017-7-15T16:51:24Z</time></trkpt>
<trkpt lat="44.755223114043474" lon="-0.2880360558629036"><ele></ele><time>2017-7-15T16:51:27Z</time></trkpt>
<trkpt lat="44.75519461557269" lon="-0.2879322040826082"><ele></ele><time>2017-7-15T16:51:30Z</time></trkpt>
<trkpt lat="44.75512948818505" lon="-0.28778325766324997"><ele></ele><time>2017-7-15T16:51:33Z</time></trkpt>
<trkpt lat="44.75523501634598" lon="-0.2871246077120304"><ele></ele><time>2017-7-15T16:51:36Z</time></trkpt>
<trkpt lat="44.75520190782845" lon="-0.2863421570509672"><ele></ele><time>2017-7-15T16:51:39Z</time></trkpt>
<trkpt lat="44.75510811433196" lon="-0.2855742909014225"><ele></ele><time>2017-7-15T16:51:42Z</time></trkpt>
<trkpt lat="44.75491600111127" lon="-0.2848507650196552"><ele></ele><time>2017-7-15T16:51:45Z</time></trkpt>
<trkpt lat="44.75461542606354" lon="-0.2841911930590868"><ele></ele><time>2017-7-15T16:51:48Z</time></trkpt>
<trkpt lat="44.75432415492833" lon="-0.28348845429718494"><ele></ele><time>2017-7-15T16:51:51Z</time></trkpt>
<trkpt lat="44.75416095927358" lon="-0.28270591981709003"><ele></ele><time>2017-7-15T16:51:54Z</time></trkpt>
<trkpt lat="44.75416976027191" lon="-0.2819405682384968"><ele></ele><time>2017-7-15T16:51:57Z</time></trkpt>
<trkpt lat="44.754286017268896" lon="-0.2811304572969675"><ele></ele><time>2017-7-15T16:52:0Z</time></trkpt>
<trkpt lat="44.75439674220979" lon="-0.2803604118525982"><ele></ele><time>2017-7-15T16:52:3Z</time></trkpt>
<trkpt lat="44.75446312688291" lon="-0.27954619377851486"><ele></ele><time>2017-7-15T16:52:6Z</time></trkpt>
<trkpt lat="44.754497073590755" lon="-0.27876810170710087"><ele></ele><time>2017-7-15T16:52:9Z</time></trkpt>
<trkpt lat="44.754534205421805" lon="-0.27794902212917805"><ele></ele><time>2017-7-15T16:52:12Z</time></trkpt>
<trkpt lat="44.7545653861016" lon="-0.2771198842674494"><ele></ele><time>2017-7-15T16:52:15Z</time></trkpt>
<trkpt lat="44.75460293702781" lon="-0.2763147186487913"><ele></ele><time>2017-7-15T16:52:18Z</time></trkpt>
<trkpt lat="44.754640739411116" lon="-0.2755103074014187"><ele></ele><time>2017-7-15T16:52:21Z</time></trkpt>
<trkpt lat="44.754673009738326" lon="-0.27475115843117237"><ele></ele><time>2017-7-15T16:52:24Z</time></trkpt>
<trkpt lat="44.75471617653966" lon="-0.27396309189498425"><ele></ele><time>2017-7-15T16:52:27Z</time></trkpt>
<trkpt lat="44.754769653081894" lon="-0.27318927459418774"><ele></ele><time>2017-7-15T16:52:30Z</time></trkpt>
<trkpt lat="44.754818016663194" lon="-0.2724157925695181"><ele></ele><time>2017-7-15T16:52:33Z</time></trkpt>
<trkpt lat="44.75486998446286" lon="-0.2716008201241493"><ele></ele><time>2017-7-15T16:52:36Z</time></trkpt>
<trkpt lat="44.754912815988064" lon="-0.27083035558462143"><ele></ele><time>2017-7-15T16:52:39Z</time></trkpt>
<trkpt lat="44.75496914237738" lon="-0.27004480361938477"><ele></ele><time>2017-7-15T16:52:42Z</time></trkpt>
<trkpt lat="44.754992946982384" lon="-0.2695859782397747"><ele></ele><time>2017-7-15T16:52:45Z</time></trkpt>
<trkpt lat="44.75500736385584" lon="-0.2687897812575102"><ele></ele><time>2017-7-15T16:52:48Z</time></trkpt>
<trkpt lat="44.754970064386725" lon="-0.2679823525249958"><ele></ele><time>2017-7-15T16:52:51Z</time></trkpt>
<trkpt lat="44.754884568974376" lon="-0.26720241643488407"><ele></ele><time>2017-7-15T16:52:54Z</time></trkpt>
<trkpt lat="44.75474157370627" lon="-0.2664124220609665"><ele></ele><time>2017-7-15T16:52:57Z</time></trkpt>
<trkpt lat="44.75458759814501" lon="-0.2656753174960613"><ele></ele><time>2017-7-15T16:53:0Z</time></trkpt>
<trkpt lat="44.75445130839944" lon="-0.2649106364697218"><ele></ele><time>2017-7-15T16:53:3Z</time></trkpt>
<trkpt lat="44.75443420931697" lon="-0.2641206420958042"><ele></ele><time>2017-7-15T16:53:6Z</time></trkpt>
<trkpt lat="44.754565972834826" lon="-0.2633227687329054"><ele></ele><time>2017-7-15T16:53:9Z</time></trkpt>
<trkpt lat="44.75480569526553" lon="-0.26257937774062157"><ele></ele><time>2017-7-15T16:53:12Z</time></trkpt>
<trkpt lat="44.75496042519808" lon="-0.26181251741945744"><ele></ele><time>2017-7-15T16:53:15Z</time></trkpt>
<trkpt lat="44.75496235303581" lon="-0.2616322226822376"><ele></ele><time>2017-7-15T16:53:18Z</time></trkpt>
<trkpt lat="44.75488046184182" lon="-0.26079168543219566"><ele></ele><time>2017-7-15T16:53:21Z</time></trkpt>
<trkpt lat="44.75479152984917" lon="-0.2600153535604477"><ele></ele><time>2017-7-15T16:53:24Z</time></trkpt>
<trkpt lat="44.7546813916415" lon="-0.259225694462657"><ele></ele><time>2017-7-15T16:53:27Z</time></trkpt>
<trkpt lat="44.7545275837183" lon="-0.25842991657555103"><ele></ele><time>2017-7-15T16:53:30Z</time></trkpt>
<trkpt lat="44.75437276996672" lon="-0.2576499804854393"><ele></ele><time>2017-7-15T16:53:33Z</time></trkpt>
<trkpt lat="44.754225919023156" lon="-0.2569079305976629"><ele></ele><time>2017-7-15T16:53:36Z</time></trkpt>
<trkpt lat="44.754082672297955" lon="-0.25615397840738297"><ele></ele><time>2017-7-15T16:53:39Z</time></trkpt>
<trkpt lat="44.75393624044955" lon="-0.2553832624107599"><ele></ele><time>2017-7-15T16:53:42Z</time></trkpt>
<trkpt lat="44.75379014387727" lon="-0.2546067629009485"><ele></ele><time>2017-7-15T16:53:45Z</time></trkpt>
<trkpt lat="44.75364111363888" lon="-0.2538487035781145"><ele></ele><time>2017-7-15T16:53:48Z</time></trkpt>
<trkpt lat="44.753516390919685" lon="-0.25310724042356014"><ele></ele><time>2017-7-15T16:53:51Z</time></trkpt>
<trkpt lat="44.75348646752536" lon="-0.25296231731772423"><ele></ele><time>2017-7-15T16:53:54Z</time></trkpt>
<trkpt lat="44.75348638370633" lon="-0.2529176417738199"><ele></ele><time>2017-7-15T16:53:57Z</time></trkpt>
<trkpt lat="44.753389824181795" lon="-0.25209286250174046"><ele></ele><time>2017-7-15T16:54:0Z</time></trkpt>
<trkpt lat="44.753299886360765" lon="-0.25131468661129475"><ele></ele><time>2017-7-15T16:54:3Z</time></trkpt>
<trkpt lat="44.753207601606846" lon="-0.25050289928913116"><ele></ele><time>2017-7-15T16:54:6Z</time></trkpt>
<trkpt lat="44.75311464630067" lon="-0.2496749348938465"><ele></ele><time>2017-7-15T16:54:9Z</time></trkpt>
<trkpt lat="44.752999898046255" lon="-0.24890237487852573"><ele></ele><time>2017-7-15T16:54:12Z</time></trkpt>
<trkpt lat="44.75283896550536" lon="-0.24810324423015118"><ele></ele><time>2017-7-15T16:54:15Z</time></trkpt>
<trkpt lat="44.752667136490345" lon="-0.24731744080781937"><ele></ele><time>2017-7-15T16:54:18Z</time></trkpt>
<trkpt lat="44.75244987756014" lon="-0.2465803362429142"><ele></ele><time>2017-7-15T16:54:21Z</time></trkpt>
<trkpt lat="44.75217151455581" lon="-0.24581355974078178"><ele></ele><time>2017-7-15T16:54:24Z</time></trkpt>
<trkpt lat="44.7518353164196" lon="-0.24510160088539124"><ele></ele><time>2017-7-15T16:54:27Z</time></trkpt>
<trkpt lat="44.751477325335145" lon="-0.24446675553917885"><ele></ele><time>2017-7-15T16:54:30Z</time></trkpt>
<trkpt lat="44.751166105270386" lon="-0.24374951608479023"><ele></ele><time>2017-7-15T16:54:33Z</time></trkpt>
<trkpt lat="44.75091531872749" lon="-0.24301065132021904"><ele></ele><time>2017-7-15T16:54:36Z</time></trkpt>
<trkpt lat="44.75069135427475" lon="-0.24231872521340847"><ele></ele><time>2017-7-15T16:54:39Z</time></trkpt>
<trkpt lat="44.75043419748545" lon="-0.24162596091628075"><ele></ele><time>2017-7-15T16:54:42Z</time></trkpt>
<trkpt lat="44.75010076537728" lon="-0.24091877974569798"><ele></ele><time>2017-7-15T16:54:45Z</time></trkpt>
<trkpt lat="44.749746127054095" lon="-0.24026323109865189"><ele></ele><time>2017-7-15T16:54:48Z</time></trkpt>
<trkpt lat="44.749376652762294" lon="-0.23958890698850155"><ele></ele><time>2017-7-15T16:54:51Z</time></trkpt>
<trkpt lat="44.74902863614261" lon="-0.23894693702459335"><ele></ele><time>2017-7-15T16:54:54Z</time></trkpt>
<trkpt lat="44.74867483600974" lon="-0.23822885937988758"><ele></ele><time>2017-7-15T16:54:57Z</time></trkpt>
<trkpt lat="44.74834945052862" lon="-0.23743475787341595"><ele></ele><time>2017-7-15T16:55:0Z</time></trkpt>
<trkpt lat="44.74808122962713" lon="-0.2367608528584242"><ele></ele><time>2017-7-15T16:55:3Z</time></trkpt>
<trkpt lat="44.74780890159309" lon="-0.23608887568116188"><ele></ele><time>2017-7-15T16:55:6Z</time></trkpt>
<trkpt lat="44.747527688741684" lon="-0.2352847158908844"><ele></ele><time>2017-7-15T16:55:9Z</time></trkpt>
<trkpt lat="44.747292660176754" lon="-0.2344678994268179"><ele></ele><time>2017-7-15T16:55:12Z</time></trkpt>
<trkpt lat="44.747020583599806" lon="-0.23364479653537273"><ele></ele><time>2017-7-15T16:55:15Z</time></trkpt>
<trkpt lat="44.746691258624196" lon="-0.2329982165247202"><ele></ele><time>2017-7-15T16:55:18Z</time></trkpt>
<trkpt lat="44.74633192643523" lon="-0.2323252335190773"><ele></ele><time>2017-7-15T16:55:21Z</time></trkpt>
<trkpt lat="44.74597066640854" lon="-0.23169441148638725"><ele></ele><time>2017-7-15T16:55:24Z</time></trkpt>
<trkpt lat="44.74565751850605" lon="-0.23106124252080917"><ele></ele><time>2017-7-15T16:55:27Z</time></trkpt>
<trkpt lat="44.74539658986032" lon="-0.23038490675389767"><ele></ele><time>2017-7-15T16:55:30Z</time></trkpt>
<trkpt lat="44.7451576218009" lon="-0.22968778386712074"><ele></ele><time>2017-7-15T16:55:33Z</time></trkpt>
<trkpt lat="44.744895938783884" lon="-0.2289562951773405"><ele></ele><time>2017-7-15T16:55:36Z</time></trkpt>
<trkpt lat="44.74463375285268" lon="-0.22823771461844444"><ele></ele><time>2017-7-15T16:55:39Z</time></trkpt>
<trkpt lat="44.7444340121001" lon="-0.22752298973500729"><ele></ele><time>2017-7-15T16:55:42Z</time></trkpt>
<trkpt lat="44.744304763153195" lon="-0.2267383597791195"><ele></ele><time>2017-7-15T16:55:45Z</time></trkpt>
<trkpt lat="44.74420476704836" lon="-0.22595515474677086"><ele></ele><time>2017-7-15T16:55:48Z</time></trkpt>
<trkpt lat="44.74406839348376" lon="-0.2251657471060753"><ele></ele><time>2017-7-15T16:55:51Z</time></trkpt>
<trkpt lat="44.74390679039061" lon="-0.22438136860728264"><ele></ele><time>2017-7-15T16:55:54Z</time></trkpt>
<trkpt lat="44.74367913790047" lon="-0.22361869923770428"><ele></ele><time>2017-7-15T16:55:57Z</time></trkpt>
<trkpt lat="44.74329004995525" lon="-0.22296952083706856"><ele></ele><time>2017-7-15T16:56:0Z</time></trkpt>
<trkpt lat="44.742809599265456" lon="-0.22247632965445518"><ele></ele><time>2017-7-15T16:56:3Z</time></trkpt>
<trkpt lat="44.74244222044945" lon="-0.22201130166649818"><ele></ele><time>2017-7-15T16:56:6Z</time></trkpt>
<trkpt lat="44.74213150329888" lon="-0.2212795615196228"><ele></ele><time>2017-7-15T16:56:9Z</time></trkpt>
<trkpt lat="44.7418128233403" lon="-0.22061261348426342"><ele></ele><time>2017-7-15T16:56:12Z</time></trkpt>
<trkpt lat="44.741410072892904" lon="-0.22007684223353863"><ele></ele><time>2017-7-15T16:56:15Z</time></trkpt>
<trkpt lat="44.741277135908604" lon="-0.21985555998981"><ele></ele><time>2017-7-15T16:56:18Z</time></trkpt>
<trkpt lat="44.741154005751014" lon="-0.21948541514575481"><ele></ele><time>2017-7-15T16:56:21Z</time></trkpt>
<trkpt lat="44.74095141515136" lon="-0.21873179823160172"><ele></ele><time>2017-7-15T16:56:24Z</time></trkpt>
<trkpt lat="44.74072527140379" lon="-0.2180211804807186"><ele></ele><time>2017-7-15T16:56:27Z</time></trkpt>
<trkpt lat="44.74046040326357" lon="-0.2173382230103016"><ele></ele><time>2017-7-15T16:56:30Z</time></trkpt>
<trkpt lat="44.740006271749735" lon="-0.21682240068912506"><ele></ele><time>2017-7-15T16:56:33Z</time></trkpt>
<trkpt lat="44.73957418464124" lon="-0.21655099466443062"><ele></ele><time>2017-7-15T16:56:36Z</time></trkpt>
<trkpt lat="44.73923924379051" lon="-0.21666775457561016"><ele></ele><time>2017-7-15T16:56:39Z</time></trkpt>
<trkpt lat="44.738731887191534" lon="-0.21687688305974007"><ele></ele><time>2017-7-15T16:56:42Z</time></trkpt>
<trkpt lat="44.73851328715682" lon="-0.21676565520465374"><ele></ele><time>2017-7-15T16:56:45Z</time></trkpt>
<trkpt lat="44.73802026361227" lon="-0.2163401897996664"><ele></ele><time>2017-7-15T16:56:48Z</time></trkpt>
<trkpt lat="44.7375454287976" lon="-0.21593651734292507"><ele></ele><time>2017-7-15T16:56:51Z</time></trkpt>
<trkpt lat="44.73705366253853" lon="-0.21552094258368015"><ele></ele><time>2017-7-15T16:56:54Z</time></trkpt>
<trkpt lat="44.736575642600656" lon="-0.21511844359338284"><ele></ele><time>2017-7-15T16:56:57Z</time></trkpt>
<trkpt lat="44.73610290326178" lon="-0.21469381637871265"><ele></ele><time>2017-7-15T16:57:0Z</time></trkpt>
<trkpt lat="44.73564508371055" lon="-0.2142164669930935"><ele></ele><time>2017-7-15T16:57:3Z</time></trkpt>
<trkpt lat="44.73522322252393" lon="-0.21373911760747433"><ele></ele><time>2017-7-15T16:57:6Z</time></trkpt>
<trkpt lat="44.734790716320276" lon="-0.21323762834072113"><ele></ele><time>2017-7-15T16:57:9Z</time></trkpt>
<trkpt lat="44.73435795865953" lon="-0.21274996921420097"><ele></ele><time>2017-7-15T16:57:12Z</time></trkpt>
<trkpt lat="44.733968283981085" lon="-0.21236984990537167"><ele></ele><time>2017-7-15T16:57:15Z</time></trkpt>
<trkpt lat="44.733923273161054" lon="-0.21218226291239262"><ele></ele><time>2017-7-15T16:57:18Z</time></trkpt>
<trkpt lat="44.733781702816486" lon="-0.21195159293711185"><ele></ele><time>2017-7-15T16:57:21Z</time></trkpt>
<trkpt lat="44.73341264761984" lon="-0.21138790994882584"><ele></ele><time>2017-7-15T16:57:24Z</time></trkpt>
<trkpt lat="44.73301861435175" lon="-0.21077971905469894"><ele></ele><time>2017-7-15T16:57:27Z</time></trkpt>
<trkpt lat="44.73261318169534" lon="-0.2101499866694212"><ele></ele><time>2017-7-15T16:57:30Z</time></trkpt>
<trkpt lat="44.73220397718251" lon="-0.20952335558831692"><ele></ele><time>2017-7-15T16:57:33Z</time></trkpt>
<trkpt lat="44.73183332942426" lon="-0.20895782858133316"><ele></ele><time>2017-7-15T16:57:36Z</time></trkpt>
<trkpt lat="44.73142077215016" lon="-0.2083601150661707"><ele></ele><time>2017-7-15T16:57:39Z</time></trkpt>
<trkpt lat="44.73100008442998" lon="-0.20784052088856697"><ele></ele><time>2017-7-15T16:57:42Z</time></trkpt>
<trkpt lat="44.730515191331506" lon="-0.20731564611196518"><ele></ele><time>2017-7-15T16:57:45Z</time></trkpt>
<trkpt lat="44.73004630766809" lon="-0.20677325315773487"><ele></ele><time>2017-7-15T16:57:48Z</time></trkpt>
<trkpt lat="44.72960223443806" lon="-0.20619490183889866"><ele></ele><time>2017-7-15T16:57:51Z</time></trkpt>
<trkpt lat="44.729197304695845" lon="-0.2056691888719797"><ele></ele><time>2017-7-15T16:57:54Z</time></trkpt>
<trkpt lat="44.7287851665169" lon="-0.20513853058218956"><ele></ele><time>2017-7-15T16:57:57Z</time></trkpt>
<trkpt lat="44.72836950793862" lon="-0.20461357198655605"><ele></ele><time>2017-7-15T16:58:0Z</time></trkpt>
<trkpt lat="44.72796030342579" lon="-0.2040758728981018"><ele></ele><time>2017-7-15T16:58:3Z</time></trkpt>
<trkpt lat="44.72752209752798" lon="-0.20351193845272064"><ele></ele><time>2017-7-15T16:58:6Z</time></trkpt>
<trkpt lat="44.72710048779845" lon="-0.2029628399759531"><ele></ele><time>2017-7-15T16:58:9Z</time></trkpt>
<trkpt lat="44.72666194662452" lon="-0.20237836986780167"><ele></ele><time>2017-7-15T16:58:12Z</time></trkpt>
<trkpt lat="44.72627998329699" lon="-0.20183706656098366"><ele></ele><time>2017-7-15T16:58:15Z</time></trkpt>
<trkpt lat="44.72589047625661" lon="-0.20127899944782257"><ele></ele><time>2017-7-15T16:58:18Z</time></trkpt>
<trkpt lat="44.725500801578164" lon="-0.2007302362471819"><ele></ele><time>2017-7-15T16:58:21Z</time></trkpt>
<trkpt lat="44.72510668449104" lon="-0.20016244612634182"><ele></ele><time>2017-7-15T16:58:24Z</time></trkpt>
<trkpt lat="44.724718602374196" lon="-0.1995835080742836"><ele></ele><time>2017-7-15T16:58:27Z</time></trkpt>
<trkpt lat="44.72433278337121" lon="-0.19895201548933983"><ele></ele><time>2017-7-15T16:58:30Z</time></trkpt>
<trkpt lat="44.72407294437289" lon="-0.19846351817250252"><ele></ele><time>2017-7-15T16:58:33Z</time></trkpt>
<trkpt lat="44.72381042316556" lon="-0.19777553156018257"><ele></ele><time>2017-7-15T16:58:36Z</time></trkpt>
<trkpt lat="44.723537005484104" lon="-0.1970193162560463"><ele></ele><time>2017-7-15T16:58:39Z</time></trkpt>
<trkpt lat="44.72333122976124" lon="-0.19624239765107632"><ele></ele><time>2017-7-15T16:58:42Z</time></trkpt>
<trkpt lat="44.72329242154956" lon="-0.19615002907812595"><ele></ele><time>2017-7-15T16:58:45Z</time></trkpt>
<trkpt lat="44.7228704765439" lon="-0.19558408297598362"><ele></ele><time>2017-7-15T16:58:48Z</time></trkpt>
<trkpt lat="44.7224544826895" lon="-0.19502878189086914"><ele></ele><time>2017-7-15T16:58:51Z</time></trkpt>
<trkpt lat="44.7220070566982" lon="-0.19442293792963028"><ele></ele><time>2017-7-15T16:58:54Z</time></trkpt>
<trkpt lat="44.72159441560507" lon="-0.19385598599910736"><ele></ele><time>2017-7-15T16:58:57Z</time></trkpt>
<trkpt lat="44.721194012090564" lon="-0.19333756528794765"><ele></ele><time>2017-7-15T16:59:0Z</time></trkpt>
<trkpt lat="44.72083501517773" lon="-0.19283783622086048"><ele></ele><time>2017-7-15T16:59:3Z</time></trkpt>
<trkpt lat="44.72041072323918" lon="-0.1922781765460968"><ele></ele><time>2017-7-15T16:59:6Z</time></trkpt>
<trkpt lat="44.71998936496675" lon="-0.19171818159520626"><ele></ele><time>2017-7-15T16:59:9Z</time></trkpt>
<trkpt lat="44.71962290816009" lon="-0.19115014001727104"><ele></ele><time>2017-7-15T16:59:12Z</time></trkpt>
<trkpt lat="44.71924404613674" lon="-0.19050993025302887"><ele></ele><time>2017-7-15T16:59:15Z</time></trkpt>
<trkpt lat="44.71887071616948" lon="-0.18988396972417831"><ele></ele><time>2017-7-15T16:59:18Z</time></trkpt>
<trkpt lat="44.71851549111307" lon="-0.18928022123873234"><ele></ele><time>2017-7-15T16:59:21Z</time></trkpt>
<trkpt lat="44.71816177479923" lon="-0.18870471976697445"><ele></ele><time>2017-7-15T16:59:24Z</time></trkpt>
<trkpt lat="44.71777721308172" lon="-0.18817498348653316"><ele></ele><time>2017-7-15T16:59:27Z</time></trkpt>
<trkpt lat="44.71728636883199" lon="-0.187772735953331"><ele></ele><time>2017-7-15T16:59:30Z</time></trkpt>
<trkpt lat="44.71676451154053" lon="-0.18755623139441013"><ele></ele><time>2017-7-15T16:59:33Z</time></trkpt>
<trkpt lat="44.716215496882796" lon="-0.1875184290111065"><ele></ele><time>2017-7-15T16:59:36Z</time></trkpt>
<trkpt lat="44.71563764847815" lon="-0.18755354918539524"><ele></ele><time>2017-7-15T16:59:39Z</time></trkpt>
<trkpt lat="44.71508000046015" lon="-0.18758783116936684"><ele></ele><time>2017-7-15T16:59:42Z</time></trkpt>
<trkpt lat="44.71450466662645" lon="-0.18762806430459023"><ele></ele><time>2017-7-15T16:59:45Z</time></trkpt>
<trkpt lat="44.71394802443683" lon="-0.18759973347187042"><ele></ele><time>2017-7-15T16:59:48Z</time></trkpt>
<trkpt lat="44.713385347276926" lon="-0.18755941651761532"><ele></ele><time>2017-7-15T16:59:51Z</time></trkpt>
<trkpt lat="44.71281889826059" lon="-0.1875282358378172"><ele></ele><time>2017-7-15T16:59:54Z</time></trkpt>
<trkpt lat="44.71223761327565" lon="-0.1874945405870676"><ele></ele><time>2017-7-15T16:59:57Z</time></trkpt>
<trkpt lat="44.71168708987534" lon="-0.18744944594800472"><ele></ele><time>2017-7-15T17:0:0Z</time></trkpt>
<trkpt lat="44.71123614348471" lon="-0.18739119172096252"><ele></ele><time>2017-7-15T17:0:3Z</time></trkpt>
<trkpt lat="44.71068486571312" lon="-0.1873274054378271"><ele></ele><time>2017-7-15T17:0:6Z</time></trkpt>
<trkpt lat="44.710123194381595" lon="-0.18713160417973995"><ele></ele><time>2017-7-15T17:0:9Z</time></trkpt>
<trkpt lat="44.70960561186075" lon="-0.18672483041882515"><ele></ele><time>2017-7-15T17:0:12Z</time></trkpt>
<trkpt lat="44.70918928273022" lon="-0.18616852350533009"><ele></ele><time>2017-7-15T17:0:15Z</time></trkpt>
<trkpt lat="44.70890237018466" lon="-0.18546913750469685"><ele></ele><time>2017-7-15T17:0:18Z</time></trkpt>
<trkpt lat="44.7087153699249" lon="-0.18468769267201424"><ele></ele><time>2017-7-15T17:0:21Z</time></trkpt>
<trkpt lat="44.70855016261339" lon="-0.18396064639091492"><ele></ele><time>2017-7-15T17:0:24Z</time></trkpt>
<trkpt lat="44.70837741158903" lon="-0.18323552794754505"><ele></ele><time>2017-7-15T17:0:27Z</time></trkpt>
<trkpt lat="44.70817524008453" lon="-0.18251962959766388"><ele></ele><time>2017-7-15T17:0:30Z</time></trkpt>
<trkpt lat="44.70797348767519" lon="-0.1818026416003704"><ele></ele><time>2017-7-15T17:0:33Z</time></trkpt>
<trkpt lat="44.707767041400075" lon="-0.1810631062835455"><ele></ele><time>2017-7-15T17:0:36Z</time></trkpt>
<trkpt lat="44.70755958929658" lon="-0.1803121715784073"><ele></ele><time>2017-7-15T17:0:39Z</time></trkpt>
<trkpt lat="44.70734375528991" lon="-0.17952008172869682"><ele></ele><time>2017-7-15T17:0:42Z</time></trkpt>
<trkpt lat="44.707131776958704" lon="-0.17879127524793148"><ele></ele><time>2017-7-15T17:0:45Z</time></trkpt>
<trkpt lat="44.706902112811804" lon="-0.17801301553845406"><ele></ele><time>2017-7-15T17:0:48Z</time></trkpt>
<trkpt lat="44.70667856745422" lon="-0.17729527316987514"><ele></ele><time>2017-7-15T17:0:51Z</time></trkpt>
<trkpt lat="44.70643683336675" lon="-0.17652539536356926"><ele></ele><time>2017-7-15T17:0:54Z</time></trkpt>
<trkpt lat="44.70623114146292" lon="-0.17578979954123497"><ele></ele><time>2017-7-15T17:0:57Z</time></trkpt>
<trkpt lat="44.706020252779126" lon="-0.17508496530354023"><ele></ele><time>2017-7-15T17:1:0Z</time></trkpt>
<trkpt lat="44.70578254200518" lon="-0.17430712468922138"><ele></ele><time>2017-7-15T17:1:3Z</time></trkpt>
<trkpt lat="44.70556209795177" lon="-0.1735737919807434"><ele></ele><time>2017-7-15T17:1:6Z</time></trkpt>
<trkpt lat="44.70533058978617" lon="-0.1727906707674265"><ele></ele><time>2017-7-15T17:1:9Z</time></trkpt>
<trkpt lat="44.70513344742358" lon="-0.1720675639808178"><ele></ele><time>2017-7-15T17:1:12Z</time></trkpt>
<trkpt lat="44.70491224899888" lon="-0.1713330578058958"><ele></ele><time>2017-7-15T17:1:15Z</time></trkpt>
<trkpt lat="44.704700941219926" lon="-0.17058832570910454"><ele></ele><time>2017-7-15T17:1:18Z</time></trkpt>
<trkpt lat="44.704482927918434" lon="-0.16987184062600136"><ele></ele><time>2017-7-15T17:1:21Z</time></trkpt>
<trkpt lat="44.70424907281995" lon="-0.16912627033889294"><ele></ele><time>2017-7-15T17:1:24Z</time></trkpt>
<trkpt lat="44.70402091741562" lon="-0.16842177137732506"><ele></ele><time>2017-7-15T17:1:27Z</time></trkpt>
<trkpt lat="44.70379284583032" lon="-0.16767175868153572"><ele></ele><time>2017-7-15T17:1:30Z</time></trkpt>
<trkpt lat="44.70359863713384" lon="-0.1669598836451769"><ele></ele><time>2017-7-15T17:1:33Z</time></trkpt>
<trkpt lat="44.70339126884937" lon="-0.1662515290081501"><ele></ele><time>2017-7-15T17:1:36Z</time></trkpt>
<trkpt lat="44.7031912766397" lon="-0.1655479520559311"><ele></ele><time>2017-7-15T17:1:39Z</time></trkpt>
<trkpt lat="44.70296295359731" lon="-0.16478218138217926"><ele></ele><time>2017-7-15T17:1:42Z</time></trkpt>
<trkpt lat="44.70272264443338" lon="-0.1640227809548378"><ele></ele><time>2017-7-15T17:1:45Z</time></trkpt>
<trkpt lat="44.70245584845543" lon="-0.1633083913475275"><ele></ele><time>2017-7-15T17:1:48Z</time></trkpt>
<trkpt lat="44.70215552486479" lon="-0.1626178901642561"><ele></ele><time>2017-7-15T17:1:51Z</time></trkpt>
<trkpt lat="44.70182066783309" lon="-0.16196385025978088"><ele></ele><time>2017-7-15T17:1:54Z</time></trkpt>
<trkpt lat="44.70146921463311" lon="-0.1613611076027155"><ele></ele><time>2017-7-15T17:1:57Z</time></trkpt>
<trkpt lat="44.70111792907119" lon="-0.16076674684882164"><ele></ele><time>2017-7-15T17:2:0Z</time></trkpt>
<trkpt lat="44.70076706260443" lon="-0.16009326092898846"><ele></ele><time>2017-7-15T17:2:3Z</time></trkpt>
<trkpt lat="44.70048962160945" lon="-0.15940996818244457"><ele></ele><time>2017-7-15T17:2:6Z</time></trkpt>
<trkpt lat="44.70024579204619" lon="-0.15871410258114338"><ele></ele><time>2017-7-15T17:2:9Z</time></trkpt>
<trkpt lat="44.70000296831131" lon="-0.15800876542925835"><ele></ele><time>2017-7-15T17:2:12Z</time></trkpt>
<trkpt lat="44.69976559281349" lon="-0.15725573524832726"><ele></ele><time>2017-7-15T17:2:15Z</time></trkpt>
<trkpt lat="44.69958655536175" lon="-0.15650580637156963"><ele></ele><time>2017-7-15T17:2:18Z</time></trkpt>
<trkpt lat="44.699427131563425" lon="-0.15572603791952133"><ele></ele><time>2017-7-15T17:2:21Z</time></trkpt>
<trkpt lat="44.69925588928163" lon="-0.1549994107335806"><ele></ele><time>2017-7-15T17:2:24Z</time></trkpt>
<trkpt lat="44.6989518776536" lon="-0.1543122623115778"><ele></ele><time>2017-7-15T17:2:27Z</time></trkpt>
<trkpt lat="44.69888683408499" lon="-0.15420748852193356"><ele></ele><time>2017-7-15T17:2:30Z</time></trkpt>
<trkpt lat="44.698486514389515" lon="-0.15369459986686707"><ele></ele><time>2017-7-15T17:2:33Z</time></trkpt>
<trkpt lat="44.69803774729371" lon="-0.15316452831029892"><ele></ele><time>2017-7-15T17:2:36Z</time></trkpt>
<trkpt lat="44.69761781394482" lon="-0.15263328328728676"><ele></ele><time>2017-7-15T17:2:39Z</time></trkpt>
<trkpt lat="44.697491666302085" lon="-0.15228576958179474"><ele></ele><time>2017-7-15T17:2:42Z</time></trkpt>
<trkpt lat="44.69744933769107" lon="-0.15202651731669903"><ele></ele><time>2017-7-15T17:2:45Z</time></trkpt>
<trkpt lat="44.69745369628072" lon="-0.15170414932072163"><ele></ele><time>2017-7-15T17:2:48Z</time></trkpt>
<trkpt lat="44.69754857942462" lon="-0.15094416216015816"><ele></ele><time>2017-7-15T17:2:51Z</time></trkpt>
<trkpt lat="44.6976637467742" lon="-0.15015190467238426"><ele></ele><time>2017-7-15T17:2:54Z</time></trkpt>
<trkpt lat="44.69772208482027" lon="-0.149752926081419"><ele></ele><time>2017-7-15T17:2:57Z</time></trkpt>
<trkpt lat="44.697731640189886" lon="-0.14949618838727474"><ele></ele><time>2017-7-15T17:3:0Z</time></trkpt>
<trkpt lat="44.69749384559691" lon="-0.14901448041200638"><ele></ele><time>2017-7-15T17:3:3Z</time></trkpt>
<trkpt lat="44.697226798161864" lon="-0.14858356676995754"><ele></ele><time>2017-7-15T17:3:6Z</time></trkpt>
<trkpt lat="44.69717047177255" lon="-0.14797009527683258"><ele></ele><time>2017-7-15T17:3:9Z</time></trkpt>
<trkpt lat="44.697255715727806" lon="-0.14717096462845802"><ele></ele><time>2017-7-15T17:3:12Z</time></trkpt>
<trkpt lat="44.69746702350676" lon="-0.14636370353400707"><ele></ele><time>2017-7-15T17:3:15Z</time></trkpt>
<trkpt lat="44.69771957024932" lon="-0.14566859230399132"><ele></ele><time>2017-7-15T17:3:18Z</time></trkpt>
<trkpt lat="44.69788913615048" lon="-0.14489561319351196"><ele></ele><time>2017-7-15T17:3:21Z</time></trkpt>
<trkpt lat="44.69793951138854" lon="-0.14407158829271793"><ele></ele><time>2017-7-15T17:3:24Z</time></trkpt>
<trkpt lat="44.69794143922627" lon="-0.1432981062680483"><ele></ele><time>2017-7-15T17:3:27Z</time></trkpt>
<trkpt lat="44.697894249111414" lon="-0.1424863189458847"><ele></ele><time>2017-7-15T17:3:30Z</time></trkpt>
<trkpt lat="44.69782040454447" lon="-0.1417261641472578"><ele></ele><time>2017-7-15T17:3:33Z</time></trkpt>
<trkpt lat="44.697749242186546" lon="-0.14094782061874866"><ele></ele><time>2017-7-15T17:3:36Z</time></trkpt>
<trkpt lat="44.69767816364765" lon="-0.14017601497471333"><ele></ele><time>2017-7-15T17:3:39Z</time></trkpt>
<trkpt lat="44.697637343779206" lon="-0.13936791568994522"><ele></ele><time>2017-7-15T17:3:42Z</time></trkpt>
<trkpt lat="44.69762594439089" lon="-0.1385494228452444"><ele></ele><time>2017-7-15T17:3:45Z</time></trkpt>
<trkpt lat="44.697616808116436" lon="-0.13774258084595203"><ele></ele><time>2017-7-15T17:3:48Z</time></trkpt>
<trkpt lat="44.69756215810776" lon="-0.13692576438188553"><ele></ele><time>2017-7-15T17:3:51Z</time></trkpt>
<trkpt lat="44.69749669544399" lon="-0.13616292737424374"><ele></ele><time>2017-7-15T17:3:54Z</time></trkpt>
<trkpt lat="44.697420839220285" lon="-0.13536413200199604"><ele></ele><time>2017-7-15T17:3:57Z</time></trkpt>
<trkpt lat="44.69735495746136" lon="-0.13461068272590637"><ele></ele><time>2017-7-15T17:4:0Z</time></trkpt>
<trkpt lat="44.69728823751211" lon="-0.13378925621509552"><ele></ele><time>2017-7-15T17:4:3Z</time></trkpt>
<trkpt lat="44.69718296080828" lon="-0.13302222825586796"><ele></ele><time>2017-7-15T17:4:6Z</time></trkpt>
<trkpt lat="44.69696025364101" lon="-0.13227892108261585"><ele></ele><time>2017-7-15T17:4:9Z</time></trkpt>
<trkpt lat="44.696691278368235" lon="-0.13161281123757362"><ele></ele><time>2017-7-15T17:4:12Z</time></trkpt>
<trkpt lat="44.69641987234354" lon="-0.13092189095914364"><ele></ele><time>2017-7-15T17:4:15Z</time></trkpt>
<trkpt lat="44.69629271887243" lon="-0.13014656491577625"><ele></ele><time>2017-7-15T17:4:18Z</time></trkpt>
<trkpt lat="44.69633295200765" lon="-0.12936570681631565"><ele></ele><time>2017-7-15T17:4:21Z</time></trkpt>
<trkpt lat="44.69647225923836" lon="-0.12862692587077618"><ele></ele><time>2017-7-15T17:4:24Z</time></trkpt>
<trkpt lat="44.69669898971915" lon="-0.12790650129318237"><ele></ele><time>2017-7-15T17:4:27Z</time></trkpt>
<trkpt lat="44.69691725447774" lon="-0.1271367073059082"><ele></ele><time>2017-7-15T17:4:30Z</time></trkpt>
<trkpt lat="44.6969261392951" lon="-0.1270659640431404"><ele></ele><time>2017-7-15T17:4:33Z</time></trkpt>
<trkpt lat="44.69693234190345" lon="-0.12627068907022476"><ele></ele><time>2017-7-15T17:4:36Z</time></trkpt>
<trkpt lat="44.69693376682699" lon="-0.12545152567327023"><ele></ele><time>2017-7-15T17:4:39Z</time></trkpt>
<trkpt lat="44.69694466330111" lon="-0.12461266480386257"><ele></ele><time>2017-7-15T17:4:42Z</time></trkpt>
<trkpt lat="44.697000570595264" lon="-0.12382384389638901"><ele></ele><time>2017-7-15T17:4:45Z</time></trkpt>
<trkpt lat="44.697126131504774" lon="-0.12301641516387463"><ele></ele><time>2017-7-15T17:4:48Z</time></trkpt>
<trkpt lat="44.697194108739495" lon="-0.12279915623366833"><ele></ele><time>2017-7-15T17:4:51Z</time></trkpt>
<trkpt lat="44.697502898052335" lon="-0.12215098366141319"><ele></ele><time>2017-7-15T17:4:54Z</time></trkpt>
<trkpt lat="44.697856195271015" lon="-0.12146475724875927"><ele></ele><time>2017-7-15T17:4:57Z</time></trkpt>
<trkpt lat="44.69793942756951" lon="-0.12123643420636654"><ele></ele><time>2017-7-15T17:5:0Z</time></trkpt>
<trkpt lat="44.698011092841625" lon="-0.12066872790455818"><ele></ele><time>2017-7-15T17:5:3Z</time></trkpt>
<trkpt lat="44.69803540036082" lon="-0.11986247263848782"><ele></ele><time>2017-7-15T17:5:6Z</time></trkpt>
<trkpt lat="44.69807135872543" lon="-0.11906811967492104"><ele></ele><time>2017-7-15T17:5:9Z</time></trkpt>
<trkpt lat="44.69811385497451" lon="-0.11830712668597698"><ele></ele><time>2017-7-15T17:5:12Z</time></trkpt>
<trkpt lat="44.698215359821916" lon="-0.11752182617783546"><ele></ele><time>2017-7-15T17:5:15Z</time></trkpt>
<trkpt lat="44.698311164975166" lon="-0.11672227643430233"><ele></ele><time>2017-7-15T17:5:18Z</time></trkpt>
<trkpt lat="44.698316529393196" lon="-0.11649915017187595"><ele></ele><time>2017-7-15T17:5:21Z</time></trkpt>
<trkpt lat="44.698269506916404" lon="-0.11573480442166328"><ele></ele><time>2017-7-15T17:5:24Z</time></trkpt>
<trkpt lat="44.69821133650839" lon="-0.11496216058731079"><ele></ele><time>2017-7-15T17:5:27Z</time></trkpt>
<trkpt lat="44.69816179946065" lon="-0.11419571936130524"><ele></ele><time>2017-7-15T17:5:30Z</time></trkpt>
<trkpt lat="44.6981003601104" lon="-0.11339625343680382"><ele></ele><time>2017-7-15T17:5:33Z</time></trkpt>
<trkpt lat="44.69804126769304" lon="-0.11261011473834515"><ele></ele><time>2017-7-15T17:5:36Z</time></trkpt>
<trkpt lat="44.697971027344465" lon="-0.11182271875441074"><ele></ele><time>2017-7-15T17:5:39Z</time></trkpt>
<trkpt lat="44.697849322110415" lon="-0.11103666387498379"><ele></ele><time>2017-7-15T17:5:42Z</time></trkpt>
<trkpt lat="44.69772485084832" lon="-0.11028438806533813"><ele></ele><time>2017-7-15T17:5:45Z</time></trkpt>
<trkpt lat="44.69759711064398" lon="-0.10951392352581024"><ele></ele><time>2017-7-15T17:5:48Z</time></trkpt>
<trkpt lat="44.69746702350676" lon="-0.10874161496758461"><ele></ele><time>2017-7-15T17:5:51Z</time></trkpt>
<trkpt lat="44.69734431244433" lon="-0.10800451040267944"><ele></ele><time>2017-7-15T17:5:54Z</time></trkpt>
<trkpt lat="44.697212129831314" lon="-0.1072386559098959"><ele></ele><time>2017-7-15T17:5:57Z</time></trkpt>
<trkpt lat="44.697081288322806" lon="-0.10647280141711235"><ele></ele><time>2017-7-15T17:6:0Z</time></trkpt>
<trkpt lat="44.696963019669056" lon="-0.1057298295199871"><ele></ele><time>2017-7-15T17:6:3Z</time></trkpt>
<trkpt lat="44.69687023200095" lon="-0.10496338829398155"><ele></ele><time>2017-7-15T17:6:6Z</time></trkpt>
<trkpt lat="44.696798734366894" lon="-0.10417984798550606"><ele></ele><time>2017-7-15T17:6:9Z</time></trkpt>
<trkpt lat="44.696727991104126" lon="-0.1034106407314539"><ele></ele><time>2017-7-15T17:6:12Z</time></trkpt>
<trkpt lat="44.696704018861055" lon="-0.10314133018255234"><ele></ele><time>2017-7-15T17:6:15Z</time></trkpt>
<trkpt lat="44.696652637794614" lon="-0.10238436050713062"><ele></ele><time>2017-7-15T17:6:18Z</time></trkpt>
<trkpt lat="44.69662154093385" lon="-0.10158422403037548"><ele></ele><time>2017-7-15T17:6:21Z</time></trkpt>
<trkpt lat="44.6965944673866" lon="-0.10082264430820942"><ele></ele><time>2017-7-15T17:6:24Z</time></trkpt>
<trkpt lat="44.69656705856323" lon="-0.10000054724514484"><ele></ele><time>2017-7-15T17:6:27Z</time></trkpt>
<trkpt lat="44.69653571024537" lon="-0.09912455454468727"><ele></ele><time>2017-7-15T17:6:30Z</time></trkpt>
<trkpt lat="44.696516850963235" lon="-0.09835266508162022"><ele></ele><time>2017-7-15T17:6:33Z</time></trkpt>
<trkpt lat="44.696487011387944" lon="-0.097492765635252"><ele></ele><time>2017-7-15T17:6:36Z</time></trkpt>
<trkpt lat="44.696454824879766" lon="-0.09659707546234131"><ele></ele><time>2017-7-15T17:6:39Z</time></trkpt>
<trkpt lat="44.696426913142204" lon="-0.09570951573550701"><ele></ele><time>2017-7-15T17:6:42Z</time></trkpt>
<trkpt lat="44.696397576481104" lon="-0.09487870149314404"><ele></ele><time>2017-7-15T17:6:45Z</time></trkpt>
<trkpt lat="44.69639732502401" lon="-0.09411502629518509"><ele></ele><time>2017-7-15T17:6:48Z</time></trkpt>
<trkpt lat="44.696444096043706" lon="-0.09335679933428764"><ele></ele><time>2017-7-15T17:6:51Z</time></trkpt>
<trkpt lat="44.69649866223335" lon="-0.0925571657717228"><ele></ele><time>2017-7-15T17:6:54Z</time></trkpt>
<trkpt lat="44.696443509310484" lon="-0.09178636595606804"><ele></ele><time>2017-7-15T17:6:57Z</time></trkpt>
<trkpt lat="44.69612675718963" lon="-0.09114724583923817"><ele></ele><time>2017-7-15T17:7:0Z</time></trkpt>
<trkpt lat="44.69569525681436" lon="-0.09064081124961376"><ele></ele><time>2017-7-15T17:7:3Z</time></trkpt>
<trkpt lat="44.69530960544944" lon="-0.09007737971842289"><ele></ele><time>2017-7-15T17:7:6Z</time></trkpt>
<trkpt lat="44.695026045665145" lon="-0.08940045721828938"><ele></ele><time>2017-7-15T17:7:9Z</time></trkpt>
<trkpt lat="44.694868214428425" lon="-0.08903148584067822"><ele></ele><time>2017-7-15T17:7:12Z</time></trkpt>
<trkpt lat="44.694533525034785" lon="-0.08859763853251934"><ele></ele><time>2017-7-15T17:7:15Z</time></trkpt>
<trkpt lat="44.694000938907266" lon="-0.0887531228363514"><ele></ele><time>2017-7-15T17:7:18Z</time></trkpt>
<trkpt lat="44.69342149794102" lon="-0.0888032466173172"><ele></ele><time>2017-7-15T17:7:21Z</time></trkpt>
<trkpt lat="44.69279436394572" lon="-0.0888990517705679"><ele></ele><time>2017-7-15T17:7:24Z</time></trkpt>
<trkpt lat="44.69223361462355" lon="-0.08905277587473392"><ele></ele><time>2017-7-15T17:7:27Z</time></trkpt>
<trkpt lat="44.69169742427766" lon="-0.08886309340596199"><ele></ele><time>2017-7-15T17:7:30Z</time></trkpt>
<trkpt lat="44.691138938069344" lon="-0.08864214643836021"><ele></ele><time>2017-7-15T17:7:33Z</time></trkpt>
<trkpt lat="44.69067759811878" lon="-0.08846570737659931"><ele></ele><time>2017-7-15T17:7:36Z</time></trkpt>
<trkpt lat="44.69049068167806" lon="-0.08804803714156151"><ele></ele><time>2017-7-15T17:7:39Z</time></trkpt>
<trkpt lat="44.69046645797789" lon="-0.08723096922039986"><ele></ele><time>2017-7-15T17:7:42Z</time></trkpt>
<trkpt lat="44.69055782072246" lon="-0.0864699762314558"><ele></ele><time>2017-7-15T17:7:45Z</time></trkpt>
<trkpt lat="44.690686566755176" lon="-0.08570730686187744"><ele></ele><time>2017-7-15T17:7:48Z</time></trkpt>
<trkpt lat="44.69085738994181" lon="-0.08497104048728943"><ele></ele><time>2017-7-15T17:7:51Z</time></trkpt>
<trkpt lat="44.69109174795449" lon="-0.08442990481853485"><ele></ele><time>2017-7-15T17:7:54Z</time></trkpt>
<trkpt lat="44.69079863280058" lon="-0.0841077882796526"><ele></ele><time>2017-7-15T17:7:57Z</time></trkpt>
<trkpt lat="44.690782288089395" lon="-0.08407325483858585"><ele></ele><time>2017-7-15T17:8:0Z</time></trkpt>
<trkpt lat="44.690798884257674" lon="-0.08396437391638756"><ele></ele><time>2017-7-15T17:8:3Z</time></trkpt>
<trkpt lat="44.69072487205267" lon="-0.08382339030504227"><ele></ele><time>2017-7-15T17:8:6Z</time></trkpt>
<trkpt lat="44.690314745530486" lon="-0.08330807089805603"><ele></ele><time>2017-7-15T17:8:9Z</time></trkpt>
<trkpt lat="44.68981359153986" lon="-0.0829087570309639"><ele></ele><time>2017-7-15T17:8:12Z</time></trkpt>
<trkpt lat="44.68962114304304" lon="-0.0827660970389843"><ele></ele><time>2017-7-15T17:8:15Z</time></trkpt>
<trkpt lat="44.689432214945555" lon="-0.08264279924333096"><ele></ele><time>2017-7-15T17:8:18Z</time></trkpt>
<trkpt lat="44.68894639983773" lon="-0.08229369297623634"><ele></ele><time>2017-7-15T17:8:21Z</time></trkpt>
<trkpt lat="44.68842839822173" lon="-0.08193670772016048"><ele></ele><time>2017-7-15T17:8:24Z</time></trkpt>
<trkpt lat="44.688335191458464" lon="-0.08187166415154934"><ele></ele><time>2017-7-15T17:8:27Z</time></trkpt>
<trkpt lat="44.687831019982696" lon="-0.081521300598979"><ele></ele><time>2017-7-15T17:8:30Z</time></trkpt>
<trkpt lat="44.687342857941985" lon="-0.08118837140500546"><ele></ele><time>2017-7-15T17:8:33Z</time></trkpt>
<trkpt lat="44.68684430234134" lon="-0.08089466951787472"><ele></ele><time>2017-7-15T17:8:36Z</time></trkpt>
<trkpt lat="44.68631733208895" lon="-0.08057724684476852"><ele></ele><time>2017-7-15T17:8:39Z</time></trkpt>
<trkpt lat="44.68576689250767" lon="-0.0802210159599781"><ele></ele><time>2017-7-15T17:8:42Z</time></trkpt>
<trkpt lat="44.68524671159685" lon="-0.07975556887686253"><ele></ele><time>2017-7-15T17:8:45Z</time></trkpt>
<trkpt lat="44.684844547882676" lon="-0.07922591641545296"><ele></ele><time>2017-7-15T17:8:48Z</time></trkpt>
<trkpt lat="44.68449862673879" lon="-0.0786396861076355"><ele></ele><time>2017-7-15T17:8:51Z</time></trkpt>
<trkpt lat="44.68422185629606" lon="-0.07798086851835251"><ele></ele><time>2017-7-15T17:8:54Z</time></trkpt>
<trkpt lat="44.684013817459345" lon="-0.07723202928900719"><ele></ele><time>2017-7-15T17:8:57Z</time></trkpt>
<trkpt lat="44.68383469618857" lon="-0.07649626582860947"><ele></ele><time>2017-7-15T17:9:0Z</time></trkpt>
<trkpt lat="44.68363277614117" lon="-0.07576117292046547"><ele></ele><time>2017-7-15T17:9:3Z</time></trkpt>
<trkpt lat="44.68347125686705" lon="-0.07523076608777046"><ele></ele><time>2017-7-15T17:9:6Z</time></trkpt>
<trkpt lat="44.68317445367575" lon="-0.07463162764906883"><ele></ele><time>2017-7-15T17:9:9Z</time></trkpt>
<trkpt lat="44.683086862787604" lon="-0.0738963671028614"><ele></ele><time>2017-7-15T17:9:12Z</time></trkpt>
<trkpt lat="44.682931546121836" lon="-0.07314342074096203"><ele></ele><time>2017-7-15T17:9:15Z</time></trkpt>
<trkpt lat="44.68284814618528" lon="-0.07234915159642696"><ele></ele><time>2017-7-15T17:9:18Z</time></trkpt>
<trkpt lat="44.682789305225015" lon="-0.07156133651733398"><ele></ele><time>2017-7-15T17:9:21Z</time></trkpt>
<trkpt lat="44.68273784033954" lon="-0.07077410817146301"><ele></ele><time>2017-7-15T17:9:24Z</time></trkpt>
<trkpt lat="44.68269023112953" lon="-0.0699686910957098"><ele></ele><time>2017-7-15T17:9:27Z</time></trkpt>
<trkpt lat="44.682608591392636" lon="-0.06913888268172741"><ele></ele><time>2017-7-15T17:9:30Z</time></trkpt>
<trkpt lat="44.682537177577615" lon="-0.0683742854744196"><ele></ele><time>2017-7-15T17:9:33Z</time></trkpt>
<trkpt lat="44.68249359168112" lon="-0.06759434938430786"><ele></ele><time>2017-7-15T17:9:36Z</time></trkpt>
<trkpt lat="44.68254606239498" lon="-0.06679991260170937"><ele></ele><time>2017-7-15T17:9:39Z</time></trkpt>
<trkpt lat="44.682577829808" lon="-0.06601234897971153"><ele></ele><time>2017-7-15T17:9:42Z</time></trkpt>
<trkpt lat="44.68252041377127" lon="-0.06522361189126968"><ele></ele><time>2017-7-15T17:9:45Z</time></trkpt>
<trkpt lat="44.682436594739556" lon="-0.06441107019782066"><ele></ele><time>2017-7-15T17:9:48Z</time></trkpt>
<trkpt lat="44.68241589143872" lon="-0.06359492428600788"><ele></ele><time>2017-7-15T17:9:51Z</time></trkpt>
<trkpt lat="44.68248520977795" lon="-0.06281423382461071"><ele></ele><time>2017-7-15T17:9:54Z</time></trkpt>
<trkpt lat="44.68255653977394" lon="-0.062031783163547516"><ele></ele><time>2017-7-15T17:9:57Z</time></trkpt>
<trkpt lat="44.682627534493804" lon="-0.06126433610916138"><ele></ele><time>2017-7-15T17:10:0Z</time></trkpt>
<trkpt lat="44.682707246392965" lon="-0.060483478009700775"><ele></ele><time>2017-7-15T17:10:3Z</time></trkpt>
<trkpt lat="44.68292492441833" lon="-0.05977378226816654"><ele></ele><time>2017-7-15T17:10:6Z</time></trkpt>
<trkpt lat="44.683177303522825" lon="-0.05910046398639679"><ele></ele><time>2017-7-15T17:10:9Z</time></trkpt>
<trkpt lat="44.68343127518892" lon="-0.05843234248459339"><ele></ele><time>2017-7-15T17:10:12Z</time></trkpt>
<trkpt lat="44.683684911578894" lon="-0.057744355872273445"><ele></ele><time>2017-7-15T17:10:15Z</time></trkpt>
<trkpt lat="44.683884819969535" lon="-0.05703357048332691"><ele></ele><time>2017-7-15T17:10:18Z</time></trkpt>
<trkpt lat="44.68396855518222" lon="-0.05626729689538479"><ele></ele><time>2017-7-15T17:10:21Z</time></trkpt>
<trkpt lat="44.684019181877375" lon="-0.055510494858026505"><ele></ele><time>2017-7-15T17:10:24Z</time></trkpt>
<trkpt lat="44.684025049209595" lon="-0.0547307264059782"><ele></ele><time>2017-7-15T17:10:27Z</time></trkpt>
<trkpt lat="44.68403301201761" lon="-0.05394475534558296"><ele></ele><time>2017-7-15T17:10:30Z</time></trkpt>
<trkpt lat="44.68415832147002" lon="-0.05314788781106472"><ele></ele><time>2017-7-15T17:10:33Z</time></trkpt>
<trkpt lat="44.68433467671275" lon="-0.052428385242819786"><ele></ele><time>2017-7-15T17:10:36Z</time></trkpt>
<trkpt lat="44.68452477827668" lon="-0.051691364496946335"><ele></ele><time>2017-7-15T17:10:39Z</time></trkpt>
<trkpt lat="44.68471873551607" lon="-0.05097772926092148"><ele></ele><time>2017-7-15T17:10:42Z</time></trkpt>
<trkpt lat="44.68491864390671" lon="-0.05019050091505051"><ele></ele><time>2017-7-15T17:10:45Z</time></trkpt>
<trkpt lat="44.68511980958283" lon="-0.04941978491842747"><ele></ele><time>2017-7-15T17:10:48Z</time></trkpt>
<trkpt lat="44.68532122671604" lon="-0.04863708280026913"><ele></ele><time>2017-7-15T17:10:51Z</time></trkpt>
<trkpt lat="44.685487104579806" lon="-0.047856224700808525"><ele></ele><time>2017-7-15T17:10:54Z</time></trkpt>
<trkpt lat="44.68557360582054" lon="-0.04707125946879387"><ele></ele><time>2017-7-15T17:10:57Z</time></trkpt>
<trkpt lat="44.68562129884958" lon="-0.04627506248652935"><ele></ele><time>2017-7-15T17:11:0Z</time></trkpt>
<trkpt lat="44.68566220253706" lon="-0.045452043414115906"><ele></ele><time>2017-7-15T17:11:3Z</time></trkpt>
<trkpt lat="44.68568290583789" lon="-0.04465106874704361"><ele></ele><time>2017-7-15T17:11:6Z</time></trkpt>
<trkpt lat="44.685704950243235" lon="-0.0438576377928257"><ele></ele><time>2017-7-15T17:11:9Z</time></trkpt>
<trkpt lat="44.68573017977178" lon="-0.04305087961256504"><ele></ele><time>2017-7-15T17:11:12Z</time></trkpt>
<trkpt lat="44.68579279258847" lon="-0.04224839620292187"><ele></ele><time>2017-7-15T17:11:15Z</time></trkpt>
<trkpt lat="44.68593050725758" lon="-0.04149402491748333"><ele></ele><time>2017-7-15T17:11:18Z</time></trkpt>
<trkpt lat="44.6861610095948" lon="-0.04080461338162422"><ele></ele><time>2017-7-15T17:11:21Z</time></trkpt>
<trkpt lat="44.686459405347705" lon="-0.04011813551187515"><ele></ele><time>2017-7-15T17:11:24Z</time></trkpt>
<trkpt lat="44.686728212982416" lon="-0.039425455033779144"><ele></ele><time>2017-7-15T17:11:27Z</time></trkpt>
<trkpt lat="44.68689073808491" lon="-0.038672005757689476"><ele></ele><time>2017-7-15T17:11:30Z</time></trkpt>
<trkpt lat="44.68699174001813" lon="-0.03789735026657581"><ele></ele><time>2017-7-15T17:11:33Z</time></trkpt>
<trkpt lat="44.68709106557071" lon="-0.037072570994496346"><ele></ele><time>2017-7-15T17:11:36Z</time></trkpt>
<trkpt lat="44.687192318961024" lon="-0.03626178950071335"><ele></ele><time>2017-7-15T17:11:39Z</time></trkpt>
<trkpt lat="44.68728602863848" lon="-0.035503143444657326"><ele></ele><time>2017-7-15T17:11:42Z</time></trkpt>
<trkpt lat="44.68738007359207" lon="-0.034696049988269806"><ele></ele><time>2017-7-15T17:11:45Z</time></trkpt>
<trkpt lat="44.68747545965016" lon="-0.03390890546143055"><ele></ele><time>2017-7-15T17:11:48Z</time></trkpt>
<trkpt lat="44.68758140690625" lon="-0.033139362931251526"><ele></ele><time>2017-7-15T17:11:51Z</time></trkpt>
<trkpt lat="44.68769875355065" lon="-0.03237971104681492"><ele></ele><time>2017-7-15T17:11:54Z</time></trkpt>
<trkpt lat="44.68786823563278" lon="-0.03161813132464886"><ele></ele><time>2017-7-15T17:11:57Z</time></trkpt>
<trkpt lat="44.687936548143625" lon="-0.0312556978315115"><ele></ele><time>2017-7-15T17:12:0Z</time></trkpt>
<trkpt lat="44.6881037671119" lon="-0.030513564124703407"><ele></ele><time>2017-7-15T17:12:3Z</time></trkpt>
<trkpt lat="44.688124218955636" lon="-0.029682666063308716"><ele></ele><time>2017-7-15T17:12:6Z</time></trkpt>
<trkpt lat="44.68804098665714" lon="-0.02888093702495098"><ele></ele><time>2017-7-15T17:12:9Z</time></trkpt>
<trkpt lat="44.68794425949454" lon="-0.02809077501296997"><ele></ele><time>2017-7-15T17:12:12Z</time></trkpt>
<trkpt lat="44.68787435442209" lon="-0.0273155327886343"><ele></ele><time>2017-7-15T17:12:15Z</time></trkpt>
<trkpt lat="44.68775499612093" lon="-0.02656610682606697"><ele></ele><time>2017-7-15T17:12:18Z</time></trkpt>
<trkpt lat="44.68744419515133" lon="-0.02589605748653412"><ele></ele><time>2017-7-15T17:12:21Z</time></trkpt>
<trkpt lat="44.687034990638494" lon="-0.02538316883146763"><ele></ele><time>2017-7-15T17:12:24Z</time></trkpt>
<trkpt lat="44.686707090586424" lon="-0.02476927824318409"><ele></ele><time>2017-7-15T17:12:27Z</time></trkpt>
<trkpt lat="44.68641757965088" lon="-0.024055056273937225"><ele></ele><time>2017-7-15T17:12:30Z</time></trkpt>
<trkpt lat="44.68622563406825" lon="-0.023347707465291023"><ele></ele><time>2017-7-15T17:12:33Z</time></trkpt>
<trkpt lat="44.68599739484489" lon="-0.022640107199549675"><ele></ele><time>2017-7-15T17:12:36Z</time></trkpt>
<trkpt lat="44.685606295242906" lon="-0.021964525803923607"><ele></ele><time>2017-7-15T17:12:39Z</time></trkpt>
<trkpt lat="44.6852299477905" lon="-0.02137863077223301"><ele></ele><time>2017-7-15T17:12:42Z</time></trkpt>
<trkpt lat="44.68484949320555" lon="-0.02080421894788742"><ele></ele><time>2017-7-15T17:12:45Z</time></trkpt>
<trkpt lat="44.684484880417585" lon="-0.020232992246747017"><ele></ele><time>2017-7-15T17:12:48Z</time></trkpt>
<trkpt lat="44.68413284048438" lon="-0.019583310931921005"><ele></ele><time>2017-7-15T17:12:51Z</time></trkpt>
<trkpt lat="44.68385338783264" lon="-0.01898065209388733"><ele></ele><time>2017-7-15T17:12:54Z</time></trkpt>
<trkpt lat="44.683657083660364" lon="-0.01826777122914791"><ele></ele><time>2017-7-15T17:12:57Z</time></trkpt>
<trkpt lat="44.68345994129777" lon="-0.017534857615828514"><ele></ele><time>2017-7-15T17:13:0Z</time></trkpt>
<trkpt lat="44.683246118947864" lon="-0.016721896827220917"><ele></ele><time>2017-7-15T17:13:3Z</time></trkpt>
<trkpt lat="44.68301586806774" lon="-0.01592695713043213"><ele></ele><time>2017-7-15T17:13:6Z</time></trkpt>
<trkpt lat="44.682802045717835" lon="-0.015417002141475677"><ele></ele><time>2017-7-15T17:13:9Z</time></trkpt>
<trkpt lat="44.68237440101802" lon="-0.014803614467382431"><ele></ele><time>2017-7-15T17:13:12Z</time></trkpt>
<trkpt lat="44.68194365501404" lon="-0.014236494898796082"><ele></ele><time>2017-7-15T17:13:15Z</time></trkpt>
<trkpt lat="44.68153964728117" lon="-0.013648755848407745"><ele></ele><time>2017-7-15T17:13:18Z</time></trkpt>
<trkpt lat="44.68124586157501" lon="-0.012939730659127235"><ele></ele><time>2017-7-15T17:13:21Z</time></trkpt>
<trkpt lat="44.6810510661453" lon="-0.012572770938277245"><ele></ele><time>2017-7-15T17:13:24Z</time></trkpt>
<trkpt lat="44.68056793324649" lon="-0.012019230052828789"><ele></ele><time>2017-7-15T17:13:27Z</time></trkpt>
<trkpt lat="44.68013467267156" lon="-0.011510532349348068"><ele></ele><time>2017-7-15T17:13:30Z</time></trkpt>
<trkpt lat="44.679691856727004" lon="-0.010992195457220078"><ele></ele><time>2017-7-15T17:13:33Z</time></trkpt>
<trkpt lat="44.679255075752735" lon="-0.01051182858645916"><ele></ele><time>2017-7-15T17:13:36Z</time></trkpt>
<trkpt lat="44.67878074385226" lon="-0.009934064000844955"><ele></ele><time>2017-7-15T17:13:39Z</time></trkpt>
<trkpt lat="44.678341364488006" lon="-0.009416565299034119"><ele></ele><time>2017-7-15T17:13:42Z</time></trkpt>
<trkpt lat="44.677908858284354" lon="-0.008927397429943085"><ele></ele><time>2017-7-15T17:13:45Z</time></trkpt>
<trkpt lat="44.67745439149439" lon="-0.00848282128572464"><ele></ele><time>2017-7-15T17:13:48Z</time></trkpt>
<trkpt lat="44.67691627331078" lon="-0.008623721078038216"><ele></ele><time>2017-7-15T17:13:51Z</time></trkpt>
<trkpt lat="44.676614021882415" lon="-0.008153999224305153"><ele></ele><time>2017-7-15T17:13:54Z</time></trkpt>
<trkpt lat="44.67651494778693" lon="-0.007357802242040634"><ele></ele><time>2017-7-15T17:13:57Z</time></trkpt>
<trkpt lat="44.67646172270179" lon="-0.007137525826692581"><ele></ele><time>2017-7-15T17:14:0Z</time></trkpt>
<trkpt lat="44.6762315556407" lon="-0.0064373016357421875"><ele></ele><time>2017-7-15T17:14:3Z</time></trkpt>
<trkpt lat="44.67601370997727" lon="-0.005708495154976845"><ele></ele><time>2017-7-15T17:14:6Z</time></trkpt>
<trkpt lat="44.675793182104826" lon="-0.00496862456202507"><ele></ele><time>2017-7-15T17:14:9Z</time></trkpt>
<trkpt lat="44.675554130226374" lon="-0.004288768395781517"><ele></ele><time>2017-7-15T17:14:12Z</time></trkpt>
<trkpt lat="44.675194630399346" lon="-0.0037188827991485596"><ele></ele><time>2017-7-15T17:14:15Z</time></trkpt>
<trkpt lat="44.674875447526574" lon="-0.003098621964454651"><ele></ele><time>2017-7-15T17:14:18Z</time></trkpt>
<trkpt lat="44.674642933532596" lon="-0.002378951758146286"><ele></ele><time>2017-7-15T17:14:21Z</time></trkpt>
<trkpt lat="44.674396673217416" lon="-0.0016893725842237473"><ele></ele><time>2017-7-15T17:14:24Z</time></trkpt>
<trkpt lat="44.67408411204815" lon="-0.0010426249355077744"><ele></ele><time>2017-7-15T17:14:27Z</time></trkpt>
<trkpt lat="44.67375788837671" lon="-0.00043208710849285126"><ele></ele><time>2017-7-15T17:14:30Z</time></trkpt>
<trkpt lat="44.673386570066214" lon="0.00011441297829151154"><ele></ele><time>2017-7-15T17:14:33Z</time></trkpt>
<trkpt lat="44.67318364419043" lon="0.000365283340215683"><ele></ele><time>2017-7-15T17:14:36Z</time></trkpt>
<trkpt lat="44.67307912185788" lon="0.0005601625889539719"><ele></ele><time>2017-7-15T17:14:39Z</time></trkpt>
<trkpt lat="44.67291542328894" lon="0.001292238011956215"><ele></ele><time>2017-7-15T17:14:42Z</time></trkpt>
<trkpt lat="44.67281660065055" lon="0.0015008635818958282"><ele></ele><time>2017-7-15T17:14:45Z</time></trkpt>
<trkpt lat="44.672432877123356" lon="0.0021173525601625443"><ele></ele><time>2017-7-15T17:14:48Z</time></trkpt>
<trkpt lat="44.672185527160764" lon="0.002917824313044548"><ele></ele><time>2017-7-15T17:14:51Z</time></trkpt>
<trkpt lat="44.67204672284424" lon="0.003736233338713646"><ele></ele><time>2017-7-15T17:14:54Z</time></trkpt>
<trkpt lat="44.67190255410969" lon="0.00458146445453167"><ele></ele><time>2017-7-15T17:14:57Z</time></trkpt>
<trkpt lat="44.671882102265954" lon="0.005408506840467453"><ele></ele><time>2017-7-15T17:15:0Z</time></trkpt>
<trkpt lat="44.671846060082316" lon="0.0059538334608078"><ele></ele><time>2017-7-15T17:15:3Z</time></trkpt>
<trkpt lat="44.6720817591995" lon="0.006653387099504471"><ele></ele><time>2017-7-15T17:15:6Z</time></trkpt>
<trkpt lat="44.67225040309131" lon="0.007410775870084763"><ele></ele><time>2017-7-15T17:15:9Z</time></trkpt>
<trkpt lat="44.67232408002019" lon="0.007852083072066307"><ele></ele><time>2017-7-15T17:15:12Z</time></trkpt>
<trkpt lat="44.67230790294707" lon="0.008663786575198174"><ele></ele><time>2017-7-15T17:15:15Z</time></trkpt>
<trkpt lat="44.67231536284089" lon="0.009464342147111893"><ele></ele><time>2017-7-15T17:15:18Z</time></trkpt>
<trkpt lat="44.67231678776443" lon="0.010324744507670403"><ele></ele><time>2017-7-15T17:15:21Z</time></trkpt>
<trkpt lat="44.672345872968435" lon="0.011206604540348053"><ele></ele><time>2017-7-15T17:15:24Z</time></trkpt>
<trkpt lat="44.67253069393337" lon="0.012057200074195862"><ele></ele><time>2017-7-15T17:15:27Z</time></trkpt>
<trkpt lat="44.67272222042084" lon="0.012820959091186523"><ele></ele><time>2017-7-15T17:15:30Z</time></trkpt>
<trkpt lat="44.672934617847204" lon="0.013612546026706696"><ele></ele><time>2017-7-15T17:15:33Z</time></trkpt>
<trkpt lat="44.67312681488693" lon="0.014396840706467628"><ele></ele><time>2017-7-15T17:15:36Z</time></trkpt>
<trkpt lat="44.67330425977707" lon="0.015121875330805779"><ele></ele><time>2017-7-15T17:15:39Z</time></trkpt>
<trkpt lat="44.67348497360945" lon="0.015907175838947296"><ele></ele><time>2017-7-15T17:15:42Z</time></trkpt>
<trkpt lat="44.673578599467874" lon="0.016692308709025383"><ele></ele><time>2017-7-15T17:15:45Z</time></trkpt>
<trkpt lat="44.67356032691896" lon="0.017079636454582214"><ele></ele><time>2017-7-15T17:15:48Z</time></trkpt>
<trkpt lat="44.67357608489692" lon="0.017871474847197533"><ele></ele><time>2017-7-15T17:15:51Z</time></trkpt>
<trkpt lat="44.673635847866535" lon="0.018651578575372696"><ele></ele><time>2017-7-15T17:15:54Z</time></trkpt>
<trkpt lat="44.67336159199476" lon="0.01930251717567444"><ele></ele><time>2017-7-15T17:15:57Z</time></trkpt>
<trkpt lat="44.67301458120346" lon="0.019901907071471214"><ele></ele><time>2017-7-15T17:16:0Z</time></trkpt>
<trkpt lat="44.672701517120004" lon="0.02054949291050434"><ele></ele><time>2017-7-15T17:16:3Z</time></trkpt>
<trkpt lat="44.67237981967628" lon="0.021159276366233826"><ele></ele><time>2017-7-15T17:16:6Z</time></trkpt>
<trkpt lat="44.672034066170454" lon="0.021792948246002197"><ele></ele><time>2017-7-15T17:16:9Z</time></trkpt>
<trkpt lat="44.671693509444594" lon="0.022422848269343376"><ele></ele><time>2017-7-15T17:16:12Z</time></trkpt>
<trkpt lat="44.67136544175446" lon="0.02303212881088257"><ele></ele><time>2017-7-15T17:16:15Z</time></trkpt>
<trkpt lat="44.67102689668536" lon="0.023674434050917625"><ele></ele><time>2017-7-15T17:16:18Z</time></trkpt>
<trkpt lat="44.67068365775049" lon="0.024311039596796036"><ele></ele><time>2017-7-15T17:16:21Z</time></trkpt>
<trkpt lat="44.67033580876887" lon="0.024942699819803238"><ele></ele><time>2017-7-15T17:16:24Z</time></trkpt>
<trkpt lat="44.66999835334718" lon="0.025568408891558647"><ele></ele><time>2017-7-15T17:16:27Z</time></trkpt>
<trkpt lat="44.66967036947608" lon="0.026198560371994972"><ele></ele><time>2017-7-15T17:16:30Z</time></trkpt>
<trkpt lat="44.66934096068144" lon="0.026828208938241005"><ele></ele><time>2017-7-15T17:16:33Z</time></trkpt>
<trkpt lat="44.66899654828012" lon="0.0274636410176754"><ele></ele><time>2017-7-15T17:16:36Z</time></trkpt>
<trkpt lat="44.668647861108184" lon="0.02810695208609104"><ele></ele><time>2017-7-15T17:16:39Z</time></trkpt>
<trkpt lat="44.66862522996962" lon="0.02816026099026203"><ele></ele><time>2017-7-15T17:16:42Z</time></trkpt>
<trkpt lat="44.66829095967114" lon="0.02875830978155136"><ele></ele><time>2017-7-15T17:16:45Z</time></trkpt>
<trkpt lat="44.66795660555363" lon="0.02938477322459221"><ele></ele><time>2017-7-15T17:16:48Z</time></trkpt>
<trkpt lat="44.667625771835446" lon="0.030006710439920425"><ele></ele><time>2017-7-15T17:16:51Z</time></trkpt>
<trkpt lat="44.66729854233563" lon="0.03063887357711792"><ele></ele><time>2017-7-15T17:16:54Z</time></trkpt>
<trkpt lat="44.66699721291661" lon="0.0312742218375206"><ele></ele><time>2017-7-15T17:16:57Z</time></trkpt>
<trkpt lat="44.66665472835302" lon="0.031873444095253944"><ele></ele><time>2017-7-15T17:17:0Z</time></trkpt>
<trkpt lat="44.66631827875972" lon="0.03248666413128376"><ele></ele><time>2017-7-15T17:17:3Z</time></trkpt>
<trkpt lat="44.666200429201126" lon="0.03267265856266022"><ele></ele><time>2017-7-15T17:17:6Z</time></trkpt>
<trkpt lat="44.665750404819846" lon="0.03311094827950001"><ele></ele><time>2017-7-15T17:17:9Z</time></trkpt>
<trkpt lat="44.66524086892605" lon="0.03350858576595783"><ele></ele><time>2017-7-15T17:17:12Z</time></trkpt>
<trkpt lat="44.66470643877983" lon="0.03393631428480148"><ele></ele><time>2017-7-15T17:17:15Z</time></trkpt>
<trkpt lat="44.664204278960824" lon="0.03432959318161011"><ele></ele><time>2017-7-15T17:17:18Z</time></trkpt>
<trkpt lat="44.663691725581884" lon="0.03472505137324333"><ele></ele><time>2017-7-15T17:17:21Z</time></trkpt>
<trkpt lat="44.663188895210624" lon="0.03511522896587849"><ele></ele><time>2017-7-15T17:17:24Z</time></trkpt>
<trkpt lat="44.66269327327609" lon="0.03549710847437382"><ele></ele><time>2017-7-15T17:17:27Z</time></trkpt>
<trkpt lat="44.66220402158797" lon="0.035943612456321716"><ele></ele><time>2017-7-15T17:17:30Z</time></trkpt>
<trkpt lat="44.66199539601803" lon="0.03625407814979553"><ele></ele><time>2017-7-15T17:17:33Z</time></trkpt>
<trkpt lat="44.66174125671387" lon="0.03696218132972717"><ele></ele><time>2017-7-15T17:17:36Z</time></trkpt>
<trkpt lat="44.66148544102907" lon="0.03765301778912544"><ele></ele><time>2017-7-15T17:17:39Z</time></trkpt>
<trkpt lat="44.66123264282942" lon="0.03833555616438389"><ele></ele><time>2017-7-15T17:17:42Z</time></trkpt>
<trkpt lat="44.66097925789654" lon="0.03903687000274658"><ele></ele><time>2017-7-15T17:17:45Z</time></trkpt>
<trkpt lat="44.66071095317602" lon="0.03971739672124386"><ele></ele><time>2017-7-15T17:17:48Z</time></trkpt>
<trkpt lat="44.66044851578772" lon="0.0404069758951664"><ele></ele><time>2017-7-15T17:17:51Z</time></trkpt>
<trkpt lat="44.660187754780054" lon="0.041094543412327766"><ele></ele><time>2017-7-15T17:17:54Z</time></trkpt>
<trkpt lat="44.659872092306614" lon="0.041756462305784225"><ele></ele><time>2017-7-15T17:17:57Z</time></trkpt>
<trkpt lat="44.65945760719478" lon="0.04232676699757576"><ele></ele><time>2017-7-15T17:18:0Z</time></trkpt>
<trkpt lat="44.659040942788124" lon="0.042829765006899834"><ele></ele><time>2017-7-15T17:18:3Z</time></trkpt>
<trkpt lat="44.658613381907344" lon="0.043363189324736595"><ele></ele><time>2017-7-15T17:18:6Z</time></trkpt>
<trkpt lat="44.65821691788733" lon="0.043889740481972694"><ele></ele><time>2017-7-15T17:18:9Z</time></trkpt>
<trkpt lat="44.65802983380854" lon="0.04435636103153229"><ele></ele><time>2017-7-15T17:18:12Z</time></trkpt>
<trkpt lat="44.65795557014644" lon="0.04516814835369587"><ele></ele><time>2017-7-15T17:18:15Z</time></trkpt>
<trkpt lat="44.657984990626574" lon="0.045693693682551384"><ele></ele><time>2017-7-15T17:18:18Z</time></trkpt>
<trkpt lat="44.65809135697782" lon="0.04645359702408314"><ele></ele><time>2017-7-15T17:18:21Z</time></trkpt>
<trkpt lat="44.65807484462857" lon="0.046807900071144104"><ele></ele><time>2017-7-15T17:18:24Z</time></trkpt>
<trkpt lat="44.65793025679886" lon="0.04709087312221527"><ele></ele><time>2017-7-15T17:18:27Z</time></trkpt>
<trkpt lat="44.65787921100855" lon="0.04714124836027622"><ele></ele><time>2017-7-15T17:18:30Z</time></trkpt>
<trkpt lat="44.65777703560889" lon="0.04723101854324341"><ele></ele><time>2017-7-15T17:18:33Z</time></trkpt>
<trkpt lat="44.65750579722226" lon="0.0474607665091753"><ele></ele><time>2017-7-15T17:18:36Z</time></trkpt>
<trkpt lat="44.657276049256325" lon="0.04786393605172634"><ele></ele><time>2017-7-15T17:18:39Z</time></trkpt>
<trkpt lat="44.65724780224264" lon="0.04795370623469353"><ele></ele><time>2017-7-15T17:18:42Z</time></trkpt>
<trkpt lat="44.65699542313814" lon="0.048694079741835594"><ele></ele><time>2017-7-15T17:18:45Z</time></trkpt>
<trkpt lat="44.656908083707094" lon="0.0492321141064167"><ele></ele><time>2017-7-15T17:18:48Z</time></trkpt>
<trkpt lat="44.657118301838636" lon="0.04997793585062027"><ele></ele><time>2017-7-15T17:18:51Z</time></trkpt>
<trkpt lat="44.65735198929906" lon="0.05029795691370964"><ele></ele><time>2017-7-15T17:18:54Z</time></trkpt>
<trkpt lat="44.65766723267734" lon="0.05077119916677475"><ele></ele><time>2017-7-15T17:18:57Z</time></trkpt>
<trkpt lat="44.657750464975834" lon="0.051559265702962875"><ele></ele><time>2017-7-15T17:19:0Z</time></trkpt>
<trkpt lat="44.65764409862459" lon="0.05201767198741436"><ele></ele><time>2017-7-15T17:19:3Z</time></trkpt>
<trkpt lat="44.65739347971976" lon="0.05283348262310028"><ele></ele><time>2017-7-15T17:19:6Z</time></trkpt>
<trkpt lat="44.6571805793792" lon="0.05354887805879116"><ele></ele><time>2017-7-15T17:19:9Z</time></trkpt>
<trkpt lat="44.6569768153131" lon="0.05425740033388138"><ele></ele><time>2017-7-15T17:19:12Z</time></trkpt>
<trkpt lat="44.65677338652313" lon="0.05495946854352951"><ele></ele><time>2017-7-15T17:19:15Z</time></trkpt>
<trkpt lat="44.65656040236354" lon="0.05571375600993633"><ele></ele><time>2017-7-15T17:19:18Z</time></trkpt>
<trkpt lat="44.656388238072395" lon="0.056098317727446556"><ele></ele><time>2017-7-15T17:19:21Z</time></trkpt>
<trkpt lat="44.656074587255716" lon="0.05625816062092781"><ele></ele><time>2017-7-15T17:19:24Z</time></trkpt>
<trkpt lat="44.655728582292795" lon="0.05646217614412308"><ele></ele><time>2017-7-15T17:19:27Z</time></trkpt>
<trkpt lat="44.655388444662094" lon="0.05701269954442978"><ele></ele><time>2017-7-15T17:19:30Z</time></trkpt>
<trkpt lat="44.65514377690852" lon="0.05769247189164162"><ele></ele><time>2017-7-15T17:19:33Z</time></trkpt>
<trkpt lat="44.65489114634693" lon="0.058368975296616554"><ele></ele><time>2017-7-15T17:19:36Z</time></trkpt>
<trkpt lat="44.65465636923909" lon="0.05901237018406391"><ele></ele><time>2017-7-15T17:19:39Z</time></trkpt>
<trkpt lat="44.65437691658735" lon="0.05974628962576389"><ele></ele><time>2017-7-15T17:19:42Z</time></trkpt>
<trkpt lat="44.654128309339285" lon="0.06043368950486183"><ele></ele><time>2017-7-15T17:19:45Z</time></trkpt>
<trkpt lat="44.65397466905415" lon="0.06117280572652817"><ele></ele><time>2017-7-15T17:19:48Z</time></trkpt>
<trkpt lat="44.653985649347305" lon="0.0619298592209816"><ele></ele><time>2017-7-15T17:19:51Z</time></trkpt>
<trkpt lat="44.65402638539672" lon="0.06275530904531479"><ele></ele><time>2017-7-15T17:19:54Z</time></trkpt>
<trkpt lat="44.65406443923712" lon="0.06351906806230545"><ele></ele><time>2017-7-15T17:19:57Z</time></trkpt>
<trkpt lat="44.65422964654863" lon="0.06423857063055038"><ele></ele><time>2017-7-15T17:20:0Z</time></trkpt>
<trkpt lat="44.65449837036431" lon="0.06497399881482124"><ele></ele><time>2017-7-15T17:20:3Z</time></trkpt>
<trkpt lat="44.65474764816463" lon="0.06566131487488747"><ele></ele><time>2017-7-15T17:20:6Z</time></trkpt>
<trkpt lat="44.655127096921206" lon="0.06626875139772892"><ele></ele><time>2017-7-15T17:20:9Z</time></trkpt>
<trkpt lat="44.65553009882569" lon="0.06689823232591152"><ele></ele><time>2017-7-15T17:20:12Z</time></trkpt>
<trkpt lat="44.65590141713619" lon="0.06754841655492783"><ele></ele><time>2017-7-15T17:20:15Z</time></trkpt>
<trkpt lat="44.65612320229411" lon="0.06826666183769703"><ele></ele><time>2017-7-15T17:20:18Z</time></trkpt>
<trkpt lat="44.65625831857324" lon="0.06905665621161461"><ele></ele><time>2017-7-15T17:20:21Z</time></trkpt>
<trkpt lat="44.656282626092434" lon="0.06925748661160469"><ele></ele><time>2017-7-15T17:20:24Z</time></trkpt>
<trkpt lat="44.65630894526839" lon="0.07005225867033005"><ele></ele><time>2017-7-15T17:20:27Z</time></trkpt>
<trkpt lat="44.656434170901775" lon="0.07081082090735435"><ele></ele><time>2017-7-15T17:20:30Z</time></trkpt>
<trkpt lat="44.65665981173515" lon="0.07155848667025566"><ele></ele><time>2017-7-15T17:20:33Z</time></trkpt>
<trkpt lat="44.656847566366196" lon="0.07232559844851494"><ele></ele><time>2017-7-15T17:20:36Z</time></trkpt>
<trkpt lat="44.65684136375785" lon="0.07309840992093086"><ele></ele><time>2017-7-15T17:20:39Z</time></trkpt>
<trkpt lat="44.65680624358356" lon="0.07331063970923424"><ele></ele><time>2017-7-15T17:20:42Z</time></trkpt>
<trkpt lat="44.65677724219859" lon="0.07332354784011841"><ele></ele><time>2017-7-15T17:20:45Z</time></trkpt>
<trkpt lat="44.65682770125568" lon="0.0732941273599863"><ele></ele><time>2017-7-15T17:20:48Z</time></trkpt>
<trkpt lat="44.65684496797621" lon="0.07405939511954784"><ele></ele><time>2017-7-15T17:20:51Z</time></trkpt>
<trkpt lat="44.656766848638654" lon="0.07485995069146156"><ele></ele><time>2017-7-15T17:20:54Z</time></trkpt>
<trkpt lat="44.65659895911813" lon="0.07562731392681599"><ele></ele><time>2017-7-15T17:20:57Z</time></trkpt>
<trkpt lat="44.65657263994217" lon="0.07570283487439156"><ele></ele><time>2017-7-15T17:21:0Z</time></trkpt>
<trkpt lat="44.65628832578659" lon="0.0762562919408083"><ele></ele><time>2017-7-15T17:21:3Z</time></trkpt>
<trkpt lat="44.655852215364575" lon="0.07637321949005127"><ele></ele><time>2017-7-15T17:21:6Z</time></trkpt>
<trkpt lat="44.65529230423272" lon="0.07651671767234802"><ele></ele><time>2017-7-15T17:21:9Z</time></trkpt>
<trkpt lat="44.654742032289505" lon="0.0767485611140728"><ele></ele><time>2017-7-15T17:21:12Z</time></trkpt>
<trkpt lat="44.65422176755965" lon="0.07698803208768368"><ele></ele><time>2017-7-15T17:21:15Z</time></trkpt>
<trkpt lat="44.65367157943547" lon="0.07720286026597023"><ele></ele><time>2017-7-15T17:21:18Z</time></trkpt>
<trkpt lat="44.653292214497924" lon="0.07734401151537895"><ele></ele><time>2017-7-15T17:21:21Z</time></trkpt>
<trkpt lat="44.65275443159044" lon="0.07745976559817791"><ele></ele><time>2017-7-15T17:21:24Z</time></trkpt>
<trkpt lat="44.652199214324355" lon="0.07728282362222672"><ele></ele><time>2017-7-15T17:21:27Z</time></trkpt>
<trkpt lat="44.651720859110355" lon="0.07689147256314754"><ele></ele><time>2017-7-15T17:21:30Z</time></trkpt>
<trkpt lat="44.651268320158124" lon="0.07639710791409016"><ele></ele><time>2017-7-15T17:21:33Z</time></trkpt>
<trkpt lat="44.6508776396513" lon="0.07584046572446823"><ele></ele><time>2017-7-15T17:21:36Z</time></trkpt>
<trkpt lat="44.65054152533412" lon="0.07531232200562954"><ele></ele><time>2017-7-15T17:21:39Z</time></trkpt>
<trkpt lat="44.65019057504833" lon="0.07470555603504181"><ele></ele><time>2017-7-15T17:21:42Z</time></trkpt>
<trkpt lat="44.649837696924806" lon="0.07404799573123455"><ele></ele><time>2017-7-15T17:21:45Z</time></trkpt>
<trkpt lat="44.64940686710179" lon="0.07359579205513"><ele></ele><time>2017-7-15T17:21:48Z</time></trkpt>
<trkpt lat="44.648847207427025" lon="0.0734961312264204"><ele></ele><time>2017-7-15T17:21:51Z</time></trkpt>
<trkpt lat="44.6482871286571" lon="0.07358070462942123"><ele></ele><time>2017-7-15T17:21:54Z</time></trkpt>
<trkpt lat="44.64773249812424" lon="0.07367902435362339"><ele></ele><time>2017-7-15T17:21:57Z</time></trkpt>
<trkpt lat="44.64748414233327" lon="0.07386761717498302"><ele></ele><time>2017-7-15T17:22:0Z</time></trkpt>
<trkpt lat="44.647478107362986" lon="0.0739121250808239"><ele></ele><time>2017-7-15T17:22:3Z</time></trkpt>
<trkpt lat="44.64775529690087" lon="0.0745644886046648"><ele></ele><time>2017-7-15T17:22:6Z</time></trkpt>
<trkpt lat="44.647490764036775" lon="0.07521928288042545"><ele></ele><time>2017-7-15T17:22:9Z</time></trkpt>
<trkpt lat="44.64728591032326" lon="0.07590592838823795"><ele></ele><time>2017-7-15T17:22:12Z</time></trkpt>
<trkpt lat="44.64743619784713" lon="0.07662207819521427"><ele></ele><time>2017-7-15T17:22:15Z</time></trkpt>
<trkpt lat="44.647826040163636" lon="0.07716589607298374"><ele></ele><time>2017-7-15T17:22:18Z</time></trkpt>
<trkpt lat="44.64821848087013" lon="0.07768817245960236"><ele></ele><time>2017-7-15T17:22:21Z</time></trkpt>
<trkpt lat="44.64861477725208" lon="0.07826115936040878"><ele></ele><time>2017-7-15T17:22:24Z</time></trkpt>
<trkpt lat="44.64891593903303" lon="0.07889156229794025"><ele></ele><time>2017-7-15T17:22:27Z</time></trkpt>
<trkpt lat="44.649218525737524" lon="0.0795822311192751"><ele></ele><time>2017-7-15T17:22:30Z</time></trkpt>
<trkpt lat="44.64940745383501" lon="0.08005094714462757"><ele></ele><time>2017-7-15T17:22:33Z</time></trkpt>
<trkpt lat="44.64943293482065" lon="0.08035152219235897"><ele></ele><time>2017-7-15T17:22:36Z</time></trkpt>
<trkpt lat="44.64955396950245" lon="0.08054908365011215"><ele></ele><time>2017-7-15T17:22:39Z</time></trkpt>
<trkpt lat="44.64957601390779" lon="0.0806163065135479"><ele></ele><time>2017-7-15T17:22:42Z</time></trkpt>
<trkpt lat="44.64961834251881" lon="0.08091185241937637"><ele></ele><time>2017-7-15T17:22:45Z</time></trkpt>
<trkpt lat="44.64963711798191" lon="0.0811123475432396"><ele></ele><time>2017-7-15T17:22:48Z</time></trkpt>
<trkpt lat="44.64964742772281" lon="0.08123036473989487"><ele></ele><time>2017-7-15T17:22:51Z</time></trkpt>
<trkpt lat="44.64970107190311" lon="0.08200585842132568"><ele></ele><time>2017-7-15T17:22:54Z</time></trkpt>
<trkpt lat="44.649756979197264" lon="0.0828031450510025"><ele></ele><time>2017-7-15T17:22:57Z</time></trkpt>
<trkpt lat="44.64990592561662" lon="0.08354888297617435"><ele></ele><time>2017-7-15T17:23:0Z</time></trkpt>
<trkpt lat="44.65022083371878" lon="0.08421314880251884"><ele></ele><time>2017-7-15T17:23:3Z</time></trkpt>
<trkpt lat="44.65052216313779" lon="0.08484682068228722"><ele></ele><time>2017-7-15T17:23:6Z</time></trkpt>
<trkpt lat="44.65049626305699" lon="0.08556087501347065"><ele></ele><time>2017-7-15T17:23:9Z</time></trkpt>
<trkpt lat="44.65031026862562" lon="0.08629227988421917"><ele></ele><time>2017-7-15T17:23:12Z</time></trkpt>
<trkpt lat="44.650126872584224" lon="0.0870220921933651"><ele></ele><time>2017-7-15T17:23:15Z</time></trkpt>
<trkpt lat="44.649936854839325" lon="0.08778853341937065"><ele></ele><time>2017-7-15T17:23:18Z</time></trkpt>
<trkpt lat="44.649853287264705" lon="0.08811794221401215"><ele></ele><time>2017-7-15T17:23:21Z</time></trkpt>
<trkpt lat="44.649675926193595" lon="0.08884616196155548"><ele></ele><time>2017-7-15T17:23:24Z</time></trkpt>
<trkpt lat="44.64959219098091" lon="0.08925176225602627"><ele></ele><time>2017-7-15T17:23:27Z</time></trkpt>
<trkpt lat="44.649460427463055" lon="0.09001543745398521"><ele></ele><time>2017-7-15T17:23:30Z</time></trkpt>
<trkpt lat="44.64940317906439" lon="0.09080559946596622"><ele></ele><time>2017-7-15T17:23:33Z</time></trkpt>
<trkpt lat="44.649543995037675" lon="0.09149543009698391"><ele></ele><time>2017-7-15T17:23:36Z</time></trkpt>
<trkpt lat="44.64964147657156" lon="0.09177898988127708"><ele></ele><time>2017-7-15T17:23:39Z</time></trkpt>
<trkpt lat="44.64998538605869" lon="0.09237997233867645"><ele></ele><time>2017-7-15T17:23:42Z</time></trkpt>
<trkpt lat="44.65034916065633" lon="0.09295807220041752"><ele></ele><time>2017-7-15T17:23:45Z</time></trkpt>
<trkpt lat="44.65071595273912" lon="0.09355251677334309"><ele></ele><time>2017-7-15T17:23:48Z</time></trkpt>
<trkpt lat="44.65093782171607" lon="0.09390858002007008"><ele></ele><time>2017-7-15T17:23:51Z</time></trkpt>
<trkpt lat="44.65130444616079" lon="0.09449447505176067"><ele></ele><time>2017-7-15T17:23:54Z</time></trkpt>
<trkpt lat="44.65166528709233" lon="0.09506260044872761"><ele></ele><time>2017-7-15T17:23:57Z</time></trkpt>
<trkpt lat="44.65202218852937" lon="0.09563340805470943"><ele></ele><time>2017-7-15T17:24:0Z</time></trkpt>
<trkpt lat="44.65239451266825" lon="0.09622449986636639"><ele></ele><time>2017-7-15T17:24:3Z</time></trkpt>
<trkpt lat="44.652756275609136" lon="0.0968104787170887"><ele></ele><time>2017-7-15T17:24:6Z</time></trkpt>
<trkpt lat="44.653126588091254" lon="0.09740383364260197"><ele></ele><time>2017-7-15T17:24:9Z</time></trkpt>
<trkpt lat="44.65349178761244" lon="0.09807195514440536"><ele></ele><time>2017-7-15T17:24:12Z</time></trkpt>
<trkpt lat="44.65378322638571" lon="0.09882699698209763"><ele></ele><time>2017-7-15T17:24:15Z</time></trkpt>
<trkpt lat="44.654033090919256" lon="0.09964322671294212"><ele></ele><time>2017-7-15T17:24:18Z</time></trkpt>
<trkpt lat="44.65427960269153" lon="0.10041478089988232"><ele></ele><time>2017-7-15T17:24:21Z</time></trkpt>
<trkpt lat="44.654490323737264" lon="0.10112380608916283"><ele></ele><time>2017-7-15T17:24:24Z</time></trkpt>
<trkpt lat="44.654594007879496" lon="0.10191338136792183"><ele></ele><time>2017-7-15T17:24:27Z</time></trkpt>
<trkpt lat="44.654690232127905" lon="0.10273824445903301"><ele></ele><time>2017-7-15T17:24:30Z</time></trkpt>
<trkpt lat="44.654839765280485" lon="0.10354508645832539"><ele></ele><time>2017-7-15T17:24:33Z</time></trkpt>
<trkpt lat="44.65500229038298" lon="0.10435142554342747"><ele></ele><time>2017-7-15T17:24:36Z</time></trkpt>
<trkpt lat="44.65515861287713" lon="0.10518006049096584"><ele></ele><time>2017-7-15T17:24:39Z</time></trkpt>
<trkpt lat="44.65527637861669" lon="0.10602772235870361"><ele></ele><time>2017-7-15T17:24:42Z</time></trkpt>
<trkpt lat="44.65550017543137" lon="0.10684252716600895"><ele></ele><time>2017-7-15T17:24:45Z</time></trkpt>
<trkpt lat="44.65556899085641" lon="0.10736321099102497"><ele></ele><time>2017-7-15T17:24:48Z</time></trkpt>
<trkpt lat="44.65562875382602" lon="0.1082330010831356"><ele></ele><time>2017-7-15T17:24:51Z</time></trkpt>
<trkpt lat="44.65576437301934" lon="0.1090747956186533"><ele></ele><time>2017-7-15T17:24:54Z</time></trkpt>
<trkpt lat="44.655878534540534" lon="0.10984115302562714"><ele></ele><time>2017-7-15T17:24:57Z</time></trkpt>
<trkpt lat="44.65605866163969" lon="0.11060968972742558"><ele></ele><time>2017-7-15T17:25:0Z</time></trkpt>
<trkpt lat="44.656261168420315" lon="0.11137311346828938"><ele></ele><time>2017-7-15T17:25:3Z</time></trkpt>
<trkpt lat="44.656479684636" lon="0.11215858161449432"><ele></ele><time>2017-7-15T17:25:6Z</time></trkpt>
<trkpt lat="44.65667230077088" lon="0.11288344860076904"><ele></ele><time>2017-7-15T17:25:9Z</time></trkpt>
<trkpt lat="44.656879249960184" lon="0.11364913545548916"><ele></ele><time>2017-7-15T17:25:12Z</time></trkpt>
<trkpt lat="44.657080164179206" lon="0.11437769047915936"><ele></ele><time>2017-7-15T17:25:15Z</time></trkpt>
<trkpt lat="44.65728015638888" lon="0.11510096490383148"><ele></ele><time>2017-7-15T17:25:18Z</time></trkpt>
<trkpt lat="44.657489033415914" lon="0.11587201617658138"><ele></ele><time>2017-7-15T17:25:21Z</time></trkpt>
<trkpt lat="44.657690450549126" lon="0.11664080433547497"><ele></ele><time>2017-7-15T17:25:24Z</time></trkpt>
<trkpt lat="44.65788474306464" lon="0.11741353198885918"><ele></ele><time>2017-7-15T17:25:27Z</time></trkpt>
<trkpt lat="44.65808792039752" lon="0.11816337704658508"><ele></ele><time>2017-7-15T17:25:30Z</time></trkpt>
<trkpt lat="44.65831163339317" lon="0.11892554350197315"><ele></ele><time>2017-7-15T17:25:33Z</time></trkpt>
<trkpt lat="44.658510871231556" lon="0.11965736746788025"><ele></ele><time>2017-7-15T17:25:36Z</time></trkpt>
<trkpt lat="44.65871865861118" lon="0.12041106820106506"><ele></ele><time>2017-7-15T17:25:39Z</time></trkpt>
<trkpt lat="44.658920746296644" lon="0.12116024270653725"><ele></ele><time>2017-7-15T17:25:42Z</time></trkpt>
<trkpt lat="44.65913213789463" lon="0.12192701920866966"><ele></ele><time>2017-7-15T17:25:45Z</time></trkpt>
<trkpt lat="44.65935040265322" lon="0.12272271327674389"><ele></ele><time>2017-7-15T17:25:48Z</time></trkpt>
<trkpt lat="44.659567242488265" lon="0.12351689860224724"><ele></ele><time>2017-7-15T17:25:51Z</time></trkpt>
<trkpt lat="44.659766145050526" lon="0.12425660155713558"><ele></ele><time>2017-7-15T17:25:54Z</time></trkpt>
<trkpt lat="44.65997586026788" lon="0.12500250712037086"><ele></ele><time>2017-7-15T17:25:57Z</time></trkpt>
<trkpt lat="44.660185407847166" lon="0.12576953507959843"><ele></ele><time>2017-7-15T17:26:0Z</time></trkpt>
<trkpt lat="44.660405768081546" lon="0.1265687495470047"><ele></ele><time>2017-7-15T17:26:3Z</time></trkpt>
<trkpt lat="44.66060726903379" lon="0.12731071561574936"><ele></ele><time>2017-7-15T17:26:6Z</time></trkpt>
<trkpt lat="44.66070634312928" lon="0.1276850514113903"><ele></ele><time>2017-7-15T17:26:9Z</time></trkpt>
<trkpt lat="44.66072008945048" lon="0.12772503308951855"><ele></ele><time>2017-7-15T17:26:12Z</time></trkpt>
<trkpt lat="44.66088546440005" lon="0.1282872073352337"><ele></ele><time>2017-7-15T17:26:15Z</time></trkpt>
<trkpt lat="44.661097107455134" lon="0.12902213260531425"><ele></ele><time>2017-7-15T17:26:18Z</time></trkpt>
<trkpt lat="44.6613060683012" lon="0.12973434291779995"><ele></ele><time>2017-7-15T17:26:21Z</time></trkpt>
<trkpt lat="44.661512011662126" lon="0.13049324043095112"><ele></ele><time>2017-7-15T17:26:24Z</time></trkpt>
<trkpt lat="44.66169205494225" lon="0.13123596087098122"><ele></ele><time>2017-7-15T17:26:27Z</time></trkpt>
<trkpt lat="44.66186296194792" lon="0.1320253685116768"><ele></ele><time>2017-7-15T17:26:30Z</time></trkpt>
<trkpt lat="44.6620124951005" lon="0.13281142339110374"><ele></ele><time>2017-7-15T17:26:33Z</time></trkpt>
<trkpt lat="44.662162866443396" lon="0.13360041193664074"><ele></ele><time>2017-7-15T17:26:36Z</time></trkpt>
<trkpt lat="44.66230049729347" lon="0.13442544266581535"><ele></ele><time>2017-7-15T17:26:39Z</time></trkpt>
<trkpt lat="44.662414994090796" lon="0.13522088527679443"><ele></ele><time>2017-7-15T17:26:42Z</time></trkpt>
<trkpt lat="44.66256368905306" lon="0.13600668869912624"><ele></ele><time>2017-7-15T17:26:45Z</time></trkpt>
<trkpt lat="44.66271196492016" lon="0.13683121651411057"><ele></ele><time>2017-7-15T17:26:48Z</time></trkpt>
<trkpt lat="44.662848338484764" lon="0.1376105658710003"><ele></ele><time>2017-7-15T17:26:51Z</time></trkpt>
<trkpt lat="44.6629845444113" lon="0.13839410617947578"><ele></ele><time>2017-7-15T17:26:54Z</time></trkpt>
<trkpt lat="44.66312376782298" lon="0.13915794901549816"><ele></ele><time>2017-7-15T17:26:57Z</time></trkpt>
<trkpt lat="44.66325653716922" lon="0.13991382904350758"><ele></ele><time>2017-7-15T17:27:0Z</time></trkpt>
<trkpt lat="44.663398610427976" lon="0.14072813093662262"><ele></ele><time>2017-7-15T17:27:3Z</time></trkpt>
<trkpt lat="44.663533894345164" lon="0.1414946559816599"><ele></ele><time>2017-7-15T17:27:6Z</time></trkpt>
<trkpt lat="44.66366456821561" lon="0.14223863370716572"><ele></ele><time>2017-7-15T17:27:9Z</time></trkpt>
<trkpt lat="44.663798343390226" lon="0.14298219233751297"><ele></ele><time>2017-7-15T17:27:12Z</time></trkpt>
<trkpt lat="44.66393429785967" lon="0.1437267567962408"><ele></ele><time>2017-7-15T17:27:15Z</time></trkpt>
<trkpt lat="44.66405793093145" lon="0.14447081834077835"><ele></ele><time>2017-7-15T17:27:18Z</time></trkpt>
<trkpt lat="44.66419673524797" lon="0.14527279883623123"><ele></ele><time>2017-7-15T17:27:21Z</time></trkpt>
<trkpt lat="44.664334282279015" lon="0.14605147764086723"><ele></ele><time>2017-7-15T17:27:24Z</time></trkpt>
<trkpt lat="44.66446646489203" lon="0.14682034961879253"><ele></ele><time>2017-7-15T17:27:27Z</time></trkpt>
<trkpt lat="44.66460686177015" lon="0.14762702398002148"><ele></ele><time>2017-7-15T17:27:30Z</time></trkpt>
<trkpt lat="44.66474105603993" lon="0.14844048768281937"><ele></ele><time>2017-7-15T17:27:33Z</time></trkpt>
<trkpt lat="44.66487600468099" lon="0.14922838658094406"><ele></ele><time>2017-7-15T17:27:36Z</time></trkpt>
<trkpt lat="44.66500701382756" lon="0.14998527243733406"><ele></ele><time>2017-7-15T17:27:39Z</time></trkpt>
<trkpt lat="44.66514372266829" lon="0.150759844109416"><ele></ele><time>2017-7-15T17:27:42Z</time></trkpt>
<trkpt lat="44.665268529206514" lon="0.1515629142522812"><ele></ele><time>2017-7-15T17:27:45Z</time></trkpt>
<trkpt lat="44.66539668850601" lon="0.15233153477311134"><ele></ele><time>2017-7-15T17:27:48Z</time></trkpt>
<trkpt lat="44.665521159768105" lon="0.15310493297874928"><ele></ele><time>2017-7-15T17:27:51Z</time></trkpt>
<trkpt lat="44.66565644368529" lon="0.15393013134598732"><ele></ele><time>2017-7-15T17:27:54Z</time></trkpt>
<trkpt lat="44.66577940620482" lon="0.1547075528651476"><ele></ele><time>2017-7-15T17:27:57Z</time></trkpt>
<trkpt lat="44.665906224399805" lon="0.1554716471582651"><ele></ele><time>2017-7-15T17:28:0Z</time></trkpt>
<trkpt lat="44.66604184359312" lon="0.15628804452717304"><ele></ele><time>2017-7-15T17:28:3Z</time></trkpt>
<trkpt lat="44.66616899706423" lon="0.1570538990199566"><ele></ele><time>2017-7-15T17:28:6Z</time></trkpt>
<trkpt lat="44.66629187576473" lon="0.15785126946866512"><ele></ele><time>2017-7-15T17:28:9Z</time></trkpt>
<trkpt lat="44.66641567647457" lon="0.15859206207096577"><ele></ele><time>2017-7-15T17:28:12Z</time></trkpt>
<trkpt lat="44.66653713025153" lon="0.1593605149537325"><ele></ele><time>2017-7-15T17:28:15Z</time></trkpt>
<trkpt lat="44.66667811386287" lon="0.16017213463783264"><ele></ele><time>2017-7-15T17:28:18Z</time></trkpt>
<trkpt lat="44.66680669225752" lon="0.16097880899906158"><ele></ele><time>2017-7-15T17:28:21Z</time></trkpt>
<trkpt lat="44.66691833920777" lon="0.16174374148249626"><ele></ele><time>2017-7-15T17:28:24Z</time></trkpt>
<trkpt lat="44.66704071499407" lon="0.16252904199063778"><ele></ele><time>2017-7-15T17:28:27Z</time></trkpt>
<trkpt lat="44.667207431048155" lon="0.16325910575687885"><ele></ele><time>2017-7-15T17:28:30Z</time></trkpt>
<trkpt lat="44.66747154481709" lon="0.16398875042796135"><ele></ele><time>2017-7-15T17:28:33Z</time></trkpt>
<trkpt lat="44.667575815692544" lon="0.1642308197915554"><ele></ele><time>2017-7-15T17:28:36Z</time></trkpt>
<trkpt lat="44.667509850114584" lon="0.1645047403872013"><ele></ele><time>2017-7-15T17:28:39Z</time></trkpt>
<trkpt lat="44.66746081598103" lon="0.16463784500956535"><ele></ele><time>2017-7-15T17:28:42Z</time></trkpt>
<trkpt lat="44.66744254343212" lon="0.1647463906556368"><ele></ele><time>2017-7-15T17:28:45Z</time></trkpt>
<trkpt lat="44.66757916845381" lon="0.16551333479583263"><ele></ele><time>2017-7-15T17:28:48Z</time></trkpt>
<trkpt lat="44.66771386563778" lon="0.1662945281714201"><ele></ele><time>2017-7-15T17:28:51Z</time></trkpt>
<trkpt lat="44.667825596407056" lon="0.16703573986887932"><ele></ele><time>2017-7-15T17:28:54Z</time></trkpt>
<trkpt lat="44.66789172962308" lon="0.16751283779740334"><ele></ele><time>2017-7-15T17:28:57Z</time></trkpt>
<trkpt lat="44.66777463443577" lon="0.16784953884780407"><ele></ele><time>2017-7-15T17:29:0Z</time></trkpt>
<trkpt lat="44.6674504224211" lon="0.16848505474627018"><ele></ele><time>2017-7-15T17:29:3Z</time></trkpt>
<trkpt lat="44.6671306528151" lon="0.1691059023141861"><ele></ele><time>2017-7-15T17:29:6Z</time></trkpt>
<trkpt lat="44.666937701404095" lon="0.16948132775723934"><ele></ele><time>2017-7-15T17:29:9Z</time></trkpt>
<trkpt lat="44.6664556581527" lon="0.1699281670153141"><ele></ele><time>2017-7-15T17:29:12Z</time></trkpt>
<trkpt lat="44.66596649028361" lon="0.1702809613198042"><ele></ele><time>2017-7-15T17:29:15Z</time></trkpt>
<trkpt lat="44.665417559444904" lon="0.17049570567905903"><ele></ele><time>2017-7-15T17:29:18Z</time></trkpt>
<trkpt lat="44.664858067408204" lon="0.1705467514693737"><ele></ele><time>2017-7-15T17:29:21Z</time></trkpt>
<trkpt lat="44.6643022634089" lon="0.1706801075488329"><ele></ele><time>2017-7-15T17:29:24Z</time></trkpt>
<trkpt lat="44.66376766562462" lon="0.170948076993227"><ele></ele><time>2017-7-15T17:29:27Z</time></trkpt>
<trkpt lat="44.66327715665102" lon="0.17126809805631638"><ele></ele><time>2017-7-15T17:29:30Z</time></trkpt>
<trkpt lat="44.662771224975586" lon="0.17156196758151054"><ele></ele><time>2017-7-15T17:29:33Z</time></trkpt>
<trkpt lat="44.662256659939885" lon="0.1718378160148859"><ele></ele><time>2017-7-15T17:29:36Z</time></trkpt>
<trkpt lat="44.66175416484475" lon="0.1721318531781435"><ele></ele><time>2017-7-15T17:29:39Z</time></trkpt>
<trkpt lat="44.66123624704778" lon="0.17243603244423866"><ele></ele><time>2017-7-15T17:29:42Z</time></trkpt>
<trkpt lat="44.66071774251759" lon="0.17275337129831314"><ele></ele><time>2017-7-15T17:29:45Z</time></trkpt>
<trkpt lat="44.66021331958473" lon="0.1731516793370247"><ele></ele><time>2017-7-15T17:29:48Z</time></trkpt>
<trkpt lat="44.66013293713331" lon="0.17327690497040749"><ele></ele><time>2017-7-15T17:29:51Z</time></trkpt>
<trkpt lat="44.65978877618909" lon="0.17389129847288132"><ele></ele><time>2017-7-15T17:29:54Z</time></trkpt>
<trkpt lat="44.65941988863051" lon="0.1745310053229332"><ele></ele><time>2017-7-15T17:29:57Z</time></trkpt>
<trkpt lat="44.65906089171767" lon="0.1751947682350874"><ele></ele><time>2017-7-15T17:30:0Z</time></trkpt>
<trkpt lat="44.658777164295316" lon="0.17591703683137894"><ele></ele><time>2017-7-15T17:30:3Z</time></trkpt>
<trkpt lat="44.6585205104202" lon="0.17663653939962387"><ele></ele><time>2017-7-15T17:30:6Z</time></trkpt>
<trkpt lat="44.65827408246696" lon="0.17733785323798656"><ele></ele><time>2017-7-15T17:30:9Z</time></trkpt>
<trkpt lat="44.65802631340921" lon="0.17803212627768517"><ele></ele><time>2017-7-15T17:30:12Z</time></trkpt>
<trkpt lat="44.65777460485697" lon="0.17871801741421223"><ele></ele><time>2017-7-15T17:30:15Z</time></trkpt>
<trkpt lat="44.65750973671675" lon="0.1794039085507393"><ele></ele><time>2017-7-15T17:30:18Z</time></trkpt>
<trkpt lat="44.657167587429285" lon="0.1800165418535471"><ele></ele><time>2017-7-15T17:30:21Z</time></trkpt>
<trkpt lat="44.65672569349408" lon="0.18049389123916626"><ele></ele><time>2017-7-15T17:30:24Z</time></trkpt>
<trkpt lat="44.656237699091434" lon="0.18085925839841366"><ele></ele><time>2017-7-15T17:30:27Z</time></trkpt>
<trkpt lat="44.65572355315089" lon="0.1811927743256092"><ele></ele><time>2017-7-15T17:30:30Z</time></trkpt>
<trkpt lat="44.65524352155626" lon="0.18165763467550278"><ele></ele><time>2017-7-15T17:30:33Z</time></trkpt>
<trkpt lat="44.654926769435406" lon="0.18213121220469475"><ele></ele><time>2017-7-15T17:30:36Z</time></trkpt>
<trkpt lat="44.654608089476824" lon="0.18277049995958805"><ele></ele><time>2017-7-15T17:30:39Z</time></trkpt>
<trkpt lat="44.65435772202909" lon="0.1834444049745798"><ele></ele><time>2017-7-15T17:30:42Z</time></trkpt>
<trkpt lat="44.6541241183877" lon="0.18414362333714962"><ele></ele><time>2017-7-15T17:30:45Z</time></trkpt>
<trkpt lat="44.65387852862477" lon="0.18488936126232147"><ele></ele><time>2017-7-15T17:30:48Z</time></trkpt>
<trkpt lat="44.653633860871196" lon="0.18564163707196712"><ele></ele><time>2017-7-15T17:30:51Z</time></trkpt>
<trkpt lat="44.653335213661194" lon="0.18635636195540428"><ele></ele><time>2017-7-15T17:30:54Z</time></trkpt>
<trkpt lat="44.653014270588756" lon="0.18706044182181358"><ele></ele><time>2017-7-15T17:30:57Z</time></trkpt>
<trkpt lat="44.65271545574069" lon="0.18774365074932575"><ele></ele><time>2017-7-15T17:31:0Z</time></trkpt>
<trkpt lat="44.65241982601583" lon="0.18840364180505276"><ele></ele><time>2017-7-15T17:31:3Z</time></trkpt>
<trkpt lat="44.65211790986359" lon="0.18906975165009499"><ele></ele><time>2017-7-15T17:31:6Z</time></trkpt>
<trkpt lat="44.65183770284057" lon="0.18972722813487053"><ele></ele><time>2017-7-15T17:31:9Z</time></trkpt>
<trkpt lat="44.65155489742756" lon="0.19042468629777431"><ele></ele><time>2017-7-15T17:31:12Z</time></trkpt>
<trkpt lat="44.651376362890005" lon="0.19119272008538246"><ele></ele><time>2017-7-15T17:31:15Z</time></trkpt>
<trkpt lat="44.651256669312716" lon="0.1919422298669815"><ele></ele><time>2017-7-15T17:31:18Z</time></trkpt>
<trkpt lat="44.651196571066976" lon="0.19223199225962162"><ele></ele><time>2017-7-15T17:31:21Z</time></trkpt>
<trkpt lat="44.65119279921055" lon="0.19225412048399448"><ele></ele><time>2017-7-15T17:31:24Z</time></trkpt>
<trkpt lat="44.65113270096481" lon="0.19263910129666328"><ele></ele><time>2017-7-15T17:31:27Z</time></trkpt>
<trkpt lat="44.65102097019553" lon="0.1934074703603983"><ele></ele><time>2017-7-15T17:31:30Z</time></trkpt>
<trkpt lat="44.65090203098953" lon="0.1941475085914135"><ele></ele><time>2017-7-15T17:31:33Z</time></trkpt>
<trkpt lat="44.65077697299421" lon="0.19493180327117443"><ele></ele><time>2017-7-15T17:31:36Z</time></trkpt>
<trkpt lat="44.65065920725465" lon="0.1956715900450945"><ele></ele><time>2017-7-15T17:31:39Z</time></trkpt>
<trkpt lat="44.65053766965866" lon="0.1964411325752735"><ele></ele><time>2017-7-15T17:31:42Z</time></trkpt>
<trkpt lat="44.65041588060558" lon="0.19721847027540207"><ele></ele><time>2017-7-15T17:31:45Z</time></trkpt>
<trkpt lat="44.65029677376151" lon="0.1979777030646801"><ele></ele><time>2017-7-15T17:31:48Z</time></trkpt>
<trkpt lat="44.65017406269908" lon="0.19874867051839828"><ele></ele><time>2017-7-15T17:31:51Z</time></trkpt>
<trkpt lat="44.650051183998585" lon="0.19950740039348602"><ele></ele><time>2017-7-15T17:31:54Z</time></trkpt>
<trkpt lat="44.6499312389642" lon="0.2002505399286747"><ele></ele><time>2017-7-15T17:31:57Z</time></trkpt>
<trkpt lat="44.64980316348374" lon="0.20101061090826988"><ele></ele><time>2017-7-15T17:32:0Z</time></trkpt>
<trkpt lat="44.649632927030325" lon="0.20176179707050323"><ele></ele><time>2017-7-15T17:32:3Z</time></trkpt>
<trkpt lat="44.64946763589978" lon="0.20250284112989902"><ele></ele><time>2017-7-15T17:32:6Z</time></trkpt>
<trkpt lat="44.649278121069074" lon="0.203291242942214"><ele></ele><time>2017-7-15T17:32:9Z</time></trkpt>
<trkpt lat="44.649100340902805" lon="0.20409238524734974"><ele></ele><time>2017-7-15T17:32:12Z</time></trkpt>
<trkpt lat="44.64893018826842" lon="0.20482311956584454"><ele></ele><time>2017-7-15T17:32:15Z</time></trkpt>
<trkpt lat="44.648753330111504" lon="0.20558235235512257"><ele></ele><time>2017-7-15T17:32:18Z</time></trkpt>
<trkpt lat="44.648579992353916" lon="0.20633798092603683"><ele></ele><time>2017-7-15T17:32:21Z</time></trkpt>
<trkpt lat="44.648414785042405" lon="0.2070614229887724"><ele></ele><time>2017-7-15T17:32:24Z</time></trkpt>
<trkpt lat="44.648247230798006" lon="0.20779752172529697"><ele></ele><time>2017-7-15T17:32:27Z</time></trkpt>
<trkpt lat="44.64807137846947" lon="0.20854887552559376"><ele></ele><time>2017-7-15T17:32:30Z</time></trkpt>
<trkpt lat="44.64790348894894" lon="0.20929092541337013"><ele></ele><time>2017-7-15T17:32:33Z</time></trkpt>
<trkpt lat="44.64773006737232" lon="0.21002023480832577"><ele></ele><time>2017-7-15T17:32:36Z</time></trkpt>
<trkpt lat="44.64755304157734" lon="0.210784412920475"><ele></ele><time>2017-7-15T17:32:39Z</time></trkpt>
<trkpt lat="44.647379871457815" lon="0.21155571565032005"><ele></ele><time>2017-7-15T17:32:42Z</time></trkpt>
<trkpt lat="44.64719781652093" lon="0.21233255043625832"><ele></ele><time>2017-7-15T17:32:45Z</time></trkpt>
<trkpt lat="44.647026071324944" lon="0.21310829557478428"><ele></ele><time>2017-7-15T17:32:48Z</time></trkpt>
<trkpt lat="44.646841334179044" lon="0.21390323527157307"><ele></ele><time>2017-7-15T17:32:51Z</time></trkpt>
<trkpt lat="44.64666908606887" lon="0.2146358136087656"><ele></ele><time>2017-7-15T17:32:54Z</time></trkpt>
<trkpt lat="44.64649532921612" lon="0.21537920460104942"><ele></ele><time>2017-7-15T17:32:57Z</time></trkpt>
<trkpt lat="44.64631914161146" lon="0.21614665165543556"><ele></ele><time>2017-7-15T17:33:0Z</time></trkpt>
<trkpt lat="44.64613423682749" lon="0.2169434353709221"><ele></ele><time>2017-7-15T17:33:3Z</time></trkpt>
<trkpt lat="44.64595528319478" lon="0.21773594431579113"><ele></ele><time>2017-7-15T17:33:6Z</time></trkpt>
<trkpt lat="44.645776664838195" lon="0.21851898171007633"><ele></ele><time>2017-7-15T17:33:9Z</time></trkpt>
<trkpt lat="44.64559360407293" lon="0.21930763497948647"><ele></ele><time>2017-7-15T17:33:12Z</time></trkpt>
<trkpt lat="44.64540568180382" lon="0.2201098669320345"><ele></ele><time>2017-7-15T17:33:15Z</time></trkpt>
<trkpt lat="44.64523904956877" lon="0.2208456303924322"><ele></ele><time>2017-7-15T17:33:18Z</time></trkpt>
<trkpt lat="44.645010055974126" lon="0.22153789177536964"><ele></ele><time>2017-7-15T17:33:21Z</time></trkpt>
<trkpt lat="44.64463295415044" lon="0.22219352424144745"><ele></ele><time>2017-7-15T17:33:24Z</time></trkpt>
<trkpt lat="44.64424604550004" lon="0.22277799434959888"><ele></ele><time>2017-7-15T17:33:27Z</time></trkpt>
<trkpt lat="44.64383860118687" lon="0.2234021108597517"><ele></ele><time>2017-7-15T17:33:30Z</time></trkpt>
<trkpt lat="44.64345688931644" lon="0.2239460125565529"><ele></ele><time>2017-7-15T17:33:33Z</time></trkpt>
<trkpt lat="44.64302312582731" lon="0.22444230504333973"><ele></ele><time>2017-7-15T17:33:36Z</time></trkpt>
<trkpt lat="44.64254057966173" lon="0.2249415311962366"><ele></ele><time>2017-7-15T17:33:39Z</time></trkpt>
<trkpt lat="44.64215409010649" lon="0.22542751394212246"><ele></ele><time>2017-7-15T17:33:42Z</time></trkpt>
<trkpt lat="44.64203213341534" lon="0.22576220333576202"><ele></ele><time>2017-7-15T17:33:45Z</time></trkpt>
<trkpt lat="44.64186089113355" lon="0.22654381580650806"><ele></ele><time>2017-7-15T17:33:48Z</time></trkpt>
<trkpt lat="44.64183968491852" lon="0.22662436589598656"><ele></ele><time>2017-7-15T17:33:51Z</time></trkpt>
<trkpt lat="44.64156257919967" lon="0.22728108800947666"><ele></ele><time>2017-7-15T17:33:54Z</time></trkpt>
<trkpt lat="44.64123669080436" lon="0.22795968689024448"><ele></ele><time>2017-7-15T17:33:57Z</time></trkpt>
<trkpt lat="44.64093276299536" lon="0.22859646007418633"><ele></ele><time>2017-7-15T17:34:0Z</time></trkpt>
<trkpt lat="44.640667559579015" lon="0.22925879806280136"><ele></ele><time>2017-7-15T17:34:3Z</time></trkpt>
<trkpt lat="44.64054116047919" lon="0.2300153486430645"><ele></ele><time>2017-7-15T17:34:6Z</time></trkpt>
<trkpt lat="44.64044242165983" lon="0.23077701218426228"><ele></ele><time>2017-7-15T17:34:9Z</time></trkpt>
<trkpt lat="44.64016548357904" lon="0.23146390914916992"><ele></ele><time>2017-7-15T17:34:12Z</time></trkpt>
<trkpt lat="44.63982107117772" lon="0.23209607228636742"><ele></ele><time>2017-7-15T17:34:15Z</time></trkpt>
<trkpt lat="44.63946383446455" lon="0.23272203281521797"><ele></ele><time>2017-7-15T17:34:18Z</time></trkpt>
<trkpt lat="44.63911967352033" lon="0.23333600722253323"><ele></ele><time>2017-7-15T17:34:21Z</time></trkpt>
<trkpt lat="44.639081954956055" lon="0.23341907188296318"><ele></ele><time>2017-7-15T17:34:24Z</time></trkpt>
<trkpt lat="44.63899428024888" lon="0.2336778212338686"><ele></ele><time>2017-7-15T17:34:27Z</time></trkpt>
<trkpt lat="44.638865953311324" lon="0.2344493754208088"><ele></ele><time>2017-7-15T17:34:30Z</time></trkpt>
<trkpt lat="44.6387530490756" lon="0.2352775912731886"><ele></ele><time>2017-7-15T17:34:33Z</time></trkpt>
<trkpt lat="44.63863964192569" lon="0.23605350404977798"><ele></ele><time>2017-7-15T17:34:36Z</time></trkpt>
<trkpt lat="44.63851408101618" lon="0.23679781705141068"><ele></ele><time>2017-7-15T17:34:39Z</time></trkpt>
<trkpt lat="44.63836831972003" lon="0.23760356940329075"><ele></ele><time>2017-7-15T17:34:42Z</time></trkpt>
<trkpt lat="44.638215685263276" lon="0.23835609667003155"><ele></ele><time>2017-7-15T17:34:45Z</time></trkpt>
<trkpt lat="44.638037234544754" lon="0.23913972079753876"><ele></ele><time>2017-7-15T17:34:48Z</time></trkpt>
<trkpt lat="44.63771369308233" lon="0.23980465717613697"><ele></ele><time>2017-7-15T17:34:51Z</time></trkpt>
<trkpt lat="44.63729191571474" lon="0.2403172105550766"><ele></ele><time>2017-7-15T17:34:54Z</time></trkpt>
<trkpt lat="44.63682177476585" lon="0.24080269038677216"><ele></ele><time>2017-7-15T17:34:57Z</time></trkpt>
<trkpt lat="44.63634987361729" lon="0.241234777495265"><ele></ele><time>2017-7-15T17:35:0Z</time></trkpt>
<trkpt lat="44.63613102212548" lon="0.24155471473932266"><ele></ele><time>2017-7-15T17:35:3Z</time></trkpt>
<trkpt lat="44.63598811067641" lon="0.241958973929286"><ele></ele><time>2017-7-15T17:35:6Z</time></trkpt>
<trkpt lat="44.63580848649144" lon="0.24277537129819393"><ele></ele><time>2017-7-15T17:35:9Z</time></trkpt>
<trkpt lat="44.63563456200063" lon="0.2435082010924816"><ele></ele><time>2017-7-15T17:35:12Z</time></trkpt>
<trkpt lat="44.635470947250724" lon="0.24430666118860245"><ele></ele><time>2017-7-15T17:35:15Z</time></trkpt>
<trkpt lat="44.6353218331933" lon="0.24505692534148693"><ele></ele><time>2017-7-15T17:35:18Z</time></trkpt>
<trkpt lat="44.6352771576494" lon="0.24587935768067837"><ele></ele><time>2017-7-15T17:35:21Z</time></trkpt>
<trkpt lat="44.6352634113282" lon="0.24670212529599667"><ele></ele><time>2017-7-15T17:35:24Z</time></trkpt>
<trkpt lat="44.635260896757245" lon="0.24751374498009682"><ele></ele><time>2017-7-15T17:35:27Z</time></trkpt>
<trkpt lat="44.63521605357528" lon="0.2483325731009245"><ele></ele><time>2017-7-15T17:35:30Z</time></trkpt>
<trkpt lat="44.63511169888079" lon="0.24907780811190605"><ele></ele><time>2017-7-15T17:35:33Z</time></trkpt>
<trkpt lat="44.634995609521866" lon="0.24984894320368767"><ele></ele><time>2017-7-15T17:35:36Z</time></trkpt>
<trkpt lat="44.634888572618365" lon="0.2506020572036505"><ele></ele><time>2017-7-15T17:35:39Z</time></trkpt>
<trkpt lat="44.63478120043874" lon="0.25135223753750324"><ele></ele><time>2017-7-15T17:35:42Z</time></trkpt>
<trkpt lat="44.63466762565076" lon="0.25210870429873466"><ele></ele><time>2017-7-15T17:35:45Z</time></trkpt>
<trkpt lat="44.63454231619835" lon="0.25288830511271954"><ele></ele><time>2017-7-15T17:35:48Z</time></trkpt>
<trkpt lat="44.63439144194126" lon="0.25363882072269917"><ele></ele><time>2017-7-15T17:35:51Z</time></trkpt>
<trkpt lat="44.634205028414726" lon="0.25441682897508144"><ele></ele><time>2017-7-15T17:35:54Z</time></trkpt>
<trkpt lat="44.63404065929353" lon="0.25513792410492897"><ele></ele><time>2017-7-15T17:35:57Z</time></trkpt>
<trkpt lat="44.633862879127264" lon="0.25589078664779663"><ele></ele><time>2017-7-15T17:36:0Z</time></trkpt>
<trkpt lat="44.63366087526083" lon="0.25662973523139954"><ele></ele><time>2017-7-15T17:36:3Z</time></trkpt>
<trkpt lat="44.63338133879006" lon="0.25735393166542053"><ele></ele><time>2017-7-15T17:36:6Z</time></trkpt>
<trkpt lat="44.63310766965151" lon="0.25802314281463623"><ele></ele><time>2017-7-15T17:36:9Z</time></trkpt>
<trkpt lat="44.63283131830394" lon="0.2586818765848875"><ele></ele><time>2017-7-15T17:36:12Z</time></trkpt>
<trkpt lat="44.63253694586456" lon="0.25939760729670525"><ele></ele><time>2017-7-15T17:36:15Z</time></trkpt>
<trkpt lat="44.63230409659445" lon="0.2601253241300583"><ele></ele><time>2017-7-15T17:36:18Z</time></trkpt>
<trkpt lat="44.63210117071867" lon="0.26093258522450924"><ele></ele><time>2017-7-15T17:36:21Z</time></trkpt>
<trkpt lat="44.63192087598145" lon="0.26166893541812897"><ele></ele><time>2017-7-15T17:36:24Z</time></trkpt>
<trkpt lat="44.63173856958747" lon="0.262428754940629"><ele></ele><time>2017-7-15T17:36:27Z</time></trkpt>
<trkpt lat="44.6315607894212" lon="0.2631441503763199"><ele></ele><time>2017-7-15T17:36:30Z</time></trkpt>
<trkpt lat="44.63136197067797" lon="0.2639359887689352"><ele></ele><time>2017-7-15T17:36:33Z</time></trkpt>
<trkpt lat="44.631174970418215" lon="0.26471751742064953"><ele></ele><time>2017-7-15T17:36:36Z</time></trkpt>
<trkpt lat="44.63095695711672" lon="0.26545428670942783"><ele></ele><time>2017-7-15T17:36:39Z</time></trkpt>
<trkpt lat="44.630675576627254" lon="0.2661358192563057"><ele></ele><time>2017-7-15T17:36:42Z</time></trkpt>
<trkpt lat="44.63040844537318" lon="0.2668057009577751"><ele></ele><time>2017-7-15T17:36:45Z</time></trkpt>
<trkpt lat="44.63024768047035" lon="0.26753878220915794"><ele></ele><time>2017-7-15T17:36:48Z</time></trkpt>
<trkpt lat="44.630142068490386" lon="0.26836104691028595"><ele></ele><time>2017-7-15T17:36:51Z</time></trkpt>
<trkpt lat="44.630046179518104" lon="0.26917518116533756"><ele></ele><time>2017-7-15T17:36:54Z</time></trkpt>
<trkpt lat="44.629874685779214" lon="0.26991681195795536"><ele></ele><time>2017-7-15T17:36:57Z</time></trkpt>
<trkpt lat="44.629559526219964" lon="0.2705911360681057"><ele></ele><time>2017-7-15T17:37:0Z</time></trkpt>
<trkpt lat="44.629251239821315" lon="0.27123788371682167"><ele></ele><time>2017-7-15T17:37:3Z</time></trkpt>
<trkpt lat="44.62894018739462" lon="0.271924277767539"><ele></ele><time>2017-7-15T17:37:6Z</time></trkpt>
<trkpt lat="44.628686886280775" lon="0.27261368930339813"><ele></ele><time>2017-7-15T17:37:9Z</time></trkpt>
<trkpt lat="44.62850541807711" lon="0.2733817230910063"><ele></ele><time>2017-7-15T17:37:12Z</time></trkpt>
<trkpt lat="44.62842017412186" lon="0.2741614915430546"><ele></ele><time>2017-7-15T17:37:15Z</time></trkpt>
<trkpt lat="44.62832906283438" lon="0.27498903684318066"><ele></ele><time>2017-7-15T17:37:18Z</time></trkpt>
<trkpt lat="44.62825111113489" lon="0.2757434919476509"><ele></ele><time>2017-7-15T17:37:21Z</time></trkpt>
<trkpt lat="44.62815840728581" lon="0.2765437960624695"><ele></ele><time>2017-7-15T17:37:24Z</time></trkpt>
<trkpt lat="44.62806888855994" lon="0.27733379043638706"><ele></ele><time>2017-7-15T17:37:27Z</time></trkpt>
<trkpt lat="44.62799873203039" lon="0.2781273890286684"><ele></ele><time>2017-7-15T17:37:30Z</time></trkpt>
<trkpt lat="44.62799588218331" lon="0.278962729498744"><ele></ele><time>2017-7-15T17:37:33Z</time></trkpt>
<trkpt lat="44.6280706487596" lon="0.2797135803848505"><ele></ele><time>2017-7-15T17:37:36Z</time></trkpt>
<trkpt lat="44.6281832177192" lon="0.28055394999682903"><ele></ele><time>2017-7-15T17:37:39Z</time></trkpt>
<trkpt lat="44.62827751412988" lon="0.2813257556408644"><ele></ele><time>2017-7-15T17:37:42Z</time></trkpt>
<trkpt lat="44.628376588225365" lon="0.2820795401930809"><ele></ele><time>2017-7-15T17:37:45Z</time></trkpt>
<trkpt lat="44.628476835787296" lon="0.28285679407417774"><ele></ele><time>2017-7-15T17:37:48Z</time></trkpt>
<trkpt lat="44.628587057814" lon="0.28367863968014717"><ele></ele><time>2017-7-15T17:37:51Z</time></trkpt>
<trkpt lat="44.62869107723236" lon="0.284478273242712"><ele></ele><time>2017-7-15T17:37:54Z</time></trkpt>
<trkpt lat="44.62879643775523" lon="0.28529475443065166"><ele></ele><time>2017-7-15T17:37:57Z</time></trkpt>
<trkpt lat="44.62877171114087" lon="0.28588551096618176"><ele></ele><time>2017-7-15T17:38:0Z</time></trkpt>
<trkpt lat="44.62869786657393" lon="0.28610754758119583"><ele></ele><time>2017-7-15T17:38:3Z</time></trkpt>
<trkpt lat="44.62858839891851" lon="0.28636411763727665"><ele></ele><time>2017-7-15T17:38:6Z</time></trkpt>
<trkpt lat="44.62828271090984" lon="0.287061408162117"><ele></ele><time>2017-7-15T17:38:9Z</time></trkpt>
<trkpt lat="44.62800786830485" lon="0.2877462934702635"><ele></ele><time>2017-7-15T17:38:12Z</time></trkpt>
<trkpt lat="44.62772338651121" lon="0.28841148130595684"><ele></ele><time>2017-7-15T17:38:15Z</time></trkpt>
<trkpt lat="44.627684745937586" lon="0.28848406858742237"><ele></ele><time>2017-7-15T17:38:18Z</time></trkpt>
<trkpt lat="44.62765457108617" lon="0.2885704021900892"><ele></ele><time>2017-7-15T17:38:21Z</time></trkpt>
<trkpt lat="44.62764669209719" lon="0.2886098809540272"><ele></ele><time>2017-7-15T17:38:24Z</time></trkpt>
<trkpt lat="44.62755650281906" lon="0.2888714801520109"><ele></ele><time>2017-7-15T17:38:27Z</time></trkpt>
<trkpt lat="44.62739816866815" lon="0.28901983983814716"><ele></ele><time>2017-7-15T17:38:30Z</time></trkpt>
<trkpt lat="44.62730144150555" lon="0.2889842167496681"><ele></ele><time>2017-7-15T17:38:33Z</time></trkpt>
<trkpt lat="44.62717026472092" lon="0.2889595739543438"><ele></ele><time>2017-7-15T17:38:36Z</time></trkpt>
<trkpt lat="44.62664019316435" lon="0.28889243490993977"><ele></ele><time>2017-7-15T17:38:39Z</time></trkpt>
<trkpt lat="44.6266115270555" lon="0.2890864759683609"><ele></ele><time>2017-7-15T17:38:42Z</time></trkpt>
<trkpt lat="44.62651060894132" lon="0.28985132463276386"><ele></ele><time>2017-7-15T17:38:45Z</time></trkpt>
<trkpt lat="44.6263921726495" lon="0.29063922353088856"><ele></ele><time>2017-7-15T17:38:48Z</time></trkpt>
<trkpt lat="44.62627382017672" lon="0.29140541329979897"><ele></ele><time>2017-7-15T17:38:51Z</time></trkpt>
<trkpt lat="44.62622210383415" lon="0.2921597845852375"><ele></ele><time>2017-7-15T17:38:54Z</time></trkpt>
<trkpt lat="44.62634372524917" lon="0.2922866027802229"><ele></ele><time>2017-7-15T17:38:57Z</time></trkpt>
<trkpt lat="44.62685686536133" lon="0.2925519738346338"><ele></ele><time>2017-7-15T17:39:0Z</time></trkpt>
<trkpt lat="44.627384673804045" lon="0.29280141927301884"><ele></ele><time>2017-7-15T17:39:3Z</time></trkpt>
<trkpt lat="44.62743094190955" lon="0.29349577613174915"><ele></ele><time>2017-7-15T17:39:6Z</time></trkpt>
<trkpt lat="44.62734980508685" lon="0.29429884627461433"><ele></ele><time>2017-7-15T17:39:9Z</time></trkpt>
<trkpt lat="44.62729540653527" lon="0.29507811181247234"><ele></ele><time>2017-7-15T17:39:12Z</time></trkpt>
<trkpt lat="44.62726095691323" lon="0.2958331536501646"><ele></ele><time>2017-7-15T17:39:15Z</time></trkpt>
<trkpt lat="44.627208318561316" lon="0.29662775807082653"><ele></ele><time>2017-7-15T17:39:18Z</time></trkpt>
<trkpt lat="44.62715685367584" lon="0.2973979711532593"><ele></ele><time>2017-7-15T17:39:21Z</time></trkpt>
<trkpt lat="44.62711016647518" lon="0.2981717884540558"><ele></ele><time>2017-7-15T17:39:24Z</time></trkpt>
<trkpt lat="44.627068089321256" lon="0.2989815641194582"><ele></ele><time>2017-7-15T17:39:27Z</time></trkpt>
<trkpt lat="44.62702416814864" lon="0.2997868973761797"><ele></ele><time>2017-7-15T17:39:30Z</time></trkpt>
<trkpt lat="44.62697873823345" lon="0.30054453760385513"><ele></ele><time>2017-7-15T17:39:33Z</time></trkpt>
<trkpt lat="44.62690615095198" lon="0.3013387229293585"><ele></ele><time>2017-7-15T17:39:36Z</time></trkpt>
<trkpt lat="44.62672535330057" lon="0.3020702116191387"><ele></ele><time>2017-7-15T17:39:39Z</time></trkpt>
<trkpt lat="44.626518823206425" lon="0.30283120460808277"><ele></ele><time>2017-7-15T17:39:42Z</time></trkpt>
<trkpt lat="44.6263303142041" lon="0.3035589214414358"><ele></ele><time>2017-7-15T17:39:45Z</time></trkpt>
<trkpt lat="44.626130908727646" lon="0.3042682819068432"><ele></ele><time>2017-7-15T17:39:48Z</time></trkpt>
<trkpt lat="44.62592865340412" lon="0.3050204738974571"><ele></ele><time>2017-7-15T17:39:51Z</time></trkpt>
<trkpt lat="44.62571684271097" lon="0.3057702351361513"><ele></ele><time>2017-7-15T17:39:54Z</time></trkpt>
<trkpt lat="44.62551106698811" lon="0.30653776600956917"><ele></ele><time>2017-7-15T17:39:57Z</time></trkpt>
<trkpt lat="44.625293891876936" lon="0.3073115833103657"><ele></ele><time>2017-7-15T17:40:0Z</time></trkpt>
<trkpt lat="44.625104712322354" lon="0.3080293256789446"><ele></ele><time>2017-7-15T17:40:3Z</time></trkpt>
<trkpt lat="44.624976217746735" lon="0.3088043164461851"><ele></ele><time>2017-7-15T17:40:6Z</time></trkpt>
<trkpt lat="44.62493338622153" lon="0.3095860965549946"><ele></ele><time>2017-7-15T17:40:9Z</time></trkpt>
<trkpt lat="44.62495509535074" lon="0.31039511784911156"><ele></ele><time>2017-7-15T17:40:12Z</time></trkpt>
<trkpt lat="44.62498920969665" lon="0.31120372004806995"><ele></ele><time>2017-7-15T17:40:15Z</time></trkpt>
<trkpt lat="44.62502617388964" lon="0.31198013573884964"><ele></ele><time>2017-7-15T17:40:18Z</time></trkpt>
<trkpt lat="44.6250506490469" lon="0.3127504326403141"><ele></ele><time>2017-7-15T17:40:21Z</time></trkpt>
<trkpt lat="44.62508241645992" lon="0.3135313745588064"><ele></ele><time>2017-7-15T17:40:24Z</time></trkpt>
<trkpt lat="44.62510881945491" lon="0.3143514599651098"><ele></ele><time>2017-7-15T17:40:27Z</time></trkpt>
<trkpt lat="44.6251386590302" lon="0.31511781737208366"><ele></ele><time>2017-7-15T17:40:30Z</time></trkpt>
<trkpt lat="44.62517294101417" lon="0.3159398306161165"><ele></ele><time>2017-7-15T17:40:33Z</time></trkpt>
<trkpt lat="44.625189285725355" lon="0.31671750359237194"><ele></ele><time>2017-7-15T17:40:36Z</time></trkpt>
<trkpt lat="44.62519456632435" lon="0.31753054820001125"><ele></ele><time>2017-7-15T17:40:39Z</time></trkpt>
<trkpt lat="44.62512558326125" lon="0.31832272186875343"><ele></ele><time>2017-7-15T17:40:42Z</time></trkpt>
<trkpt lat="44.624991808086634" lon="0.31911497935652733"><ele></ele><time>2017-7-15T17:40:45Z</time></trkpt>
<trkpt lat="44.62477815337479" lon="0.31987513415515423"><ele></ele><time>2017-7-15T17:40:48Z</time></trkpt>
<trkpt lat="44.624554021283984" lon="0.32057812437415123"><ele></ele><time>2017-7-15T17:40:51Z</time></trkpt>
<trkpt lat="44.624316645786166" lon="0.3213341720402241"><ele></ele><time>2017-7-15T17:40:54Z</time></trkpt>
<trkpt lat="44.62408807128668" lon="0.32203766517341137"><ele></ele><time>2017-7-15T17:40:57Z</time></trkpt>
<trkpt lat="44.62385161779821" lon="0.3227827325463295"><ele></ele><time>2017-7-15T17:41:0Z</time></trkpt>
<trkpt lat="44.62363167665899" lon="0.32349175773561"><ele></ele><time>2017-7-15T17:41:3Z</time></trkpt>
<trkpt lat="44.623357839882374" lon="0.32418854534626007"><ele></ele><time>2017-7-15T17:41:6Z</time></trkpt>
<trkpt lat="44.623025162145495" lon="0.32486789859831333"><ele></ele><time>2017-7-15T17:41:9Z</time></trkpt>
<trkpt lat="44.62270773947239" lon="0.3255231957882643"><ele></ele><time>2017-7-15T17:41:12Z</time></trkpt>
<trkpt lat="44.62238805368543" lon="0.3261816781014204"><ele></ele><time>2017-7-15T17:41:15Z</time></trkpt>
<trkpt lat="44.62208001874387" lon="0.32681677490472794"><ele></ele><time>2017-7-15T17:41:18Z</time></trkpt>
<trkpt lat="44.62177005596459" lon="0.327447010204196"><ele></ele><time>2017-7-15T17:41:21Z</time></trkpt>
<trkpt lat="44.62145741097629" lon="0.3280918300151825"><ele></ele><time>2017-7-15T17:41:24Z</time></trkpt>
<trkpt lat="44.621144849807024" lon="0.3287382423877716"><ele></ele><time>2017-7-15T17:41:27Z</time></trkpt>
<trkpt lat="44.620830276980996" lon="0.3293855767697096"><ele></ele><time>2017-7-15T17:41:30Z</time></trkpt>
<trkpt lat="44.62050883099437" lon="0.3300489205867052"><ele></ele><time>2017-7-15T17:41:33Z</time></trkpt>
<trkpt lat="44.62019048631191" lon="0.33071612007915974"><ele></ele><time>2017-7-15T17:41:36Z</time></trkpt>
<trkpt lat="44.61985722184181" lon="0.3313883487135172"><ele></ele><time>2017-7-15T17:41:39Z</time></trkpt>
<trkpt lat="44.619534853845835" lon="0.3320430591702461"><ele></ele><time>2017-7-15T17:41:42Z</time></trkpt>
<trkpt lat="44.61922673508525" lon="0.33269332721829414"><ele></ele><time>2017-7-15T17:41:45Z</time></trkpt>
<trkpt lat="44.6189099829644" lon="0.3333253227174282"><ele></ele><time>2017-7-15T17:41:48Z</time></trkpt>
<trkpt lat="44.618546376004815" lon="0.333903506398201"><ele></ele><time>2017-7-15T17:41:51Z</time></trkpt>
<trkpt lat="44.618142787367105" lon="0.3344650100916624"><ele></ele><time>2017-7-15T17:41:54Z</time></trkpt>
<trkpt lat="44.61772042326629" lon="0.3350518271327019"><ele></ele><time>2017-7-15T17:41:57Z</time></trkpt>
<trkpt lat="44.617315074428916" lon="0.33561534248292446"><ele></ele><time>2017-7-15T17:42:0Z</time></trkpt>
<trkpt lat="44.61691215634346" lon="0.33617567270994186"><ele></ele><time>2017-7-15T17:42:3Z</time></trkpt>
<trkpt lat="44.616479482501745" lon="0.3367709554731846"><ele></ele><time>2017-7-15T17:42:6Z</time></trkpt>
<trkpt lat="44.61608360521495" lon="0.3373095765709877"><ele></ele><time>2017-7-15T17:42:9Z</time></trkpt>
<trkpt lat="44.6156772505492" lon="0.3378716669976711"><ele></ele><time>2017-7-15T17:42:12Z</time></trkpt>
<trkpt lat="44.61538120172918" lon="0.33853350207209587"><ele></ele><time>2017-7-15T17:42:15Z</time></trkpt>
<trkpt lat="44.615322444587946" lon="0.33933171071112156"><ele></ele><time>2017-7-15T17:42:18Z</time></trkpt>
<trkpt lat="44.61527626030147" lon="0.3401155862957239"><ele></ele><time>2017-7-15T17:42:21Z</time></trkpt>
<trkpt lat="44.61523083038628" lon="0.34093248657882214"><ele></ele><time>2017-7-15T17:42:24Z</time></trkpt>
<trkpt lat="44.6152504440397" lon="0.3417420107871294"><ele></ele><time>2017-7-15T17:42:27Z</time></trkpt>
<trkpt lat="44.61537298746407" lon="0.3425009921193123"><ele></ele><time>2017-7-15T17:42:30Z</time></trkpt>
<trkpt lat="44.61545697413385" lon="0.34313575364649296"><ele></ele><time>2017-7-15T17:42:33Z</time></trkpt>
<trkpt lat="44.61540475487709" lon="0.343970088288188"><ele></ele><time>2017-7-15T17:42:36Z</time></trkpt>
<trkpt lat="44.615316577255726" lon="0.3445393033325672"><ele></ele><time>2017-7-15T17:42:39Z</time></trkpt>
<trkpt lat="44.61517609655857" lon="0.3448152355849743"><ele></ele><time>2017-7-15T17:42:42Z</time></trkpt>
<trkpt lat="44.614757085219026" lon="0.34534480422735214"><ele></ele><time>2017-7-15T17:42:45Z</time></trkpt>
<trkpt lat="44.61435232311487" lon="0.3458493109792471"><ele></ele><time>2017-7-15T17:42:48Z</time></trkpt>
<trkpt lat="44.61394437588751" lon="0.3463487047702074"><ele></ele><time>2017-7-15T17:42:51Z</time></trkpt>
<trkpt lat="44.6135117020458" lon="0.3468878287822008"><ele></ele><time>2017-7-15T17:42:54Z</time></trkpt>
<trkpt lat="44.61310333572328" lon="0.3473957721143961"><ele></ele><time>2017-7-15T17:42:57Z</time></trkpt>
<trkpt lat="44.61269714869559" lon="0.3479099180549383"><ele></ele><time>2017-7-15T17:43:0Z</time></trkpt>
<trkpt lat="44.612273862585425" lon="0.3484332002699375"><ele></ele><time>2017-7-15T17:43:3Z</time></trkpt>
<trkpt lat="44.61183087900281" lon="0.3489341866225004"><ele></ele><time>2017-7-15T17:43:6Z</time></trkpt>
<trkpt lat="44.61136995814741" lon="0.3493332490324974"><ele></ele><time>2017-7-15T17:43:9Z</time></trkpt>
<trkpt lat="44.61087903007865" lon="0.34971361979842186"><ele></ele><time>2017-7-15T17:43:12Z</time></trkpt>
<trkpt lat="44.6103809773922" lon="0.350089967250824"><ele></ele><time>2017-7-15T17:43:15Z</time></trkpt>
<trkpt lat="44.609880996868014" lon="0.350459273904562"><ele></ele><time>2017-7-15T17:43:18Z</time></trkpt>
<trkpt lat="44.60939317010343" lon="0.35080754198133945"><ele></ele><time>2017-7-15T17:43:21Z</time></trkpt>
<trkpt lat="44.60890609771013" lon="0.3511698916554451"><ele></ele><time>2017-7-15T17:43:24Z</time></trkpt>
<trkpt lat="44.60842849686742" lon="0.35153500735759735"><ele></ele><time>2017-7-15T17:43:27Z</time></trkpt>
<trkpt lat="44.60789876058698" lon="0.3519055712968111"><ele></ele><time>2017-7-15T17:43:30Z</time></trkpt>
<trkpt lat="44.6074106823653" lon="0.3522741235792637"><ele></ele><time>2017-7-15T17:43:33Z</time></trkpt>
<trkpt lat="44.60692226886749" lon="0.35263764671981335"><ele></ele><time>2017-7-15T17:43:36Z</time></trkpt>
<trkpt lat="44.60642706602812" lon="0.3530588373541832"><ele></ele><time>2017-7-15T17:43:39Z</time></trkpt>
<trkpt lat="44.606012580916286" lon="0.3535495139658451"><ele></ele><time>2017-7-15T17:43:42Z</time></trkpt>
<trkpt lat="44.60562005639076" lon="0.3541592974215746"><ele></ele><time>2017-7-15T17:43:45Z</time></trkpt>
<trkpt lat="44.605268351733685" lon="0.3547435160726309"><ele></ele><time>2017-7-15T17:43:48Z</time></trkpt>
<trkpt lat="44.604887729510665" lon="0.35533309914171696"><ele></ele><time>2017-7-15T17:43:51Z</time></trkpt>
<trkpt lat="44.6045006532222" lon="0.3559780027717352"><ele></ele><time>2017-7-15T17:43:54Z</time></trkpt>
<trkpt lat="44.60410770960152" lon="0.35664981231093407"><ele></ele><time>2017-7-15T17:43:57Z</time></trkpt>
<trkpt lat="44.603868909180164" lon="0.357054490596056"><ele></ele><time>2017-7-15T17:44:0Z</time></trkpt>
<trkpt lat="44.60373337380588" lon="0.35719639621675014"><ele></ele><time>2017-7-15T17:44:3Z</time></trkpt>
<trkpt lat="44.603608064353466" lon="0.3574515413492918"><ele></ele><time>2017-7-15T17:44:6Z</time></trkpt>
<trkpt lat="44.60323163308203" lon="0.3580853808671236"><ele></ele><time>2017-7-15T17:44:9Z</time></trkpt>
<trkpt lat="44.602877497673035" lon="0.3586929012089968"><ele></ele><time>2017-7-15T17:44:12Z</time></trkpt>
<trkpt lat="44.60253467783332" lon="0.3592905309051275"><ele></ele><time>2017-7-15T17:44:15Z</time></trkpt>
<trkpt lat="44.60251908749342" lon="0.359629662707448"><ele></ele><time>2017-7-15T17:44:18Z</time></trkpt>
<trkpt lat="44.60300448350608" lon="0.36009435541927814"><ele></ele><time>2017-7-15T17:44:21Z</time></trkpt>
<trkpt lat="44.60345677100122" lon="0.3605358302593231"><ele></ele><time>2017-7-15T17:44:24Z</time></trkpt>
<trkpt lat="44.60342299193144" lon="0.36090605892241"><ele></ele><time>2017-7-15T17:44:27Z</time></trkpt>
<trkpt lat="44.6031004562974" lon="0.3616122342646122"><ele></ele><time>2017-7-15T17:44:30Z</time></trkpt>
<trkpt lat="44.602821338921785" lon="0.36225931718945503"><ele></ele><time>2017-7-15T17:44:33Z</time></trkpt>
<trkpt lat="44.60251020267606" lon="0.3629652410745621"><ele></ele><time>2017-7-15T17:44:36Z</time></trkpt>
<trkpt lat="44.60220878943801" lon="0.36365557461977005"><ele></ele><time>2017-7-15T17:44:39Z</time></trkpt>
<trkpt lat="44.602003851905465" lon="0.36401507444679737"><ele></ele><time>2017-7-15T17:44:42Z</time></trkpt>
<trkpt lat="44.60151116363704" lon="0.3637042734771967"><ele></ele><time>2017-7-15T17:44:45Z</time></trkpt>
<trkpt lat="44.60102962329984" lon="0.36333052441477776"><ele></ele><time>2017-7-15T17:44:48Z</time></trkpt>
<trkpt lat="44.60061849094927" lon="0.36303975619375706"><ele></ele><time>2017-7-15T17:44:51Z</time></trkpt>
<trkpt lat="44.60048102773726" lon="0.36319591104984283"><ele></ele><time>2017-7-15T17:44:54Z</time></trkpt>
<trkpt lat="44.60016687400639" lon="0.3638174291700125"><ele></ele><time>2017-7-15T17:44:57Z</time></trkpt>
<trkpt lat="44.599844170734286" lon="0.36443693563342094"><ele></ele><time>2017-7-15T17:45:0Z</time></trkpt>
<trkpt lat="44.59949833340943" lon="0.3650771453976631"><ele></ele><time>2017-7-15T17:45:3Z</time></trkpt>
<trkpt lat="44.59909189492464" lon="0.3656031936407089"><ele></ele><time>2017-7-15T17:45:6Z</time></trkpt>
<trkpt lat="44.59860507398844" lon="0.3659585025161505"><ele></ele><time>2017-7-15T17:45:9Z</time></trkpt>
<trkpt lat="44.59845755249262" lon="0.36604156717658043"><ele></ele><time>2017-7-15T17:45:12Z</time></trkpt>
<trkpt lat="44.59792396053672" lon="0.3662226162850857"><ele></ele><time>2017-7-15T17:45:15Z</time></trkpt>
<trkpt lat="44.597387267276645" lon="0.36635630764067173"><ele></ele><time>2017-7-15T17:45:18Z</time></trkpt>
<trkpt lat="44.59682324901223" lon="0.3665130492299795"><ele></ele><time>2017-7-15T17:45:21Z</time></trkpt>
<trkpt lat="44.596284376457334" lon="0.36664992570877075"><ele></ele><time>2017-7-15T17:45:24Z</time></trkpt>
<trkpt lat="44.595724046230316" lon="0.3668085113167763"><ele></ele><time>2017-7-15T17:45:27Z</time></trkpt>
<trkpt lat="44.59517017006874" lon="0.36695167422294617"><ele></ele><time>2017-7-15T17:45:30Z</time></trkpt>
<trkpt lat="44.59460933692753" lon="0.3670956753194332"><ele></ele><time>2017-7-15T17:45:33Z</time></trkpt>
<trkpt lat="44.59406057372689" lon="0.36724286153912544"><ele></ele><time>2017-7-15T17:45:36Z</time></trkpt>
<trkpt lat="44.593508541584015" lon="0.36739641800522804"><ele></ele><time>2017-7-15T17:45:39Z</time></trkpt>
<trkpt lat="44.59293756633997" lon="0.36755827255547047"><ele></ele><time>2017-7-15T17:45:42Z</time></trkpt>
<trkpt lat="44.592396849766374" lon="0.36769380792975426"><ele></ele><time>2017-7-15T17:45:45Z</time></trkpt>
<trkpt lat="44.59184154868126" lon="0.367856752127409"><ele></ele><time>2017-7-15T17:45:48Z</time></trkpt>
<trkpt lat="44.59127836860716" lon="0.3680066205561161"><ele></ele><time>2017-7-15T17:45:51Z</time></trkpt>
<trkpt lat="44.59073765203357" lon="0.3681535553187132"><ele></ele><time>2017-7-15T17:45:54Z</time></trkpt>
<trkpt lat="44.59016374312341" lon="0.3683190140873194"><ele></ele><time>2017-7-15T17:45:57Z</time></trkpt>
<trkpt lat="44.58963333629072" lon="0.3684656135737896"><ele></ele><time>2017-7-15T17:46:0Z</time></trkpt>
<trkpt lat="44.58907200023532" lon="0.36861564964056015"><ele></ele><time>2017-7-15T17:46:3Z</time></trkpt>
<trkpt lat="44.58853262476623" lon="0.3687630873173475"><ele></ele><time>2017-7-15T17:46:6Z</time></trkpt>
<trkpt lat="44.58795854821801" lon="0.36892217583954334"><ele></ele><time>2017-7-15T17:46:9Z</time></trkpt>
<trkpt lat="44.58736787550151" lon="0.36908562295138836"><ele></ele><time>2017-7-15T17:46:12Z</time></trkpt>
<trkpt lat="44.58677854388952" lon="0.3692525066435337"><ele></ele><time>2017-7-15T17:46:15Z</time></trkpt>
<trkpt lat="44.586210334673524" lon="0.36939164623618126"><ele></ele><time>2017-7-15T17:46:18Z</time></trkpt>
<trkpt lat="44.585650926455855" lon="0.36956029012799263"><ele></ele><time>2017-7-15T17:46:21Z</time></trkpt>
<trkpt lat="44.58508967421949" lon="0.3697092365473509"><ele></ele><time>2017-7-15T17:46:24Z</time></trkpt>
<trkpt lat="44.58455038256943" lon="0.3698540758341551"><ele></ele><time>2017-7-15T17:46:27Z</time></trkpt>
<trkpt lat="44.584008576348424" lon="0.3700040280818939"><ele></ele><time>2017-7-15T17:46:30Z</time></trkpt>
<trkpt lat="44.58347196690738" lon="0.3701536450535059"><ele></ele><time>2017-7-15T17:46:33Z</time></trkpt>
<trkpt lat="44.582913145422935" lon="0.3703165892511606"><ele></ele><time>2017-7-15T17:46:36Z</time></trkpt>
<trkpt lat="44.58238994702697" lon="0.37050895392894745"><ele></ele><time>2017-7-15T17:46:39Z</time></trkpt>
<trkpt lat="44.58180606365204" lon="0.3707890771329403"><ele></ele><time>2017-7-15T17:46:42Z</time></trkpt>
<trkpt lat="44.581288397312164" lon="0.37113407626748085"><ele></ele><time>2017-7-15T17:46:45Z</time></trkpt>
<trkpt lat="44.58078816533089" lon="0.3715095017105341"><ele></ele><time>2017-7-15T17:46:48Z</time></trkpt>
<trkpt lat="44.5802744384855" lon="0.37189850583672523"><ele></ele><time>2017-7-15T17:46:51Z</time></trkpt>
<trkpt lat="44.57976272329688" lon="0.37228038534522057"><ele></ele><time>2017-7-15T17:46:54Z</time></trkpt>
<trkpt lat="44.57927104085684" lon="0.3726403880864382"><ele></ele><time>2017-7-15T17:46:57Z</time></trkpt>
<trkpt lat="44.57878145389259" lon="0.37300835363566875"><ele></ele><time>2017-7-15T17:47:0Z</time></trkpt>
<trkpt lat="44.57825347781181" lon="0.3733918257057667"><ele></ele><time>2017-7-15T17:47:3Z</time></trkpt>
<trkpt lat="44.577744444832206" lon="0.37376574240624905"><ele></ele><time>2017-7-15T17:47:6Z</time></trkpt>
<trkpt lat="44.5772475656122" lon="0.37412012927234173"><ele></ele><time>2017-7-15T17:47:9Z</time></trkpt>
<trkpt lat="44.576750518754125" lon="0.3744847420603037"><ele></ele><time>2017-7-15T17:47:12Z</time></trkpt>
<trkpt lat="44.57626210525632" lon="0.374844241887331"><ele></ele><time>2017-7-15T17:47:15Z</time></trkpt>
<trkpt lat="44.575775703415275" lon="0.37520214915275574"><ele></ele><time>2017-7-15T17:47:18Z</time></trkpt>
<trkpt lat="44.575284104794264" lon="0.3755639120936394"><ele></ele><time>2017-7-15T17:47:21Z</time></trkpt>
<trkpt lat="44.57478957250714" lon="0.3759260941296816"><ele></ele><time>2017-7-15T17:47:24Z</time></trkpt>
<trkpt lat="44.574275175109506" lon="0.3763019386678934"><ele></ele><time>2017-7-15T17:47:27Z</time></trkpt>
<trkpt lat="44.574068393558264" lon="0.3764042817056179"><ele></ele><time>2017-7-15T17:47:30Z</time></trkpt>
<trkpt lat="44.574044086039066" lon="0.3764607757329941"><ele></ele><time>2017-7-15T17:47:33Z</time></trkpt>
<trkpt lat="44.57354108802974" lon="0.376835111528635"><ele></ele><time>2017-7-15T17:47:36Z</time></trkpt>
<trkpt lat="44.57303314469755" lon="0.37721849977970123"><ele></ele><time>2017-7-15T17:47:39Z</time></trkpt>
<trkpt lat="44.57252746447921" lon="0.37757699377834797"><ele></ele><time>2017-7-15T17:47:42Z</time></trkpt>
<trkpt lat="44.57201189361513" lon="0.3779519163072109"><ele></ele><time>2017-7-15T17:47:45Z</time></trkpt>
<trkpt lat="44.57152406685054" lon="0.3783113323152065"><ele></ele><time>2017-7-15T17:47:48Z</time></trkpt>
<trkpt lat="44.57098821178079" lon="0.3787093050777912"><ele></ele><time>2017-7-15T17:47:51Z</time></trkpt>
<trkpt lat="44.57045579329133" lon="0.37910090759396553"><ele></ele><time>2017-7-15T17:47:54Z</time></trkpt>
<trkpt lat="44.569914657622576" lon="0.37947792559862137"><ele></ele><time>2017-7-15T17:47:57Z</time></trkpt>
<trkpt lat="44.569398080930114" lon="0.3798580449074507"><ele></ele><time>2017-7-15T17:48:0Z</time></trkpt>
<trkpt lat="44.5689136069268" lon="0.38021025247871876"><ele></ele><time>2017-7-15T17:48:3Z</time></trkpt>
<trkpt lat="44.56837414763868" lon="0.38060395047068596"><ele></ele><time>2017-7-15T17:48:6Z</time></trkpt>
<trkpt lat="44.567884309217334" lon="0.3809613548219204"><ele></ele><time>2017-7-15T17:48:9Z</time></trkpt>
<trkpt lat="44.56737116910517" lon="0.38133694790303707"><ele></ele><time>2017-7-15T17:48:12Z</time></trkpt>
<trkpt lat="44.56688451580703" lon="0.3817069251090288"><ele></ele><time>2017-7-15T17:48:15Z</time></trkpt>
<trkpt lat="44.566336842253804" lon="0.3821021318435669"><ele></ele><time>2017-7-15T17:48:18Z</time></trkpt>
<trkpt lat="44.565816493704915" lon="0.3824927285313606"><ele></ele><time>2017-7-15T17:48:21Z</time></trkpt>
<trkpt lat="44.56533604301512" lon="0.38284292444586754"><ele></ele><time>2017-7-15T17:48:24Z</time></trkpt>
<trkpt lat="44.56483840942383" lon="0.383200915530324"><ele></ele><time>2017-7-15T17:48:27Z</time></trkpt>
<trkpt lat="44.564319401979446" lon="0.3835751675069332"><ele></ele><time>2017-7-15T17:48:30Z</time></trkpt>
<trkpt lat="44.56384406425059" lon="0.38393793627619743"><ele></ele><time>2017-7-15T17:48:33Z</time></trkpt>
<trkpt lat="44.563351795077324" lon="0.38430355489254"><ele></ele><time>2017-7-15T17:48:36Z</time></trkpt>
<trkpt lat="44.56286245957017" lon="0.3846602886915207"><ele></ele><time>2017-7-15T17:48:39Z</time></trkpt>
<trkpt lat="44.56237823702395" lon="0.38501299917697906"><ele></ele><time>2017-7-15T17:48:42Z</time></trkpt>
<trkpt lat="44.561898708343506" lon="0.38537124171853065"><ele></ele><time>2017-7-15T17:48:45Z</time></trkpt>
<trkpt lat="44.561408534646034" lon="0.38572998717427254"><ele></ele><time>2017-7-15T17:48:48Z</time></trkpt>
<trkpt lat="44.56092422828078" lon="0.38607909344136715"><ele></ele><time>2017-7-15T17:48:51Z</time></trkpt>
<trkpt lat="44.5604364015162" lon="0.3864399343729019"><ele></ele><time>2017-7-15T17:48:54Z</time></trkpt>
<trkpt lat="44.55995234660804" lon="0.3868045471608639"><ele></ele><time>2017-7-15T17:48:57Z</time></trkpt>
<trkpt lat="44.55946837551892" lon="0.38716823793947697"><ele></ele><time>2017-7-15T17:49:0Z</time></trkpt>
<trkpt lat="44.559000581502914" lon="0.3875654563307762"><ele></ele><time>2017-7-15T17:49:3Z</time></trkpt>
<trkpt lat="44.558543683961034" lon="0.3880233597010374"><ele></ele><time>2017-7-15T17:49:6Z</time></trkpt>
<trkpt lat="44.55809818580747" lon="0.38851588033139706"><ele></ele><time>2017-7-15T17:49:9Z</time></trkpt>
<trkpt lat="44.557666098698974" lon="0.388986524194479"><ele></ele><time>2017-7-15T17:49:12Z</time></trkpt>
<trkpt lat="44.55722906626761" lon="0.38943612948060036"><ele></ele><time>2017-7-15T17:49:15Z</time></trkpt>
<trkpt lat="44.5567530579865" lon="0.38993116468191147"><ele></ele><time>2017-7-15T17:49:18Z</time></trkpt>
<trkpt lat="44.55627218820155" lon="0.3904382698237896"><ele></ele><time>2017-7-15T17:49:21Z</time></trkpt>
<trkpt lat="44.55577933229506" lon="0.39096012711524963"><ele></ele><time>2017-7-15T17:49:24Z</time></trkpt>
<trkpt lat="44.55533995293081" lon="0.39148231968283653"><ele></ele><time>2017-7-15T17:49:27Z</time></trkpt>
<trkpt lat="44.55493787303567" lon="0.39204114116728306"><ele></ele><time>2017-7-15T17:49:30Z</time></trkpt>
<trkpt lat="44.55456546507776" lon="0.3926365077495575"><ele></ele><time>2017-7-15T17:49:33Z</time></trkpt>
<trkpt lat="44.554199343547225" lon="0.393216535449028"><ele></ele><time>2017-7-15T17:49:36Z</time></trkpt>
<trkpt lat="44.55383397638798" lon="0.3938088845461607"><ele></ele><time>2017-7-15T17:49:39Z</time></trkpt>
<trkpt lat="44.553471794351935" lon="0.39438522420823574"><ele></ele><time>2017-7-15T17:49:42Z</time></trkpt>
<trkpt lat="44.55311229452491" lon="0.3949708677828312"><ele></ele><time>2017-7-15T17:49:45Z</time></trkpt>
<trkpt lat="44.55274390988052" lon="0.3955656476318836"><ele></ele><time>2017-7-15T17:49:48Z</time></trkpt>
<trkpt lat="44.552370412275195" lon="0.39615062065422535"><ele></ele><time>2017-7-15T17:49:51Z</time></trkpt>
<trkpt lat="44.55200890079141" lon="0.39671195670962334"><ele></ele><time>2017-7-15T17:49:54Z</time></trkpt>
<trkpt lat="44.55165082588792" lon="0.3972877934575081"><ele></ele><time>2017-7-15T17:49:57Z</time></trkpt>
<trkpt lat="44.55129333771765" lon="0.3978657256811857"><ele></ele><time>2017-7-15T17:50:0Z</time></trkpt>
<trkpt lat="44.55089855007827" lon="0.39849545806646347"><ele></ele><time>2017-7-15T17:50:3Z</time></trkpt>
<trkpt lat="44.55051960423589" lon="0.39909585379064083"><ele></ele><time>2017-7-15T17:50:6Z</time></trkpt>
<trkpt lat="44.550140239298344" lon="0.39970479905605316"><ele></ele><time>2017-7-15T17:50:9Z</time></trkpt>
<trkpt lat="44.549719048663974" lon="0.4003688134253025"><ele></ele><time>2017-7-15T17:50:12Z</time></trkpt>
<trkpt lat="44.54935787245631" lon="0.4009417165070772"><ele></ele><time>2017-7-15T17:50:15Z</time></trkpt>
<trkpt lat="44.548941710963845" lon="0.4016033001244068"><ele></ele><time>2017-7-15T17:50:18Z</time></trkpt>
<trkpt lat="44.54856033436954" lon="0.40220528841018677"><ele></ele><time>2017-7-15T17:50:21Z</time></trkpt>
<trkpt lat="44.548146687448025" lon="0.4027625173330307"><ele></ele><time>2017-7-15T17:50:24Z</time></trkpt>
<trkpt lat="44.54765601083636" lon="0.403174739331007"><ele></ele><time>2017-7-15T17:50:27Z</time></trkpt>
<trkpt lat="44.54708822071552" lon="0.4034958500415087"><ele></ele><time>2017-7-15T17:50:30Z</time></trkpt>
<trkpt lat="44.54658103175461" lon="0.40377991273999214"><ele></ele><time>2017-7-15T17:50:33Z</time></trkpt>
<trkpt lat="44.546055905520916" lon="0.4040705133229494"><ele></ele><time>2017-7-15T17:50:36Z</time></trkpt>
<trkpt lat="44.54550052061677" lon="0.4043890256434679"><ele></ele><time>2017-7-15T17:50:39Z</time></trkpt>
<trkpt lat="44.544991655275226" lon="0.4046802967786789"><ele></ele><time>2017-7-15T17:50:42Z</time></trkpt>
<trkpt lat="44.54447248019278" lon="0.4049776028841734"><ele></ele><time>2017-7-15T17:50:45Z</time></trkpt>
<trkpt lat="44.543921956792474" lon="0.40528982877731323"><ele></ele><time>2017-7-15T17:50:48Z</time></trkpt>
<trkpt lat="44.543397417292" lon="0.4055918287485838"><ele></ele><time>2017-7-15T17:50:51Z</time></trkpt>
<trkpt lat="44.54287011176348" lon="0.40589441545307636"><ele></ele><time>2017-7-15T17:50:54Z</time></trkpt>
<trkpt lat="44.54235336743295" lon="0.40618577040731907"><ele></ele><time>2017-7-15T17:50:57Z</time></trkpt>
<trkpt lat="44.5418085437268" lon="0.4064958170056343"><ele></ele><time>2017-7-15T17:51:0Z</time></trkpt>
<trkpt lat="44.54130604863167" lon="0.4067837353795767"><ele></ele><time>2017-7-15T17:51:3Z</time></trkpt>
<trkpt lat="44.54083163291216" lon="0.40717173367738724"><ele></ele><time>2017-7-15T17:51:6Z</time></trkpt>
<trkpt lat="44.54040507785976" lon="0.40770608000457287"><ele></ele><time>2017-7-15T17:51:9Z</time></trkpt>
<trkpt lat="44.54003367573023" lon="0.4083576053380966"><ele></ele><time>2017-7-15T17:51:12Z</time></trkpt>
<trkpt lat="44.5396414026618" lon="0.4090355336666107"><ele></ele><time>2017-7-15T17:51:15Z</time></trkpt>
<trkpt lat="44.53926421701908" lon="0.40969510562717915"><ele></ele><time>2017-7-15T17:51:18Z</time></trkpt>
<trkpt lat="44.538853922858834" lon="0.4103939887136221"><ele></ele><time>2017-7-15T17:51:21Z</time></trkpt>
<trkpt lat="44.538502637296915" lon="0.41100796312093735"><ele></ele><time>2017-7-15T17:51:24Z</time></trkpt>
<trkpt lat="44.53814531676471" lon="0.4116311576217413"><ele></ele><time>2017-7-15T17:51:27Z</time></trkpt>
<trkpt lat="44.53775966539979" lon="0.4122950881719589"><ele></ele><time>2017-7-15T17:51:30Z</time></trkpt>
<trkpt lat="44.53738139010966" lon="0.41294812224805355"><ele></ele><time>2017-7-15T17:51:33Z</time></trkpt>
<trkpt lat="44.537015184760094" lon="0.41358690708875656"><ele></ele><time>2017-7-15T17:51:36Z</time></trkpt>
<trkpt lat="44.53666515648365" lon="0.41419568471610546"><ele></ele><time>2017-7-15T17:51:39Z</time></trkpt>
<trkpt lat="44.53631429001689" lon="0.41480655781924725"><ele></ele><time>2017-7-15T17:51:42Z</time></trkpt>
<trkpt lat="44.53594682738185" lon="0.4154451750218868"><ele></ele><time>2017-7-15T17:51:45Z</time></trkpt>
<trkpt lat="44.53560585156083" lon="0.4160384461283684"><ele></ele><time>2017-7-15T17:51:48Z</time></trkpt>
<trkpt lat="44.53524308279157" lon="0.4166745487600565"><ele></ele><time>2017-7-15T17:51:51Z</time></trkpt>
<trkpt lat="44.53486371785402" lon="0.41734459809958935"><ele></ele><time>2017-7-15T17:51:54Z</time></trkpt>
<trkpt lat="44.5345074031502" lon="0.4179766774177551"><ele></ele><time>2017-7-15T17:51:57Z</time></trkpt>
<trkpt lat="44.53412166796625" lon="0.41865418665111065"><ele></ele><time>2017-7-15T17:52:0Z</time></trkpt>
<trkpt lat="44.53375990502536" lon="0.4192719329148531"><ele></ele><time>2017-7-15T17:52:3Z</time></trkpt>
<trkpt lat="44.53340811654925" lon="0.41988012380898"><ele></ele><time>2017-7-15T17:52:6Z</time></trkpt>
<trkpt lat="44.53301307745278" lon="0.4205602314323187"><ele></ele><time>2017-7-15T17:52:9Z</time></trkpt>
<trkpt lat="44.53263186849654" lon="0.4212247487157583"><ele></ele><time>2017-7-15T17:52:12Z</time></trkpt>
<trkpt lat="44.53226163983345" lon="0.4218599293380976"><ele></ele><time>2017-7-15T17:52:15Z</time></trkpt>
<trkpt lat="44.53191177919507" lon="0.42247122153639793"><ele></ele><time>2017-7-15T17:52:18Z</time></trkpt>
<trkpt lat="44.53153635375202" lon="0.4231205675750971"><ele></ele><time>2017-7-15T17:52:21Z</time></trkpt>
<trkpt lat="44.531188337132335" lon="0.4237272497266531"><ele></ele><time>2017-7-15T17:52:24Z</time></trkpt>
<trkpt lat="44.53084560111165" lon="0.42431071400642395"><ele></ele><time>2017-7-15T17:52:27Z</time></trkpt>
<trkpt lat="44.530500350520015" lon="0.4249114450067282"><ele></ele><time>2017-7-15T17:52:30Z</time></trkpt>
<trkpt lat="44.53016205690801" lon="0.4255089070647955"><ele></ele><time>2017-7-15T17:52:33Z</time></trkpt>
<trkpt lat="44.529800713062286" lon="0.42613813653588295"><ele></ele><time>2017-7-15T17:52:36Z</time></trkpt>
<trkpt lat="44.529430232942104" lon="0.4267761670053005"><ele></ele><time>2017-7-15T17:52:39Z</time></trkpt>
<trkpt lat="44.529061345383525" lon="0.4274173825979233"><ele></ele><time>2017-7-15T17:52:42Z</time></trkpt>
<trkpt lat="44.528704108670354" lon="0.42803588323295116"><ele></ele><time>2017-7-15T17:52:45Z</time></trkpt>
<trkpt lat="44.5283580198884" lon="0.4286289867013693"><ele></ele><time>2017-7-15T17:52:48Z</time></trkpt>
<trkpt lat="44.52801880426705" lon="0.42921798303723335"><ele></ele><time>2017-7-15T17:52:51Z</time></trkpt>
<trkpt lat="44.52768235467374" lon="0.4298112541437149"><ele></ele><time>2017-7-15T17:52:54Z</time></trkpt>
<trkpt lat="44.52733299694955" lon="0.4304308444261551"><ele></ele><time>2017-7-15T17:52:57Z</time></trkpt>
<trkpt lat="44.52697567641735" lon="0.4310273006558418"><ele></ele><time>2017-7-15T17:53:0Z</time></trkpt>
<trkpt lat="44.52662439085543" lon="0.4316516686230898"><ele></ele><time>2017-7-15T17:53:3Z</time></trkpt>
<trkpt lat="44.52626313082874" lon="0.43226237408816814"><ele></ele><time>2017-7-15T17:53:6Z</time></trkpt>
<trkpt lat="44.52589767985046" lon="0.43289026245474815"><ele></ele><time>2017-7-15T17:53:9Z</time></trkpt>
<trkpt lat="44.52554748393595" lon="0.43350717052817345"><ele></ele><time>2017-7-15T17:53:12Z</time></trkpt>
<trkpt lat="44.52517951838672" lon="0.4341554269194603"><ele></ele><time>2017-7-15T17:53:15Z</time></trkpt>
<trkpt lat="44.52483703382313" lon="0.43474819511175156"><ele></ele><time>2017-7-15T17:53:18Z</time></trkpt>
<trkpt lat="44.52448373660445" lon="0.4353467468172312"><ele></ele><time>2017-7-15T17:53:21Z</time></trkpt>
<trkpt lat="44.52408819459379" lon="0.4359397664666176"><ele></ele><time>2017-7-15T17:53:24Z</time></trkpt>
<trkpt lat="44.52365485019982" lon="0.4364038724452257"><ele></ele><time>2017-7-15T17:53:27Z</time></trkpt>
<trkpt lat="44.523192001506686" lon="0.4368229676038027"><ele></ele><time>2017-7-15T17:53:30Z</time></trkpt>
<trkpt lat="44.52276561409235" lon="0.4373037535697222"><ele></ele><time>2017-7-15T17:53:33Z</time></trkpt>
<trkpt lat="44.522409131750464" lon="0.43788135051727295"><ele></ele><time>2017-7-15T17:53:36Z</time></trkpt>
<trkpt lat="44.522101767361164" lon="0.4385068919509649"><ele></ele><time>2017-7-15T17:53:39Z</time></trkpt>
<trkpt lat="44.52170521952212" lon="0.4390241391956806"><ele></ele><time>2017-7-15T17:53:42Z</time></trkpt>
<trkpt lat="44.521256536245346" lon="0.439473744481802"><ele></ele><time>2017-7-15T17:53:45Z</time></trkpt>
<trkpt lat="44.52080030925572" lon="0.439918152987957"><ele></ele><time>2017-7-15T17:53:48Z</time></trkpt>
<trkpt lat="44.5204196870327" lon="0.44048309326171875"><ele></ele><time>2017-7-15T17:53:51Z</time></trkpt>
<trkpt lat="44.52007217332721" lon="0.44108583591878414"><ele></ele><time>2017-7-15T17:53:54Z</time></trkpt>
<trkpt lat="44.519696831703186" lon="0.44163744896650314"><ele></ele><time>2017-7-15T17:53:57Z</time></trkpt>
<trkpt lat="44.51922023668885" lon="0.44206936843693256"><ele></ele><time>2017-7-15T17:54:0Z</time></trkpt>
<trkpt lat="44.51872226782143" lon="0.44240632094442844"><ele></ele><time>2017-7-15T17:54:3Z</time></trkpt>
<trkpt lat="44.518208373337984" lon="0.4427648987621069"><ele></ele><time>2017-7-15T17:54:6Z</time></trkpt>
<trkpt lat="44.51770478859544" lon="0.44310654513537884"><ele></ele><time>2017-7-15T17:54:9Z</time></trkpt>
<trkpt lat="44.51720740646124" lon="0.4434500355273485"><ele></ele><time>2017-7-15T17:54:12Z</time></trkpt>
<trkpt lat="44.51671974733472" lon="0.4437890835106373"><ele></ele><time>2017-7-15T17:54:15Z</time></trkpt>
<trkpt lat="44.5162059366703" lon="0.44412704184651375"><ele></ele><time>2017-7-15T17:54:18Z</time></trkpt>
<trkpt lat="44.5158227160573" lon="0.4443935863673687"><ele></ele><time>2017-7-15T17:54:21Z</time></trkpt>
<trkpt lat="44.51529356651008" lon="0.4447557684034109"><ele></ele><time>2017-7-15T17:54:24Z</time></trkpt>
<trkpt lat="44.51476030983031" lon="0.4451178666204214"><ele></ele><time>2017-7-15T17:54:27Z</time></trkpt>
<trkpt lat="44.51427290216088" lon="0.44545465148985386"><ele></ele><time>2017-7-15T17:54:30Z</time></trkpt>
<trkpt lat="44.51376914978027" lon="0.4458595812320709"><ele></ele><time>2017-7-15T17:54:33Z</time></trkpt>
<trkpt lat="44.51331032440066" lon="0.4463082645088434"><ele></ele><time>2017-7-15T17:54:36Z</time></trkpt>
<trkpt lat="44.512860383838415" lon="0.4468024615198374"><ele></ele><time>2017-7-15T17:54:39Z</time></trkpt>
<trkpt lat="44.512425530701876" lon="0.4473292641341686"><ele></ele><time>2017-7-15T17:54:42Z</time></trkpt>
<trkpt lat="44.511976428329945" lon="0.4478649515658617"><ele></ele><time>2017-7-15T17:54:45Z</time></trkpt>
<trkpt lat="44.511538138613105" lon="0.44838689267635345"><ele></ele><time>2017-7-15T17:54:48Z</time></trkpt>
<trkpt lat="44.511102782562375" lon="0.4489148687571287"><ele></ele><time>2017-7-15T17:54:51Z</time></trkpt>
<trkpt lat="44.51068812981248" lon="0.44941158033907413"><ele></ele><time>2017-7-15T17:54:54Z</time></trkpt>
<trkpt lat="44.510277416557074" lon="0.44990435242652893"><ele></ele><time>2017-7-15T17:54:57Z</time></trkpt>
<trkpt lat="44.50984390452504" lon="0.45042553916573524"><ele></ele><time>2017-7-15T17:55:0Z</time></trkpt>
<trkpt lat="44.50941584073007" lon="0.4509411100298166"><ele></ele><time>2017-7-15T17:55:3Z</time></trkpt>
<trkpt lat="44.509005127474666" lon="0.4514499753713608"><ele></ele><time>2017-7-15T17:55:6Z</time></trkpt>
<trkpt lat="44.5085612218827" lon="0.451965294778347"><ele></ele><time>2017-7-15T17:55:9Z</time></trkpt>
<trkpt lat="44.50807884335518" lon="0.452340804040432"><ele></ele><time>2017-7-15T17:55:12Z</time></trkpt>
<trkpt lat="44.50754969380796" lon="0.4525455739349127"><ele></ele><time>2017-7-15T17:55:15Z</time></trkpt>
<trkpt lat="44.506991961970925" lon="0.45264414511621"><ele></ele><time>2017-7-15T17:55:18Z</time></trkpt>
<trkpt lat="44.50639994814992" lon="0.4526818636804819"><ele></ele><time>2017-7-15T17:55:21Z</time></trkpt>
<trkpt lat="44.50580717995763" lon="0.4527579713612795"><ele></ele><time>2017-7-15T17:55:24Z</time></trkpt>
<trkpt lat="44.50522279366851" lon="0.4529149644076824"><ele></ele><time>2017-7-15T17:55:27Z</time></trkpt>
<trkpt lat="44.504688531160355" lon="0.45315694995224476"><ele></ele><time>2017-7-15T17:55:30Z</time></trkpt>
<trkpt lat="44.504183856770396" lon="0.4536184575408697"><ele></ele><time>2017-7-15T17:55:33Z</time></trkpt>
<trkpt lat="44.50381320901215" lon="0.45420669950544834"><ele></ele><time>2017-7-15T17:55:36Z</time></trkpt>
<trkpt lat="44.50349662452936" lon="0.4549246095120907"><ele></ele><time>2017-7-15T17:55:39Z</time></trkpt>
<trkpt lat="44.50316721573472" lon="0.45562625862658024"><ele></ele><time>2017-7-15T17:55:42Z</time></trkpt>
<trkpt lat="44.50296537950635" lon="0.45596170239150524"><ele></ele><time>2017-7-15T17:55:45Z</time></trkpt>
<trkpt lat="44.50240798294544" lon="0.4562191106379032"><ele></ele><time>2017-7-15T17:55:48Z</time></trkpt>
<trkpt lat="44.50221385806799" lon="0.45621005818247795"><ele></ele><time>2017-7-15T17:55:51Z</time></trkpt>
<trkpt lat="44.501922000199556" lon="0.4562212899327278"><ele></ele><time>2017-7-15T17:55:54Z</time></trkpt>
<trkpt lat="44.50135630555451" lon="0.4565719049423933"><ele></ele><time>2017-7-15T17:55:57Z</time></trkpt>
<trkpt lat="44.50127022340894" lon="0.45667667873203754"><ele></ele><time>2017-7-15T17:56:0Z</time></trkpt>
<trkpt lat="44.5008543971926" lon="0.4572384338825941"><ele></ele><time>2017-7-15T17:56:3Z</time></trkpt>
<trkpt lat="44.500378305092454" lon="0.45781519263982773"><ele></ele><time>2017-7-15T17:56:6Z</time></trkpt>
<trkpt lat="44.49988201260567" lon="0.4584254790097475"><ele></ele><time>2017-7-15T17:56:9Z</time></trkpt>
<trkpt lat="44.499398209154606" lon="0.4590325802564621"><ele></ele><time>2017-7-15T17:56:12Z</time></trkpt>
<trkpt lat="44.49895371682942" lon="0.4595689382404089"><ele></ele><time>2017-7-15T17:56:15Z</time></trkpt>
<trkpt lat="44.49848718009889" lon="0.4601419251412153"><ele></ele><time>2017-7-15T17:56:18Z</time></trkpt>
<trkpt lat="44.49806070886552" lon="0.46068339608609676"><ele></ele><time>2017-7-15T17:56:21Z</time></trkpt>
<trkpt lat="44.49761336669326" lon="0.4613036569207907"><ele></ele><time>2017-7-15T17:56:24Z</time></trkpt>
<trkpt lat="44.497198378667235" lon="0.4618629813194275"><ele></ele><time>2017-7-15T17:56:27Z</time></trkpt>
<trkpt lat="44.49677157215774" lon="0.46244049444794655"><ele></ele><time>2017-7-15T17:56:30Z</time></trkpt>
<trkpt lat="44.496355410665274" lon="0.46296226792037487"><ele></ele><time>2017-7-15T17:56:33Z</time></trkpt>
<trkpt lat="44.49588275514543" lon="0.4634970333427191"><ele></ele><time>2017-7-15T17:56:36Z</time></trkpt>
<trkpt lat="44.49542099609971" lon="0.46399391256272793"><ele></ele><time>2017-7-15T17:56:39Z</time></trkpt>
<trkpt lat="44.49490391649306" lon="0.46453094109892845"><ele></ele><time>2017-7-15T17:56:42Z</time></trkpt>
<trkpt lat="44.49443436227739" lon="0.46502220444381237"><ele></ele><time>2017-7-15T17:56:45Z</time></trkpt>
<trkpt lat="44.493969501927495" lon="0.4655144736170769"><ele></ele><time>2017-7-15T17:56:48Z</time></trkpt>
<trkpt lat="44.493545796722174" lon="0.46599400229752064"><ele></ele><time>2017-7-15T17:56:51Z</time></trkpt>
<trkpt lat="44.49308588169515" lon="0.4665373172610998"><ele></ele><time>2017-7-15T17:56:54Z</time></trkpt>
<trkpt lat="44.49264893308282" lon="0.4670549836009741"><ele></ele><time>2017-7-15T17:56:57Z</time></trkpt>
<trkpt lat="44.49219346046448" lon="0.46759058721363544"><ele></ele><time>2017-7-15T17:57:0Z</time></trkpt>
<trkpt lat="44.49175634421408" lon="0.46810129657387733"><ele></ele><time>2017-7-15T17:57:3Z</time></trkpt>
<trkpt lat="44.49130665510893" lon="0.4686270095407963"><ele></ele><time>2017-7-15T17:57:6Z</time></trkpt>
<trkpt lat="44.49087917804718" lon="0.4691221285611391"><ele></ele><time>2017-7-15T17:57:9Z</time></trkpt>
<trkpt lat="44.49045153334737" lon="0.4696420580148697"><ele></ele><time>2017-7-15T17:57:12Z</time></trkpt>
<trkpt lat="44.49000435881317" lon="0.47013902105391026"><ele></ele><time>2017-7-15T17:57:15Z</time></trkpt>
<trkpt lat="44.489590879529715" lon="0.4706305358558893"><ele></ele><time>2017-7-15T17:57:18Z</time></trkpt>
<trkpt lat="44.48916491121054" lon="0.47115834429860115"><ele></ele><time>2017-7-15T17:57:21Z</time></trkpt>
<trkpt lat="44.48873181827366" lon="0.4716497752815485"><ele></ele><time>2017-7-15T17:57:24Z</time></trkpt>
<trkpt lat="44.48831741698086" lon="0.4721578862518072"><ele></ele><time>2017-7-15T17:57:27Z</time></trkpt>
<trkpt lat="44.48790553025901" lon="0.47265023924410343"><ele></ele><time>2017-7-15T17:57:30Z</time></trkpt>
<trkpt lat="44.4874813221395" lon="0.47316111624240875"><ele></ele><time>2017-7-15T17:57:33Z</time></trkpt>
<trkpt lat="44.48706096969545" lon="0.4736497811973095"><ele></ele><time>2017-7-15T17:57:36Z</time></trkpt>
<trkpt lat="44.48663575574756" lon="0.47414842061698437"><ele></ele><time>2017-7-15T17:57:39Z</time></trkpt>
<trkpt lat="44.48620392009616" lon="0.4746183939278126"><ele></ele><time>2017-7-15T17:57:42Z</time></trkpt>
<trkpt lat="44.48573528788984" lon="0.475038830190897"><ele></ele><time>2017-7-15T17:57:45Z</time></trkpt>
<trkpt lat="44.48522977530956" lon="0.4753874335438013"><ele></ele><time>2017-7-15T17:57:48Z</time></trkpt>
<trkpt lat="44.48472342453897" lon="0.475658169016242"><ele></ele><time>2017-7-15T17:57:51Z</time></trkpt>
<trkpt lat="44.48417508043349" lon="0.47583351843059063"><ele></ele><time>2017-7-15T17:57:54Z</time></trkpt>
<trkpt lat="44.48362019844353" lon="0.47601222060620785"><ele></ele><time>2017-7-15T17:57:57Z</time></trkpt>
<trkpt lat="44.483078476041555" lon="0.4761758353561163"><ele></ele><time>2017-7-15T17:58:0Z</time></trkpt>
<trkpt lat="44.482519486919045" lon="0.47635629773139954"><ele></ele><time>2017-7-15T17:58:3Z</time></trkpt>
<trkpt lat="44.481922863051295" lon="0.4765326529741287"><ele></ele><time>2017-7-15T17:58:6Z</time></trkpt>
<trkpt lat="44.48130017146468" lon="0.47672619111835957"><ele></ele><time>2017-7-15T17:58:9Z</time></trkpt>
<trkpt lat="44.48073799721897" lon="0.47689483501017094"><ele></ele><time>2017-7-15T17:58:12Z</time></trkpt>
<trkpt lat="44.480171045288444" lon="0.4770240839570761"><ele></ele><time>2017-7-15T17:58:15Z</time></trkpt>
<trkpt lat="44.479623874649405" lon="0.47707890160381794"><ele></ele><time>2017-7-15T17:58:18Z</time></trkpt>
<trkpt lat="44.479084415361285" lon="0.4771255049854517"><ele></ele><time>2017-7-15T17:58:21Z</time></trkpt>
<trkpt lat="44.4785587862134" lon="0.4773488827049732"><ele></ele><time>2017-7-15T17:58:24Z</time></trkpt>
<trkpt lat="44.47804153896868" lon="0.47758206725120544"><ele></ele><time>2017-7-15T17:58:27Z</time></trkpt>
<trkpt lat="44.478041622787714" lon="0.47758198343217373"><ele></ele><time>2017-7-15T17:58:30Z</time></trkpt>
<trkpt lat="44.47791891172528" lon="0.47764317132532597"><ele></ele><time>2017-7-15T17:58:33Z</time></trkpt>
<trkpt lat="44.47739747352898" lon="0.477894963696599"><ele></ele><time>2017-7-15T17:58:36Z</time></trkpt>
<trkpt lat="44.47685357183218" lon="0.4780843108892441"><ele></ele><time>2017-7-15T17:58:39Z</time></trkpt>
<trkpt lat="44.47632718831301" lon="0.4782679583877325"><ele></ele><time>2017-7-15T17:58:42Z</time></trkpt>
<trkpt lat="44.47578135877848" lon="0.47844909131526947"><ele></ele><time>2017-7-15T17:58:45Z</time></trkpt>
<trkpt lat="44.47525287978351" lon="0.4786184895783663"><ele></ele><time>2017-7-15T17:58:48Z</time></trkpt>
<trkpt lat="44.47470512241125" lon="0.4787801764905453"><ele></ele><time>2017-7-15T17:58:51Z</time></trkpt>
<trkpt lat="44.47417153045535" lon="0.47896734438836575"><ele></ele><time>2017-7-15T17:58:54Z</time></trkpt>
<trkpt lat="44.473623940721154" lon="0.4791387543082237"><ele></ele><time>2017-7-15T17:58:57Z</time></trkpt>
<trkpt lat="44.47309009730816" lon="0.479311840608716"><ele></ele><time>2017-7-15T17:59:0Z</time></trkpt>
<trkpt lat="44.472561115399" lon="0.4794918838888407"><ele></ele><time>2017-7-15T17:59:3Z</time></trkpt>
<trkpt lat="44.47202358394861" lon="0.4796832427382469"><ele></ele><time>2017-7-15T17:59:6Z</time></trkpt>
<trkpt lat="44.471473479643464" lon="0.4798594303429127"><ele></ele><time>2017-7-15T17:59:9Z</time></trkpt>
<trkpt lat="44.47099554352462" lon="0.48020191490650177"><ele></ele><time>2017-7-15T17:59:12Z</time></trkpt>
<trkpt lat="44.47077786549926" lon="0.4804677050560713"><ele></ele><time>2017-7-15T17:59:15Z</time></trkpt>
<trkpt lat="44.470764538273215" lon="0.48048161901533604"><ele></ele><time>2017-7-15T17:59:18Z</time></trkpt>
<trkpt lat="44.470765544101596" lon="0.4805245343595743"><ele></ele><time>2017-7-15T17:59:21Z</time></trkpt>
<trkpt lat="44.4705406576395" lon="0.4812267702072859"><ele></ele><time>2017-7-15T17:59:24Z</time></trkpt>
<trkpt lat="44.47020663879812" lon="0.4819255694746971"><ele></ele><time>2017-7-15T17:59:27Z</time></trkpt>
<trkpt lat="44.46978360414505" lon="0.48249092884361744"><ele></ele><time>2017-7-15T17:59:30Z</time></trkpt>
<trkpt lat="44.469260992482305" lon="0.4828104469925165"><ele></ele><time>2017-7-15T17:59:33Z</time></trkpt>
<trkpt lat="44.46868817321956" lon="0.48293525353074074"><ele></ele><time>2017-7-15T17:59:36Z</time></trkpt>
<trkpt lat="44.46814678609371" lon="0.483019994571805"><ele></ele><time>2017-7-15T17:59:39Z</time></trkpt>
<trkpt lat="44.467590395361185" lon="0.48311823047697544"><ele></ele><time>2017-7-15T17:59:42Z</time></trkpt>
<trkpt lat="44.467026460915804" lon="0.4832099284976721"><ele></ele><time>2017-7-15T17:59:45Z</time></trkpt>
<trkpt lat="44.466463616117835" lon="0.4833460506051779"><ele></ele><time>2017-7-15T17:59:48Z</time></trkpt>
<trkpt lat="44.465938825160265" lon="0.4836544208228588"><ele></ele><time>2017-7-15T17:59:51Z</time></trkpt>
<trkpt lat="44.46543339639902" lon="0.4840262420475483"><ele></ele><time>2017-7-15T17:59:54Z</time></trkpt>
<trkpt lat="44.46499099954963" lon="0.48455312848091125"><ele></ele><time>2017-7-15T17:59:57Z</time></trkpt>
<trkpt lat="44.46463728323579" lon="0.4851436335593462"><ele></ele><time>2017-7-15T18:0:0Z</time></trkpt>
<trkpt lat="44.46426143869758" lon="0.4857234098017216"><ele></ele><time>2017-7-15T18:0:3Z</time></trkpt>
<trkpt lat="44.463733127340674" lon="0.4859505593776703"><ele></ele><time>2017-7-15T18:0:6Z</time></trkpt>
<trkpt lat="44.463190315291286" lon="0.4858879465609789"><ele></ele><time>2017-7-15T18:0:9Z</time></trkpt>
<trkpt lat="44.46263794787228" lon="0.48591929487884045"><ele></ele><time>2017-7-15T18:0:12Z</time></trkpt>
<trkpt lat="44.46212095208466" lon="0.4861516412347555"><ele></ele><time>2017-7-15T18:0:15Z</time></trkpt>
<trkpt lat="44.46162206120789" lon="0.48648289404809475"><ele></ele><time>2017-7-15T18:0:18Z</time></trkpt>
<trkpt lat="44.46108159609139" lon="0.48666369169950485"><ele></ele><time>2017-7-15T18:0:21Z</time></trkpt>
<trkpt lat="44.46053476072848" lon="0.48664676025509834"><ele></ele><time>2017-7-15T18:0:24Z</time></trkpt>
<trkpt lat="44.45997300557792" lon="0.4865376278758049"><ele></ele><time>2017-7-15T18:0:27Z</time></trkpt>
<trkpt lat="44.45943488739431" lon="0.48634844832122326"><ele></ele><time>2017-7-15T18:0:30Z</time></trkpt>
<trkpt lat="44.45889601483941" lon="0.48608148470520973"><ele></ele><time>2017-7-15T18:0:33Z</time></trkpt>
<trkpt lat="44.45836686529219" lon="0.48574059270322323"><ele></ele><time>2017-7-15T18:0:36Z</time></trkpt>
<trkpt lat="44.457869147881866" lon="0.48540095798671246"><ele></ele><time>2017-7-15T18:0:39Z</time></trkpt>
<trkpt lat="44.45731149986386" lon="0.485139274969697"><ele></ele><time>2017-7-15T18:0:42Z</time></trkpt>
<trkpt lat="44.45674605667591" lon="0.4849573876708746"><ele></ele><time>2017-7-15T18:0:45Z</time></trkpt>
<trkpt lat="44.456187319010496" lon="0.4850754886865616"><ele></ele><time>2017-7-15T18:0:48Z</time></trkpt>
<trkpt lat="44.45562028326094" lon="0.4852360859513283"><ele></ele><time>2017-7-15T18:0:51Z</time></trkpt>
<trkpt lat="44.45504955947399" lon="0.4852427914738655"><ele></ele><time>2017-7-15T18:0:54Z</time></trkpt>
<trkpt lat="44.45453365333378" lon="0.4849923402070999"><ele></ele><time>2017-7-15T18:0:57Z</time></trkpt>
<trkpt lat="44.454299630597234" lon="0.4849028214812279"><ele></ele><time>2017-7-15T18:1:0Z</time></trkpt>
<trkpt lat="44.45368314161897" lon="0.48498228192329407"><ele></ele><time>2017-7-15T18:1:3Z</time></trkpt>
<trkpt lat="44.453085428103805" lon="0.4852094314992428"><ele></ele><time>2017-7-15T18:1:6Z</time></trkpt>
<trkpt lat="44.45276750251651" lon="0.4852629080414772"><ele></ele><time>2017-7-15T18:1:9Z</time></trkpt>
<trkpt lat="44.45222167298198" lon="0.4852116107940674"><ele></ele><time>2017-7-15T18:1:12Z</time></trkpt>
<trkpt lat="44.45162722840905" lon="0.4850156418979168"><ele></ele><time>2017-7-15T18:1:15Z</time></trkpt>
<trkpt lat="44.45106329396367" lon="0.4847615025937557"><ele></ele><time>2017-7-15T18:1:18Z</time></trkpt>
<trkpt lat="44.45047211833298" lon="0.4846040904521942"><ele></ele><time>2017-7-15T18:1:21Z</time></trkpt>
<trkpt lat="44.44991790689528" lon="0.48460962250828743"><ele></ele><time>2017-7-15T18:1:24Z</time></trkpt>
<trkpt lat="44.44937936961651" lon="0.4847478400915861"><ele></ele><time>2017-7-15T18:1:27Z</time></trkpt>
<trkpt lat="44.448858853429556" lon="0.485050929710269"><ele></ele><time>2017-7-15T18:1:30Z</time></trkpt>
<trkpt lat="44.44837488234043" lon="0.4855074919760227"><ele></ele><time>2017-7-15T18:1:33Z</time></trkpt>
<trkpt lat="44.44793751463294" lon="0.48606044612824917"><ele></ele><time>2017-7-15T18:1:36Z</time></trkpt>
<trkpt lat="44.44750274531543" lon="0.486665703356266"><ele></ele><time>2017-7-15T18:1:39Z</time></trkpt>
<trkpt lat="44.44709161296487" lon="0.48727347515523434"><ele></ele><time>2017-7-15T18:1:42Z</time></trkpt>
<trkpt lat="44.446682324633" lon="0.487864064052701"><ele></ele><time>2017-7-15T18:1:45Z</time></trkpt>
<trkpt lat="44.446258787065744" lon="0.4884003382176161"><ele></ele><time>2017-7-15T18:1:48Z</time></trkpt>
<trkpt lat="44.44586475379765" lon="0.48900341615080833"><ele></ele><time>2017-7-15T18:1:51Z</time></trkpt>
<trkpt lat="44.44544892758131" lon="0.4895880538970232"><ele></ele><time>2017-7-15T18:1:54Z</time></trkpt>
<trkpt lat="44.44498708471656" lon="0.4901721887290478"><ele></ele><time>2017-7-15T18:1:57Z</time></trkpt>
<trkpt lat="44.44488063454628" lon="0.49026254564523697"><ele></ele><time>2017-7-15T18:2:0Z</time></trkpt>
<trkpt lat="44.44430144503713" lon="0.49049723893404007"><ele></ele><time>2017-7-15T18:2:3Z</time></trkpt>
<trkpt lat="44.443784868344665" lon="0.4903906211256981"><ele></ele><time>2017-7-15T18:2:6Z</time></trkpt>
<trkpt lat="44.443250773474574" lon="0.490188617259264"><ele></ele><time>2017-7-15T18:2:9Z</time></trkpt>
<trkpt lat="44.44270075298846" lon="0.4899949114769697"><ele></ele><time>2017-7-15T18:2:12Z</time></trkpt>
<trkpt lat="44.44217462092638" lon="0.4898147005587816"><ele></ele><time>2017-7-15T18:2:15Z</time></trkpt>
<trkpt lat="44.441619319841266" lon="0.48961881548166275"><ele></ele><time>2017-7-15T18:2:18Z</time></trkpt>
<trkpt lat="44.44104943424463" lon="0.48942544497549534"><ele></ele><time>2017-7-15T18:2:21Z</time></trkpt>
<trkpt lat="44.44051290862262" lon="0.4892448987811804"><ele></ele><time>2017-7-15T18:2:24Z</time></trkpt>
<trkpt lat="44.43994847126305" lon="0.48904825933277607"><ele></ele><time>2017-7-15T18:2:27Z</time></trkpt>
<trkpt lat="44.439390152692795" lon="0.48886964097619057"><ele></ele><time>2017-7-15T18:2:30Z</time></trkpt>
<trkpt lat="44.43887885659933" lon="0.48888816498219967"><ele></ele><time>2017-7-15T18:2:33Z</time></trkpt>
<trkpt lat="44.43868389353156" lon="0.48899151384830475"><ele></ele><time>2017-7-15T18:2:36Z</time></trkpt>
<trkpt lat="44.43844752386212" lon="0.4892100300639868"><ele></ele><time>2017-7-15T18:2:39Z</time></trkpt>
<trkpt lat="44.43803689442575" lon="0.4898015409708023"><ele></ele><time>2017-7-15T18:2:42Z</time></trkpt>
<trkpt lat="44.437659624964" lon="0.49035457894206047"><ele></ele><time>2017-7-15T18:2:45Z</time></trkpt>
<trkpt lat="44.437258299440145" lon="0.4909564834088087"><ele></ele><time>2017-7-15T18:2:48Z</time></trkpt>
<trkpt lat="44.43684842437506" lon="0.4915467370301485"><ele></ele><time>2017-7-15T18:2:51Z</time></trkpt>
<trkpt lat="44.43641910329461" lon="0.4919344838708639"><ele></ele><time>2017-7-15T18:2:54Z</time></trkpt>
<trkpt lat="44.43587427958846" lon="0.4920036345720291"><ele></ele><time>2017-7-15T18:2:57Z</time></trkpt>
<trkpt lat="44.435286121442914" lon="0.4919381719082594"><ele></ele><time>2017-7-15T18:3:0Z</time></trkpt>
<trkpt lat="44.43471087142825" lon="0.49208887852728367"><ele></ele><time>2017-7-15T18:3:3Z</time></trkpt>
<trkpt lat="44.434150038287044" lon="0.4922697599977255"><ele></ele><time>2017-7-15T18:3:6Z</time></trkpt>
<trkpt lat="44.4336049631238" lon="0.4924468696117401"><ele></ele><time>2017-7-15T18:3:9Z</time></trkpt>
<trkpt lat="44.43305837921798" lon="0.4926064610481262"><ele></ele><time>2017-7-15T18:3:12Z</time></trkpt>
<trkpt lat="44.432509783655405" lon="0.4927772004157305"><ele></ele><time>2017-7-15T18:3:15Z</time></trkpt>
<trkpt lat="44.431972252205014" lon="0.4929445032030344"><ele></ele><time>2017-7-15T18:3:18Z</time></trkpt>
<trkpt lat="44.43142659030855" lon="0.49311147071421146"><ele></ele><time>2017-7-15T18:3:21Z</time></trkpt>
<trkpt lat="44.430893920361996" lon="0.4932664521038532"><ele></ele><time>2017-7-15T18:3:24Z</time></trkpt>
<trkpt lat="44.4303463306278" lon="0.4934361856430769"><ele></ele><time>2017-7-15T18:3:27Z</time></trkpt>
<trkpt lat="44.429831178858876" lon="0.49367758445441723"><ele></ele><time>2017-7-15T18:3:30Z</time></trkpt>
<trkpt lat="44.42938148975372" lon="0.49410841427743435"><ele></ele><time>2017-7-15T18:3:33Z</time></trkpt>
<trkpt lat="44.429177390411496" lon="0.494686346501112"><ele></ele><time>2017-7-15T18:3:36Z</time></trkpt>
<trkpt lat="44.42925919778645" lon="0.49509345553815365"><ele></ele><time>2017-7-15T18:3:39Z</time></trkpt>
<trkpt lat="44.42947327159345" lon="0.4957951046526432"><ele></ele><time>2017-7-15T18:3:42Z</time></trkpt>
<trkpt lat="44.42970578558743" lon="0.49654511734843254"><ele></ele><time>2017-7-15T18:3:45Z</time></trkpt>
<trkpt lat="44.42990401759744" lon="0.4971965588629246"><ele></ele><time>2017-7-15T18:3:48Z</time></trkpt>
<trkpt lat="44.430113984271884" lon="0.4979049973189831"><ele></ele><time>2017-7-15T18:3:51Z</time></trkpt>
<trkpt lat="44.43034742027521" lon="0.49867470748722553"><ele></ele><time>2017-7-15T18:3:54Z</time></trkpt>
<trkpt lat="44.43057247437537" lon="0.49939965829253197"><ele></ele><time>2017-7-15T18:3:57Z</time></trkpt>
<trkpt lat="44.43079836666584" lon="0.500115305185318"><ele></ele><time>2017-7-15T18:4:0Z</time></trkpt>
<trkpt lat="44.43099634721875" lon="0.5008307844400406"><ele></ele><time>2017-7-15T18:4:3Z</time></trkpt>
<trkpt lat="44.43113272078335" lon="0.5016157496720552"><ele></ele><time>2017-7-15T18:4:6Z</time></trkpt>
<trkpt lat="44.431163063272834" lon="0.502405995503068"><ele></ele><time>2017-7-15T18:4:9Z</time></trkpt>
<trkpt lat="44.43117647431791" lon="0.5031911283731461"><ele></ele><time>2017-7-15T18:4:12Z</time></trkpt>
<trkpt lat="44.43118259310722" lon="0.5039838887751102"><ele></ele><time>2017-7-15T18:4:15Z</time></trkpt>
<trkpt lat="44.43119709379971" lon="0.5047765653580427"><ele></ele><time>2017-7-15T18:4:18Z</time></trkpt>
<trkpt lat="44.43121033720672" lon="0.505572846159339"><ele></ele><time>2017-7-15T18:4:21Z</time></trkpt>
<trkpt lat="44.43122291006148" lon="0.5063812807202339"><ele></ele><time>2017-7-15T18:4:24Z</time></trkpt>
<trkpt lat="44.431237829849124" lon="0.5071887094527483"><ele></ele><time>2017-7-15T18:4:27Z</time></trkpt>
<trkpt lat="44.43124839104712" lon="0.508012231439352"><ele></ele><time>2017-7-15T18:4:30Z</time></trkpt>
<trkpt lat="44.43125777877867" lon="0.5087665189057589"><ele></ele><time>2017-7-15T18:4:33Z</time></trkpt>
<trkpt lat="44.43127512931824" lon="0.5095709301531315"><ele></ele><time>2017-7-15T18:4:36Z</time></trkpt>
<trkpt lat="44.431285271421075" lon="0.5103672109544277"><ele></ele><time>2017-7-15T18:4:39Z</time></trkpt>
<trkpt lat="44.43128937855363" lon="0.5111507512629032"><ele></ele><time>2017-7-15T18:4:42Z</time></trkpt>
<trkpt lat="44.431304885074496" lon="0.5119248200207949"><ele></ele><time>2017-7-15T18:4:45Z</time></trkpt>
<trkpt lat="44.43131293170154" lon="0.5127092823386192"><ele></ele><time>2017-7-15T18:4:48Z</time></trkpt>
<trkpt lat="44.43132248707116" lon="0.513513945043087"><ele></ele><time>2017-7-15T18:4:51Z</time></trkpt>
<trkpt lat="44.431336065754294" lon="0.5143172666430473"><ele></ele><time>2017-7-15T18:4:54Z</time></trkpt>
<trkpt lat="44.43134696222842" lon="0.5150985438376665"><ele></ele><time>2017-7-15T18:4:57Z</time></trkpt>
<trkpt lat="44.43138660863042" lon="0.5158897116780281"><ele></ele><time>2017-7-15T18:5:0Z</time></trkpt>
<trkpt lat="44.43152071908116" lon="0.5166767723858356"><ele></ele><time>2017-7-15T18:5:3Z</time></trkpt>
<trkpt lat="44.43161082454026" lon="0.5174478236585855"><ele></ele><time>2017-7-15T18:5:6Z</time></trkpt>
<trkpt lat="44.431648375466466" lon="0.518259359523654"><ele></ele><time>2017-7-15T18:5:9Z</time></trkpt>
<trkpt lat="44.43167804740369" lon="0.5190734099596739"><ele></ele><time>2017-7-15T18:5:12Z</time></trkpt>
<trkpt lat="44.43171392194927" lon="0.5198459699749947"><ele></ele><time>2017-7-15T18:5:15Z</time></trkpt>
<trkpt lat="44.43174124695361" lon="0.5206026881933212"><ele></ele><time>2017-7-15T18:5:18Z</time></trkpt>
<trkpt lat="44.43182213231921" lon="0.521354041993618"><ele></ele><time>2017-7-15T18:5:21Z</time></trkpt>
<trkpt lat="44.43204048089683" lon="0.5220857821404934"><ele></ele><time>2017-7-15T18:5:24Z</time></trkpt>
<trkpt lat="44.43227215670049" lon="0.5228251498192549"><ele></ele><time>2017-7-15T18:5:27Z</time></trkpt>
<trkpt lat="44.43240165710449" lon="0.5235993023961782"><ele></ele><time>2017-7-15T18:5:30Z</time></trkpt>
<trkpt lat="44.4324048422277" lon="0.524390134960413"><ele></ele><time>2017-7-15T18:5:33Z</time></trkpt>
<trkpt lat="44.43230878561735" lon="0.52513905800879"><ele></ele><time>2017-7-15T18:5:36Z</time></trkpt>
<trkpt lat="44.43218833766878" lon="0.5259654298424721"><ele></ele><time>2017-7-15T18:5:39Z</time></trkpt>
<trkpt lat="44.432183895260096" lon="0.5267786420881748"><ele></ele><time>2017-7-15T18:5:42Z</time></trkpt>
<trkpt lat="44.43229101598263" lon="0.5275417305529118"><ele></ele><time>2017-7-15T18:5:45Z</time></trkpt>
<trkpt lat="44.43242998793721" lon="0.5282765720039606"><ele></ele><time>2017-7-15T18:5:48Z</time></trkpt>
<trkpt lat="44.43248019553721" lon="0.529031278565526"><ele></ele><time>2017-7-15T18:5:51Z</time></trkpt>
<trkpt lat="44.43239847198129" lon="0.5297818779945374"><ele></ele><time>2017-7-15T18:5:54Z</time></trkpt>
<trkpt lat="44.43218112923205" lon="0.5304901488125324"><ele></ele><time>2017-7-15T18:5:57Z</time></trkpt>
<trkpt lat="44.43190184421837" lon="0.5311409197747707"><ele></ele><time>2017-7-15T18:6:0Z</time></trkpt>
<trkpt lat="44.43162649869919" lon="0.531835276633501"><ele></ele><time>2017-7-15T18:6:3Z</time></trkpt>
<trkpt lat="44.43157285451889" lon="0.5320126377046108"><ele></ele><time>2017-7-15T18:6:6Z</time></trkpt>
<trkpt lat="44.431439749896526" lon="0.5327770672738552"><ele></ele><time>2017-7-15T18:6:9Z</time></trkpt>
<trkpt lat="44.43144394084811" lon="0.5335974041372538"><ele></ele><time>2017-7-15T18:6:12Z</time></trkpt>
<trkpt lat="44.43159867078066" lon="0.5343697965145111"><ele></ele><time>2017-7-15T18:6:15Z</time></trkpt>
<trkpt lat="44.43181182257831" lon="0.5351497326046228"><ele></ele><time>2017-7-15T18:6:18Z</time></trkpt>
<trkpt lat="44.43182724528015" lon="0.5352443642914295"><ele></ele><time>2017-7-15T18:6:21Z</time></trkpt>
<trkpt lat="44.431846272200346" lon="0.5360427405685186"><ele></ele><time>2017-7-15T18:6:24Z</time></trkpt>
<trkpt lat="44.43178877234459" lon="0.5363254621624947"><ele></ele><time>2017-7-15T18:6:27Z</time></trkpt>
<trkpt lat="44.43164904601872" lon="0.5367133766412735"><ele></ele><time>2017-7-15T18:6:30Z</time></trkpt>
<trkpt lat="44.431310668587685" lon="0.5373040493577719"><ele></ele><time>2017-7-15T18:6:33Z</time></trkpt>
<trkpt lat="44.430952090770006" lon="0.5378801375627518"><ele></ele><time>2017-7-15T18:6:36Z</time></trkpt>
<trkpt lat="44.43063776940107" lon="0.5385479237884283"><ele></ele><time>2017-7-15T18:6:39Z</time></trkpt>
<trkpt lat="44.43031506612897" lon="0.5392038077116013"><ele></ele><time>2017-7-15T18:6:42Z</time></trkpt>
<trkpt lat="44.430010467767715" lon="0.5398378148674965"><ele></ele><time>2017-7-15T18:6:45Z</time></trkpt>
<trkpt lat="44.42967418581247" lon="0.5404718220233917"><ele></ele><time>2017-7-15T18:6:48Z</time></trkpt>
<trkpt lat="44.42930856719613" lon="0.5410438030958176"><ele></ele><time>2017-7-15T18:6:51Z</time></trkpt>
<trkpt lat="44.428929621353745" lon="0.5416685063391924"><ele></ele><time>2017-7-15T18:6:54Z</time></trkpt>
<trkpt lat="44.42869090475142" lon="0.5423993244767189"><ele></ele><time>2017-7-15T18:6:57Z</time></trkpt>
<trkpt lat="44.428551932796836" lon="0.5431437212973833"><ele></ele><time>2017-7-15T18:7:0Z</time></trkpt>
<trkpt lat="44.428419917821884" lon="0.5439296923577785"><ele></ele><time>2017-7-15T18:7:3Z</time></trkpt>
<trkpt lat="44.42828228697181" lon="0.5446934513747692"><ele></ele><time>2017-7-15T18:7:6Z</time></trkpt>
<trkpt lat="44.42810199223459" lon="0.5454390216618776"><ele></ele><time>2017-7-15T18:7:9Z</time></trkpt>
<trkpt lat="44.427913734689355" lon="0.5461669061332941"><ele></ele><time>2017-7-15T18:7:12Z</time></trkpt>
<trkpt lat="44.427730003371835" lon="0.5468806251883507"><ele></ele><time>2017-7-15T18:7:15Z</time></trkpt>
<trkpt lat="44.42746672779322" lon="0.5475457292050123"><ele></ele><time>2017-7-15T18:7:18Z</time></trkpt>
<trkpt lat="44.42710865288973" lon="0.5481225717812777"><ele></ele><time>2017-7-15T18:7:21Z</time></trkpt>
<trkpt lat="44.4266820140183" lon="0.5486948881298304"><ele></ele><time>2017-7-15T18:7:24Z</time></trkpt>
<trkpt lat="44.42618186585605" lon="0.5491430684924126"><ele></ele><time>2017-7-15T18:7:27Z</time></trkpt>
<trkpt lat="44.425679789856076" lon="0.5495716352015734"><ele></ele><time>2017-7-15T18:7:30Z</time></trkpt>
<trkpt lat="44.425184754654765" lon="0.5499919876456261"><ele></ele><time>2017-7-15T18:7:33Z</time></trkpt>
<trkpt lat="44.42468988709152" lon="0.5503183789551258"><ele></ele><time>2017-7-15T18:7:36Z</time></trkpt>
<trkpt lat="44.4241763278842" lon="0.5507221352308989"><ele></ele><time>2017-7-15T18:7:39Z</time></trkpt>
<trkpt lat="44.42383350804448" lon="0.5513207707554102"><ele></ele><time>2017-7-15T18:7:42Z</time></trkpt>
<trkpt lat="44.423494627699256" lon="0.5519805941730738"><ele></ele><time>2017-7-15T18:7:45Z</time></trkpt>
<trkpt lat="44.42310637794435" lon="0.5525066424161196"><ele></ele><time>2017-7-15T18:7:48Z</time></trkpt>
<trkpt lat="44.42264596000314" lon="0.5529217142611742"><ele></ele><time>2017-7-15T18:7:51Z</time></trkpt>
<trkpt lat="44.42214857786894" lon="0.553352041170001"><ele></ele><time>2017-7-15T18:7:54Z</time></trkpt>
<trkpt lat="44.421665193513036" lon="0.5537846311926842"><ele></ele><time>2017-7-15T18:7:57Z</time></trkpt>
<trkpt lat="44.421178959310055" lon="0.554191991686821"><ele></ele><time>2017-7-15T18:8:0Z</time></trkpt>
<trkpt lat="44.42066766321659" lon="0.5546321254223585"><ele></ele><time>2017-7-15T18:8:3Z</time></trkpt>
<trkpt lat="44.4201734662056" lon="0.5549943074584007"><ele></ele><time>2017-7-15T18:8:6Z</time></trkpt>
<trkpt lat="44.419709192588925" lon="0.5554789490997791"><ele></ele><time>2017-7-15T18:8:9Z</time></trkpt>
<trkpt lat="44.4192910194397" lon="0.5559669435024261"><ele></ele><time>2017-7-15T18:8:12Z</time></trkpt>
<trkpt lat="44.41881869919598" lon="0.5564406048506498"><ele></ele><time>2017-7-15T18:8:15Z</time></trkpt>
<trkpt lat="44.41835409030318" lon="0.5569110810756683"><ele></ele><time>2017-7-15T18:8:18Z</time></trkpt>
<trkpt lat="44.417913034558296" lon="0.5574264843016863"><ele></ele><time>2017-7-15T18:8:21Z</time></trkpt>
<trkpt lat="44.41747918725014" lon="0.5579608306288719"><ele></ele><time>2017-7-15T18:8:24Z</time></trkpt>
<trkpt lat="44.41707802936435" lon="0.5585396848618984"><ele></ele><time>2017-7-15T18:8:27Z</time></trkpt>
<trkpt lat="44.41669849678874" lon="0.5591474566608667"><ele></ele><time>2017-7-15T18:8:30Z</time></trkpt>
<trkpt lat="44.41634469665587" lon="0.5597828049212694"><ele></ele><time>2017-7-15T18:8:33Z</time></trkpt>
<trkpt lat="44.41601327620447" lon="0.5604314804077148"><ele></ele><time>2017-7-15T18:8:36Z</time></trkpt>
<trkpt lat="44.415673641487956" lon="0.5610763840377331"><ele></ele><time>2017-7-15T18:8:39Z</time></trkpt>
<trkpt lat="44.41535244695842" lon="0.5617016740143299"><ele></ele><time>2017-7-15T18:8:42Z</time></trkpt>
<trkpt lat="44.414940644055605" lon="0.5623243656009436"><ele></ele><time>2017-7-15T18:8:45Z</time></trkpt>
<trkpt lat="44.41443068906665" lon="0.5627681873738766"><ele></ele><time>2017-7-15T18:8:48Z</time></trkpt>
<trkpt lat="44.41393339075148" lon="0.5631853546947241"><ele></ele><time>2017-7-15T18:8:51Z</time></trkpt>
<trkpt lat="44.41348286345601" lon="0.5637011770159006"><ele></ele><time>2017-7-15T18:8:54Z</time></trkpt>
<trkpt lat="44.41311590373516" lon="0.5642693862318993"><ele></ele><time>2017-7-15T18:8:57Z</time></trkpt>
<trkpt lat="44.412739304825664" lon="0.5648831930011511"><ele></ele><time>2017-7-15T18:9:0Z</time></trkpt>
<trkpt lat="44.41236186772585" lon="0.5654839240014553"><ele></ele><time>2017-7-15T18:9:3Z</time></trkpt>
<trkpt lat="44.41196749918163" lon="0.5661024246364832"><ele></ele><time>2017-7-15T18:9:6Z</time></trkpt>
<trkpt lat="44.411565754562616" lon="0.5667326599359512"><ele></ele><time>2017-7-15T18:9:9Z</time></trkpt>
<trkpt lat="44.41117851063609" lon="0.5673451256006956"><ele></ele><time>2017-7-15T18:9:12Z</time></trkpt>
<trkpt lat="44.41080995835364" lon="0.5679371394217014"><ele></ele><time>2017-7-15T18:9:15Z</time></trkpt>
<trkpt lat="44.410434029996395" lon="0.5685394629836082"><ele></ele><time>2017-7-15T18:9:18Z</time></trkpt>
<trkpt lat="44.41006204113364" lon="0.5691196583211422"><ele></ele><time>2017-7-15T18:9:21Z</time></trkpt>
<trkpt lat="44.40968485549092" lon="0.5697630532085896"><ele></ele><time>2017-7-15T18:9:24Z</time></trkpt>
<trkpt lat="44.40942124463618" lon="0.5704256426542997"><ele></ele><time>2017-7-15T18:9:27Z</time></trkpt>
<trkpt lat="44.409178756177425" lon="0.5711313989013433"><ele></ele><time>2017-7-15T18:9:30Z</time></trkpt>
<trkpt lat="44.408927047625184" lon="0.5718387477099895"><ele></ele><time>2017-7-15T18:9:33Z</time></trkpt>
<trkpt lat="44.40866301767528" lon="0.5725814681500196"><ele></ele><time>2017-7-15T18:9:36Z</time></trkpt>
<trkpt lat="44.408408207818866" lon="0.5732842069119215"><ele></ele><time>2017-7-15T18:9:39Z</time></trkpt>
<trkpt lat="44.40813638269901" lon="0.5739479698240757"><ele></ele><time>2017-7-15T18:9:42Z</time></trkpt>
<trkpt lat="44.407792976126075" lon="0.5746139120310545"><ele></ele><time>2017-7-15T18:9:45Z</time></trkpt>
<trkpt lat="44.40743548795581" lon="0.575279938057065"><ele></ele><time>2017-7-15T18:9:48Z</time></trkpt>
<trkpt lat="44.40711789764464" lon="0.5759421922266483"><ele></ele><time>2017-7-15T18:9:51Z</time></trkpt>
<trkpt lat="44.40687180496752" lon="0.576730091124773"><ele></ele><time>2017-7-15T18:9:54Z</time></trkpt>
<trkpt lat="44.406673992052674" lon="0.5775028187781572"><ele></ele><time>2017-7-15T18:9:57Z</time></trkpt>
<trkpt lat="44.40647064708173" lon="0.5782797373831272"><ele></ele><time>2017-7-15T18:10:0Z</time></trkpt>
<trkpt lat="44.40628984943032" lon="0.5790362879633904"><ele></ele><time>2017-7-15T18:10:3Z</time></trkpt>
<trkpt lat="44.406113075092435" lon="0.5798088479787111"><ele></ele><time>2017-7-15T18:10:6Z</time></trkpt>
<trkpt lat="44.40591744147241" lon="0.5805767141282558"><ele></ele><time>2017-7-15T18:10:9Z</time></trkpt>
<trkpt lat="44.40566807985306" lon="0.5812859907746315"><ele></ele><time>2017-7-15T18:10:12Z</time></trkpt>
<trkpt lat="44.405288714915514" lon="0.5819098558276892"><ele></ele><time>2017-7-15T18:10:15Z</time></trkpt>
<trkpt lat="44.40490314736962" lon="0.5825504008680582"><ele></ele><time>2017-7-15T18:10:18Z</time></trkpt>
<trkpt lat="44.40455412492156" lon="0.5831505451351404"><ele></ele><time>2017-7-15T18:10:21Z</time></trkpt>
<trkpt lat="44.40419630147517" lon="0.5837666150182486"><ele></ele><time>2017-7-15T18:10:24Z</time></trkpt>
<trkpt lat="44.40383143723011" lon="0.5843883845955133"><ele></ele><time>2017-7-15T18:10:27Z</time></trkpt>
<trkpt lat="44.403467662632465" lon="0.5849920492619276"><ele></ele><time>2017-7-15T18:10:30Z</time></trkpt>
<trkpt lat="44.403061140328646" lon="0.585542069748044"><ele></ele><time>2017-7-15T18:10:33Z</time></trkpt>
<trkpt lat="44.40262896940112" lon="0.5860407929867506"><ele></ele><time>2017-7-15T18:10:36Z</time></trkpt>
<trkpt lat="44.40219344571233" lon="0.5865405220538378"><ele></ele><time>2017-7-15T18:10:39Z</time></trkpt>
<trkpt lat="44.40177083015442" lon="0.5870345514267683"><ele></ele><time>2017-7-15T18:10:42Z</time></trkpt>
<trkpt lat="44.40135198645294" lon="0.5875215400010347"><ele></ele><time>2017-7-15T18:10:45Z</time></trkpt>
<trkpt lat="44.40088394097984" lon="0.5879812873899937"><ele></ele><time>2017-7-15T18:10:48Z</time></trkpt>
<trkpt lat="44.400365855544806" lon="0.5882671102881432"><ele></ele><time>2017-7-15T18:10:51Z</time></trkpt>
<trkpt lat="44.400245659053326" lon="0.5883768294006586"><ele></ele><time>2017-7-15T18:10:54Z</time></trkpt>
<trkpt lat="44.4004319049418" lon="0.5891078989952803"><ele></ele><time>2017-7-15T18:10:57Z</time></trkpt>
<trkpt lat="44.40060901455581" lon="0.5898429919034243"><ele></ele><time>2017-7-15T18:11:0Z</time></trkpt>
<trkpt lat="44.40070373006165" lon="0.590421762317419"><ele></ele><time>2017-7-15T18:11:3Z</time></trkpt>
<trkpt lat="44.40049409866333" lon="0.5907520093023777"><ele></ele><time>2017-7-15T18:11:6Z</time></trkpt>
<trkpt lat="44.399963691830635" lon="0.5909825954586267"><ele></ele><time>2017-7-15T18:11:9Z</time></trkpt>
<trkpt lat="44.399731094017625" lon="0.5910765565931797"><ele></ele><time>2017-7-15T18:11:12Z</time></trkpt>
<trkpt lat="44.39920370467007" lon="0.5912913009524345"><ele></ele><time>2017-7-15T18:11:15Z</time></trkpt>
<trkpt lat="44.398953253403306" lon="0.591376880183816"><ele></ele><time>2017-7-15T18:11:18Z</time></trkpt>
<trkpt lat="44.398784190416336" lon="0.5913429334759712"><ele></ele><time>2017-7-15T18:11:21Z</time></trkpt>
<trkpt lat="44.39864018931985" lon="0.5915497150272131"><ele></ele><time>2017-7-15T18:11:24Z</time></trkpt>
<trkpt lat="44.3986582942307" lon="0.5916176922619343"><ele></ele><time>2017-7-15T18:11:27Z</time></trkpt>
<trkpt lat="44.39871604554355" lon="0.5918296705931425"><ele></ele><time>2017-7-15T18:11:30Z</time></trkpt>
<trkpt lat="44.39884554594755" lon="0.5924879014492035"><ele></ele><time>2017-7-15T18:11:33Z</time></trkpt>
<trkpt lat="44.39889466390014" lon="0.5932847689837217"><ele></ele><time>2017-7-15T18:11:36Z</time></trkpt>
<trkpt lat="44.39888753928244" lon="0.593465231359005"><ele></ele><time>2017-7-15T18:11:39Z</time></trkpt>
<trkpt lat="44.39886641688645" lon="0.5934980046004057"><ele></ele><time>2017-7-15T18:11:42Z</time></trkpt>
<trkpt lat="44.39890866167843" lon="0.5942405574023724"><ele></ele><time>2017-7-15T18:11:45Z</time></trkpt>
<trkpt lat="44.39896021038294" lon="0.5950033105909824"><ele></ele><time>2017-7-15T18:11:48Z</time></trkpt>
<trkpt lat="44.39896699972451" lon="0.5952111817896366"><ele></ele><time>2017-7-15T18:11:51Z</time></trkpt>
<trkpt lat="44.398999605327845" lon="0.5960056185722351"><ele></ele><time>2017-7-15T18:11:54Z</time></trkpt>
<trkpt lat="44.39902869053185" lon="0.5967894941568375"><ele></ele><time>2017-7-15T18:11:57Z</time></trkpt>
<trkpt lat="44.39905148930848" lon="0.5975752137601376"><ele></ele><time>2017-7-15T18:12:0Z</time></trkpt>
<trkpt lat="44.39905006438494" lon="0.5976410117000341"><ele></ele><time>2017-7-15T18:12:3Z</time></trkpt>
<trkpt lat="44.399079736322165" lon="0.5984454229474068"><ele></ele><time>2017-7-15T18:12:6Z</time></trkpt>
<trkpt lat="44.39910312183201" lon="0.599218737334013"><ele></ele><time>2017-7-15T18:12:9Z</time></trkpt>
<trkpt lat="44.39913656562567" lon="0.599978556856513"><ele></ele><time>2017-7-15T18:12:12Z</time></trkpt>
<trkpt lat="44.399139331653714" lon="0.6003426667302847"><ele></ele><time>2017-7-15T18:12:15Z</time></trkpt>
<trkpt lat="44.39899097196758" lon="0.60107147321105"><ele></ele><time>2017-7-15T18:12:18Z</time></trkpt>
<trkpt lat="44.398838924244046" lon="0.6018027942627668"><ele></ele><time>2017-7-15T18:12:21Z</time></trkpt>
<trkpt lat="44.39866223372519" lon="0.6025842390954494"><ele></ele><time>2017-7-15T18:12:24Z</time></trkpt>
<trkpt lat="44.39835637807846" lon="0.6032230239361525"><ele></ele><time>2017-7-15T18:12:27Z</time></trkpt>
<trkpt lat="44.39817960374057" lon="0.6033788435161114"><ele></ele><time>2017-7-15T18:12:30Z</time></trkpt>
<trkpt lat="44.397645592689514" lon="0.6036382634192705"><ele></ele><time>2017-7-15T18:12:33Z</time></trkpt>
<trkpt lat="44.39761080779135" lon="0.6036750599741936"><ele></ele><time>2017-7-15T18:12:36Z</time></trkpt>
<trkpt lat="44.39736161381006" lon="0.6039652414619923"><ele></ele><time>2017-7-15T18:12:39Z</time></trkpt>
<trkpt lat="44.39718282781541" lon="0.6040146108716726"><ele></ele><time>2017-7-15T18:12:42Z</time></trkpt>
<trkpt lat="44.39663347788155" lon="0.6040806602686644"><ele></ele><time>2017-7-15T18:12:45Z</time></trkpt>
<trkpt lat="44.396398197859526" lon="0.6041271798312664"><ele></ele><time>2017-7-15T18:12:48Z</time></trkpt>
<trkpt lat="44.39624941907823" lon="0.6045947223901749"><ele></ele><time>2017-7-15T18:12:51Z</time></trkpt>
<trkpt lat="44.39631228335202" lon="0.6052534561604261"><ele></ele><time>2017-7-15T18:12:54Z</time></trkpt>
<trkpt lat="44.39620776101947" lon="0.6058560311794281"><ele></ele><time>2017-7-15T18:12:57Z</time></trkpt>
<trkpt lat="44.396085971966386" lon="0.6060389243066311"><ele></ele><time>2017-7-15T18:13:0Z</time></trkpt>
<trkpt lat="44.39606862142682" lon="0.606057196855545"><ele></ele><time>2017-7-15T18:13:3Z</time></trkpt>
<trkpt lat="44.396005254238844" lon="0.6068227160722017"><ele></ele><time>2017-7-15T18:13:6Z</time></trkpt>
<trkpt lat="44.395990585908294" lon="0.6069529708474874"><ele></ele><time>2017-7-15T18:13:9Z</time></trkpt>
<trkpt lat="44.395866533741355" lon="0.6076947692781687"><ele></ele><time>2017-7-15T18:13:12Z</time></trkpt>
<trkpt lat="44.395802160725" lon="0.608483087271452"><ele></ele><time>2017-7-15T18:13:15Z</time></trkpt>
<trkpt lat="44.39563326537609" lon="0.609210217371583"><ele></ele><time>2017-7-15T18:13:18Z</time></trkpt>
<trkpt lat="44.39540200866759" lon="0.6099521834403276"><ele></ele><time>2017-7-15T18:13:21Z</time></trkpt>
<trkpt lat="44.3951647169888" lon="0.6106819119304419"><ele></ele><time>2017-7-15T18:13:24Z</time></trkpt>
<trkpt lat="44.3949818238616" lon="0.6114045158028603"><ele></ele><time>2017-7-15T18:13:27Z</time></trkpt>
<trkpt lat="44.394972771406174" lon="0.6122287921607494"><ele></ele><time>2017-7-15T18:13:30Z</time></trkpt>
<trkpt lat="44.395011495798826" lon="0.6130109913647175"><ele></ele><time>2017-7-15T18:13:33Z</time></trkpt>
<trkpt lat="44.39513294957578" lon="0.613781874999404"><ele></ele><time>2017-7-15T18:13:36Z</time></trkpt>
<trkpt lat="44.395272340625525" lon="0.6145558599382639"><ele></ele><time>2017-7-15T18:13:39Z</time></trkpt>
<trkpt lat="44.39533218741417" lon="0.6149776373058558"><ele></ele><time>2017-7-15T18:13:42Z</time></trkpt>
<trkpt lat="44.39540510997176" lon="0.6157730799168348"><ele></ele><time>2017-7-15T18:13:45Z</time></trkpt>
<trkpt lat="44.3954652082175" lon="0.6165722105652094"><ele></ele><time>2017-7-15T18:13:48Z</time></trkpt>
<trkpt lat="44.39530670642853" lon="0.617309482768178"><ele></ele><time>2017-7-15T18:13:51Z</time></trkpt>
<trkpt lat="44.39512406475842" lon="0.6180858984589577"><ele></ele><time>2017-7-15T18:13:54Z</time></trkpt>
<trkpt lat="44.39487277530134" lon="0.6187858711928129"><ele></ele><time>2017-7-15T18:13:57Z</time></trkpt>
<trkpt lat="44.39454051665962" lon="0.6194337084889412"><ele></ele><time>2017-7-15T18:14:0Z</time></trkpt>
<trkpt lat="44.39403056167066" lon="0.6197853293269873"><ele></ele><time>2017-7-15T18:14:3Z</time></trkpt>
<trkpt lat="44.39351842738688" lon="0.6201351061463356"><ele></ele><time>2017-7-15T18:14:6Z</time></trkpt>
<trkpt lat="44.393130261451006" lon="0.6207066681236029"><ele></ele><time>2017-7-15T18:14:9Z</time></trkpt>
<trkpt lat="44.39276212826371" lon="0.6212497316300869"><ele></ele><time>2017-7-15T18:14:12Z</time></trkpt>
<trkpt lat="44.392483262345195" lon="0.6218960601836443"><ele></ele><time>2017-7-15T18:14:15Z</time></trkpt>
<trkpt lat="44.392424589022994" lon="0.6225515250116587"><ele></ele><time>2017-7-15T18:14:18Z</time></trkpt>
<trkpt lat="44.3925279378891" lon="0.6232964247465134"><ele></ele><time>2017-7-15T18:14:21Z</time></trkpt>
<trkpt lat="44.392628353089094" lon="0.624087005853653"><ele></ele><time>2017-7-15T18:14:24Z</time></trkpt>
<trkpt lat="44.39262617379427" lon="0.6248997990041971"><ele></ele><time>2017-7-15T18:14:27Z</time></trkpt>
<trkpt lat="44.39260656014085" lon="0.6257043778896332"><ele></ele><time>2017-7-15T18:14:30Z</time></trkpt>
<trkpt lat="44.39257881604135" lon="0.626468388363719"><ele></ele><time>2017-7-15T18:14:33Z</time></trkpt>
<trkpt lat="44.392523830756545" lon="0.627279169857502"><ele></ele><time>2017-7-15T18:14:36Z</time></trkpt>
<trkpt lat="44.392461804673076" lon="0.6280964054167271"><ele></ele><time>2017-7-15T18:14:39Z</time></trkpt>
<trkpt lat="44.392402628436685" lon="0.6289136409759521"><ele></ele><time>2017-7-15T18:14:42Z</time></trkpt>
<trkpt lat="44.39237899146974" lon="0.6297193933278322"><ele></ele><time>2017-7-15T18:14:45Z</time></trkpt>
<trkpt lat="44.3923344835639" lon="0.6304992455989122"><ele></ele><time>2017-7-15T18:14:48Z</time></trkpt>
<trkpt lat="44.39228620380163" lon="0.6312773376703262"><ele></ele><time>2017-7-15T18:14:51Z</time></trkpt>
<trkpt lat="44.39240489155054" lon="0.6320444494485855"><ele></ele><time>2017-7-15T18:14:54Z</time></trkpt>
<trkpt lat="44.39258233644068" lon="0.6328196078538895"><ele></ele><time>2017-7-15T18:14:57Z</time></trkpt>
<trkpt lat="44.392547216266394" lon="0.6335756555199623"><ele></ele><time>2017-7-15T18:15:0Z</time></trkpt>
<trkpt lat="44.39242911525071" lon="0.633988045156002"><ele></ele><time>2017-7-15T18:15:3Z</time></trkpt>
<trkpt lat="44.3923656642437" lon="0.6342589482665062"><ele></ele><time>2017-7-15T18:15:6Z</time></trkpt>
<trkpt lat="44.39244688488543" lon="0.6350150797516108"><ele></ele><time>2017-7-15T18:15:9Z</time></trkpt>
<trkpt lat="44.3925504013896" lon="0.6357691157609224"><ele></ele><time>2017-7-15T18:15:12Z</time></trkpt>
<trkpt lat="44.39265701919794" lon="0.636527594178915"><ele></ele><time>2017-7-15T18:15:15Z</time></trkpt>
<trkpt lat="44.39271032810211" lon="0.6373296584933996"><ele></ele><time>2017-7-15T18:15:18Z</time></trkpt>
<trkpt lat="44.392824824899435" lon="0.6381295435130596"><ele></ele><time>2017-7-15T18:15:21Z</time></trkpt>
<trkpt lat="44.39286740496755" lon="0.6383990217000246"><ele></ele><time>2017-7-15T18:15:24Z</time></trkpt>
<trkpt lat="44.39279573969543" lon="0.639154901728034"><ele></ele><time>2017-7-15T18:15:27Z</time></trkpt>
<trkpt lat="44.39274444244802" lon="0.639939196407795"><ele></ele><time>2017-7-15T18:15:30Z</time></trkpt>
<trkpt lat="44.39270873554051" lon="0.6407061405479908"><ele></ele><time>2017-7-15T18:15:33Z</time></trkpt>
<trkpt lat="44.39262919127941" lon="0.641460595652461"><ele></ele><time>2017-7-15T18:15:36Z</time></trkpt>
<trkpt lat="44.39256716519594" lon="0.6422474049031734"><ele></ele><time>2017-7-15T18:15:39Z</time></trkpt>
<trkpt lat="44.39238904975355" lon="0.6429985072463751"><ele></ele><time>2017-7-15T18:15:42Z</time></trkpt>
<trkpt lat="44.39213449135423" lon="0.6437157467007637"><ele></ele><time>2017-7-15T18:15:45Z</time></trkpt>
<trkpt lat="44.39212250523269" lon="0.6438097916543484"><ele></ele><time>2017-7-15T18:15:48Z</time></trkpt>
<trkpt lat="44.39213516190648" lon="0.6441731471568346"><ele></ele><time>2017-7-15T18:15:51Z</time></trkpt>
<trkpt lat="44.39220246858895" lon="0.6448801606893539"><ele></ele><time>2017-7-15T18:15:54Z</time></trkpt>
<trkpt lat="44.39210817217827" lon="0.645654983818531"><ele></ele><time>2017-7-15T18:15:57Z</time></trkpt>
<trkpt lat="44.39200071617961" lon="0.6464070081710815"><ele></ele><time>2017-7-15T18:16:0Z</time></trkpt>
<trkpt lat="44.391866605728865" lon="0.647202618420124"><ele></ele><time>2017-7-15T18:16:3Z</time></trkpt>
<trkpt lat="44.39173551276326" lon="0.6479377951472998"><ele></ele><time>2017-7-15T18:16:6Z</time></trkpt>
<trkpt lat="44.39160391688347" lon="0.6487483251839876"><ele></ele><time>2017-7-15T18:16:9Z</time></trkpt>
<trkpt lat="44.3915453273803" lon="0.6491501536220312"><ele></ele><time>2017-7-15T18:16:12Z</time></trkpt>
<trkpt lat="44.391552368178964" lon="0.6494810711592436"><ele></ele><time>2017-7-15T18:16:15Z</time></trkpt>
<trkpt lat="44.39164984971285" lon="0.650265533477068"><ele></ele><time>2017-7-15T18:16:18Z</time></trkpt>
<trkpt lat="44.39164859242737" lon="0.6510449666529894"><ele></ele><time>2017-7-15T18:16:21Z</time></trkpt>
<trkpt lat="44.391537783667445" lon="0.6518248189240694"><ele></ele><time>2017-7-15T18:16:24Z</time></trkpt>
<trkpt lat="44.391403924673796" lon="0.6526036653667688"><ele></ele><time>2017-7-15T18:16:27Z</time></trkpt>
<trkpt lat="44.39126981422305" lon="0.6533963419497013"><ele></ele><time>2017-7-15T18:16:30Z</time></trkpt>
<trkpt lat="44.391240645200014" lon="0.6539028603583574"><ele></ele><time>2017-7-15T18:16:33Z</time></trkpt>
<trkpt lat="44.391392190009356" lon="0.6546336784958839"><ele></ele><time>2017-7-15T18:16:36Z</time></trkpt>
<trkpt lat="44.391703912988305" lon="0.6553277000784874"><ele></ele><time>2017-7-15T18:16:39Z</time></trkpt>
<trkpt lat="44.39200406894088" lon="0.6560124177485704"><ele></ele><time>2017-7-15T18:16:42Z</time></trkpt>
<trkpt lat="44.39230657182634" lon="0.6566833890974522"><ele></ele><time>2017-7-15T18:16:45Z</time></trkpt>
<trkpt lat="44.392519472166896" lon="0.6573914084583521"><ele></ele><time>2017-7-15T18:16:48Z</time></trkpt>
<trkpt lat="44.392576133832335" lon="0.6582006812095642"><ele></ele><time>2017-7-15T18:16:51Z</time></trkpt>
<trkpt lat="44.392494075000286" lon="0.659036273136735"><ele></ele><time>2017-7-15T18:16:54Z</time></trkpt>
<trkpt lat="44.39234311692417" lon="0.6598486471921206"><ele></ele><time>2017-7-15T18:16:57Z</time></trkpt>
<trkpt lat="44.392110016196966" lon="0.6606141664087772"><ele></ele><time>2017-7-15T18:17:0Z</time></trkpt>
<trkpt lat="44.3919063359499" lon="0.6613331660628319"><ele></ele><time>2017-7-15T18:17:3Z</time></trkpt>
<trkpt lat="44.39183643087745" lon="0.6619006209075451"><ele></ele><time>2017-7-15T18:17:6Z</time></trkpt>
<trkpt lat="44.39182771369815" lon="0.6626863405108452"><ele></ele><time>2017-7-15T18:17:9Z</time></trkpt>
<trkpt lat="44.39175588078797" lon="0.663179699331522"><ele></ele><time>2017-7-15T18:17:12Z</time></trkpt>
<trkpt lat="44.39170215278864" lon="0.6638874672353268"><ele></ele><time>2017-7-15T18:17:15Z</time></trkpt>
<trkpt lat="44.39142278395593" lon="0.6645820755511522"><ele></ele><time>2017-7-15T18:17:18Z</time></trkpt>
<trkpt lat="44.391059428453445" lon="0.665166461840272"><ele></ele><time>2017-7-15T18:17:21Z</time></trkpt>
<trkpt lat="44.3905970826745" lon="0.6656156480312347"><ele></ele><time>2017-7-15T18:17:24Z</time></trkpt>
<trkpt lat="44.39015879295766" lon="0.6660755630582571"><ele></ele><time>2017-7-15T18:17:27Z</time></trkpt>
<trkpt lat="44.38975310884416" lon="0.6666616257280111"><ele></ele><time>2017-7-15T18:17:30Z</time></trkpt>
<trkpt lat="44.389523612335324" lon="0.6673675496131182"><ele></ele><time>2017-7-15T18:17:33Z</time></trkpt>
<trkpt lat="44.38938757404685" lon="0.6678441446274519"><ele></ele><time>2017-7-15T18:17:36Z</time></trkpt>
<trkpt lat="44.38917450606823" lon="0.6685380823910236"><ele></ele><time>2017-7-15T18:17:39Z</time></trkpt>
<trkpt lat="44.388953391462564" lon="0.6692923698574305"><ele></ele><time>2017-7-15T18:17:42Z</time></trkpt>
<trkpt lat="44.38876178115606" lon="0.6700018141418695"><ele></ele><time>2017-7-15T18:17:45Z</time></trkpt>
<trkpt lat="44.38874216750264" lon="0.6701026484370232"><ele></ele><time>2017-7-15T18:17:48Z</time></trkpt>
<trkpt lat="44.388729091733694" lon="0.6701980344951153"><ele></ele><time>2017-7-15T18:17:51Z</time></trkpt>
<trkpt lat="44.38857008703053" lon="0.6709509808570147"><ele></ele><time>2017-7-15T18:17:54Z</time></trkpt>
<trkpt lat="44.388411082327366" lon="0.6716843973845243"><ele></ele><time>2017-7-15T18:17:57Z</time></trkpt>
<trkpt lat="44.38825459219515" lon="0.6724394392222166"><ele></ele><time>2017-7-15T18:18:0Z</time></trkpt>
<trkpt lat="44.388032890856266" lon="0.6731605343520641"><ele></ele><time>2017-7-15T18:18:3Z</time></trkpt>
<trkpt lat="44.38780398108065" lon="0.67386738024652"><ele></ele><time>2017-7-15T18:18:6Z</time></trkpt>
<trkpt lat="44.38758311793208" lon="0.6745879724621773"><ele></ele><time>2017-7-15T18:18:9Z</time></trkpt>
<trkpt lat="44.38733819872141" lon="0.6752935610711575"><ele></ele><time>2017-7-15T18:18:12Z</time></trkpt>
<trkpt lat="44.387115240097046" lon="0.6760061904788017"><ele></ele><time>2017-7-15T18:18:15Z</time></trkpt>
<trkpt lat="44.38679387792945" lon="0.6765782553702593"><ele></ele><time>2017-7-15T18:18:18Z</time></trkpt>
<trkpt lat="44.38666965812445" lon="0.6766119506210089"><ele></ele><time>2017-7-15T18:18:21Z</time></trkpt>
<trkpt lat="44.38658324070275" lon="0.6766591407358646"><ele></ele><time>2017-7-15T18:18:24Z</time></trkpt>
<trkpt lat="44.38647746108472" lon="0.6767838634550571"><ele></ele><time>2017-7-15T18:18:27Z</time></trkpt>
<trkpt lat="44.386291299015284" lon="0.6770585384219885"><ele></ele><time>2017-7-15T18:18:30Z</time></trkpt>
<trkpt lat="44.3860056437552" lon="0.6772575248032808"><ele></ele><time>2017-7-15T18:18:33Z</time></trkpt>
<trkpt lat="44.385481774806976" lon="0.677465982735157"><ele></ele><time>2017-7-15T18:18:36Z</time></trkpt>
<trkpt lat="44.38503258861601" lon="0.6775854248553514"><ele></ele><time>2017-7-15T18:18:39Z</time></trkpt>
<trkpt lat="44.38457510434091" lon="0.6772720254957676"><ele></ele><time>2017-7-15T18:18:42Z</time></trkpt>
<trkpt lat="44.384316774085164" lon="0.676935575902462"><ele></ele><time>2017-7-15T18:18:45Z</time></trkpt>
<trkpt lat="44.383981581777334" lon="0.6770082470029593"><ele></ele><time>2017-7-15T18:18:48Z</time></trkpt>
<trkpt lat="44.38361001200974" lon="0.6771806627511978"><ele></ele><time>2017-7-15T18:18:51Z</time></trkpt>
<trkpt lat="44.38311983831227" lon="0.6775670684874058"><ele></ele><time>2017-7-15T18:18:54Z</time></trkpt>
<trkpt lat="44.38265229575336" lon="0.6779948808252811"><ele></ele><time>2017-7-15T18:18:57Z</time></trkpt>
<trkpt lat="44.3822168558836" lon="0.6784766726195812"><ele></ele><time>2017-7-15T18:19:0Z</time></trkpt>
<trkpt lat="44.38182424753904" lon="0.6790031399577856"><ele></ele><time>2017-7-15T18:19:3Z</time></trkpt>
<trkpt lat="44.38142091035843" lon="0.6795760430395603"><ele></ele><time>2017-7-15T18:19:6Z</time></trkpt>
<trkpt lat="44.38095336779952" lon="0.6800435017794371"><ele></ele><time>2017-7-15T18:19:9Z</time></trkpt>
<trkpt lat="44.380530416965485" lon="0.6805868167430162"><ele></ele><time>2017-7-15T18:19:12Z</time></trkpt>
<trkpt lat="44.380111657083035" lon="0.6811349093914032"><ele></ele><time>2017-7-15T18:19:15Z</time></trkpt>
<trkpt lat="44.37970111146569" lon="0.6816601194441319"><ele></ele><time>2017-7-15T18:19:18Z</time></trkpt>
<trkpt lat="44.379275646060705" lon="0.6822135765105486"><ele></ele><time>2017-7-15T18:19:21Z</time></trkpt>
<trkpt lat="44.37886535190046" lon="0.6827300693839788"><ele></ele><time>2017-7-15T18:19:24Z</time></trkpt>
<trkpt lat="44.37839252874255" lon="0.6831588875502348"><ele></ele><time>2017-7-15T18:19:27Z</time></trkpt>
<trkpt lat="44.37834885902703" lon="0.6831841170787811"><ele></ele><time>2017-7-15T18:19:30Z</time></trkpt>
<trkpt lat="44.377855751663446" lon="0.6835002824664116"><ele></ele><time>2017-7-15T18:19:33Z</time></trkpt>
<trkpt lat="44.377358704805374" lon="0.6838218960911036"><ele></ele><time>2017-7-15T18:19:36Z</time></trkpt>
<trkpt lat="44.37721470370889" lon="0.6839197967201471"><ele></ele><time>2017-7-15T18:19:39Z</time></trkpt>
<trkpt lat="44.37667524442077" lon="0.6841591000556946"><ele></ele><time>2017-7-15T18:19:42Z</time></trkpt>
<trkpt lat="44.37613360583782" lon="0.6842743512243032"><ele></ele><time>2017-7-15T18:19:45Z</time></trkpt>
<trkpt lat="44.375598169863224" lon="0.684387506917119"><ele></ele><time>2017-7-15T18:19:48Z</time></trkpt>
<trkpt lat="44.37504052184522" lon="0.6845055241137743"><ele></ele><time>2017-7-15T18:19:51Z</time></trkpt>
<trkpt lat="44.374494357034564" lon="0.6846312526613474"><ele></ele><time>2017-7-15T18:19:54Z</time></trkpt>
<trkpt lat="44.373952550813556" lon="0.6847548857331276"><ele></ele><time>2017-7-15T18:19:57Z</time></trkpt>
<trkpt lat="44.37341786921024" lon="0.6848771777004004"><ele></ele><time>2017-7-15T18:20:0Z</time></trkpt>
<trkpt lat="44.37285175547004" lon="0.6850121263414621"><ele></ele><time>2017-7-15T18:20:3Z</time></trkpt>
<trkpt lat="44.37231699004769" lon="0.6851527746766806"><ele></ele><time>2017-7-15T18:20:6Z</time></trkpt>
<trkpt lat="44.37175163067877" lon="0.6852442212402821"><ele></ele><time>2017-7-15T18:20:9Z</time></trkpt>
<trkpt lat="44.37117621302605" lon="0.6853210832923651"><ele></ele><time>2017-7-15T18:20:12Z</time></trkpt>
<trkpt lat="44.370623929426074" lon="0.6854157987982035"><ele></ele><time>2017-7-15T18:20:15Z</time></trkpt>
<trkpt lat="44.37008480541408" lon="0.6855220813304186"><ele></ele><time>2017-7-15T18:20:18Z</time></trkpt>
<trkpt lat="44.36951072886586" lon="0.6856321357190609"><ele></ele><time>2017-7-15T18:20:21Z</time></trkpt>
<trkpt lat="44.36895702034235" lon="0.6857359874993563"><ele></ele><time>2017-7-15T18:20:24Z</time></trkpt>
<trkpt lat="44.36841479502618" lon="0.6857835128903389"><ele></ele><time>2017-7-15T18:20:27Z</time></trkpt>
<trkpt lat="44.36836089938879" lon="0.6857801601290703"><ele></ele><time>2017-7-15T18:20:30Z</time></trkpt>
<trkpt lat="44.36826014891267" lon="0.6857583671808243"><ele></ele><time>2017-7-15T18:20:33Z</time></trkpt>
<trkpt lat="44.36805680394173" lon="0.6854847818613052"><ele></ele><time>2017-7-15T18:20:36Z</time></trkpt>
<trkpt lat="44.36804825440049" lon="0.6854284554719925"><ele></ele><time>2017-7-15T18:20:39Z</time></trkpt>
<trkpt lat="44.368024449795485" lon="0.6846068613231182"><ele></ele><time>2017-7-15T18:20:42Z</time></trkpt>
<trkpt lat="44.36788698658347" lon="0.683844443410635"><ele></ele><time>2017-7-15T18:20:45Z</time></trkpt>
<trkpt lat="44.36747996136546" lon="0.6833333987742662"><ele></ele><time>2017-7-15T18:20:48Z</time></trkpt>
<trkpt lat="44.36692583374679" lon="0.6831772439181805"><ele></ele><time>2017-7-15T18:20:51Z</time></trkpt>
<trkpt lat="44.36637405306101" lon="0.6830644235014915"><ele></ele><time>2017-7-15T18:20:54Z</time></trkpt>
<trkpt lat="44.36582478694618" lon="0.6829350907355547"><ele></ele><time>2017-7-15T18:20:57Z</time></trkpt>
<trkpt lat="44.36526822857559" lon="0.6827817019075155"><ele></ele><time>2017-7-15T18:21:0Z</time></trkpt>
<trkpt lat="44.364723237231374" lon="0.6826458312571049"><ele></ele><time>2017-7-15T18:21:3Z</time></trkpt>
<trkpt lat="44.36417321674526" lon="0.6824979744851589"><ele></ele><time>2017-7-15T18:21:6Z</time></trkpt>
<trkpt lat="44.36360668390989" lon="0.682363361120224"><ele></ele><time>2017-7-15T18:21:9Z</time></trkpt>
<trkpt lat="44.3630501255393" lon="0.6822230480611324"><ele></ele><time>2017-7-15T18:21:12Z</time></trkpt>
<trkpt lat="44.36248417943716" lon="0.6820765323936939"><ele></ele><time>2017-7-15T18:21:15Z</time></trkpt>
<trkpt lat="44.362046560272574" lon="0.6819686572998762"><ele></ele><time>2017-7-15T18:21:18Z</time></trkpt>
<trkpt lat="44.36148438602686" lon="0.6818176992237568"><ele></ele><time>2017-7-15T18:21:21Z</time></trkpt>
<trkpt lat="44.360952973365784" lon="0.681682163849473"><ele></ele><time>2017-7-15T18:21:24Z</time></trkpt>
<trkpt lat="44.36039297841489" lon="0.681531373411417"><ele></ele><time>2017-7-15T18:21:27Z</time></trkpt>
<trkpt lat="44.35982393100858" lon="0.6813845224678516"><ele></ele><time>2017-7-15T18:21:30Z</time></trkpt>
<trkpt lat="44.35927625745535" lon="0.6812356598675251"><ele></ele><time>2017-7-15T18:21:33Z</time></trkpt>
<trkpt lat="44.35870318673551" lon="0.6810839474201202"><ele></ele><time>2017-7-15T18:21:36Z</time></trkpt>
<trkpt lat="44.35811871662736" lon="0.6809350848197937"><ele></ele><time>2017-7-15T18:21:39Z</time></trkpt>
<trkpt lat="44.35757732950151" lon="0.6807255372405052"><ele></ele><time>2017-7-15T18:21:42Z</time></trkpt>
<trkpt lat="44.35706729069352" lon="0.6803925242275"><ele></ele><time>2017-7-15T18:21:45Z</time></trkpt>
<trkpt lat="44.35652866959572" lon="0.680115669965744"><ele></ele><time>2017-7-15T18:21:48Z</time></trkpt>
<trkpt lat="44.35595652088523" lon="0.679977536201477"><ele></ele><time>2017-7-15T18:21:51Z</time></trkpt>
<trkpt lat="44.3559115100652" lon="0.6799603532999754"><ele></ele><time>2017-7-15T18:21:54Z</time></trkpt>
<trkpt lat="44.35536593198776" lon="0.6798222195357084"><ele></ele><time>2017-7-15T18:21:57Z</time></trkpt>
<trkpt lat="44.35522763058543" lon="0.6798016838729382"><ele></ele><time>2017-7-15T18:22:0Z</time></trkpt>
<trkpt lat="44.35520156286657" lon="0.6798173580318689"><ele></ele><time>2017-7-15T18:22:3Z</time></trkpt>
<trkpt lat="44.3551239464432" lon="0.6798695772886276"><ele></ele><time>2017-7-15T18:22:6Z</time></trkpt>
<trkpt lat="44.35464014299214" lon="0.6802883371710777"><ele></ele><time>2017-7-15T18:22:9Z</time></trkpt>
<trkpt lat="44.35415600426495" lon="0.6806951947510242"><ele></ele><time>2017-7-15T18:22:12Z</time></trkpt>
<trkpt lat="44.35359022580087" lon="0.6808814406394958"><ele></ele><time>2017-7-15T18:22:15Z</time></trkpt>
<trkpt lat="44.353032829239964" lon="0.6810556165874004"><ele></ele><time>2017-7-15T18:22:18Z</time></trkpt>
<trkpt lat="44.352486999705434" lon="0.6812214944511652"><ele></ele><time>2017-7-15T18:22:21Z</time></trkpt>
<trkpt lat="44.351938823238015" lon="0.6812914833426476"><ele></ele><time>2017-7-15T18:22:24Z</time></trkpt>
<trkpt lat="44.351370530202985" lon="0.6813955027610064"><ele></ele><time>2017-7-15T18:22:27Z</time></trkpt>
<trkpt lat="44.350879434496164" lon="0.6818218901753426"><ele></ele><time>2017-7-15T18:22:30Z</time></trkpt>
<trkpt lat="44.35040225274861" lon="0.6822354532778263"><ele></ele><time>2017-7-15T18:22:33Z</time></trkpt>
<trkpt lat="44.349858770146966" lon="0.6824568193405867"><ele></ele><time>2017-7-15T18:22:36Z</time></trkpt>
<trkpt lat="44.34932895004749" lon="0.6826666183769703"><ele></ele><time>2017-7-15T18:22:39Z</time></trkpt>
<trkpt lat="44.349287962540984" lon="0.6826831307262182"><ele></ele><time>2017-7-15T18:22:42Z</time></trkpt>
<trkpt lat="44.34875604696572" lon="0.6828814465552568"><ele></ele><time>2017-7-15T18:22:45Z</time></trkpt>
<trkpt lat="44.34821968898177" lon="0.6830939278006554"><ele></ele><time>2017-7-15T18:22:48Z</time></trkpt>
<trkpt lat="44.34768408536911" lon="0.6832861248403788"><ele></ele><time>2017-7-15T18:22:51Z</time></trkpt>
<trkpt lat="44.347600350156426" lon="0.6832979433238506"><ele></ele><time>2017-7-15T18:22:54Z</time></trkpt>
<trkpt lat="44.34707975015044" lon="0.683143213391304"><ele></ele><time>2017-7-15T18:22:57Z</time></trkpt>
<trkpt lat="44.34653836302459" lon="0.6829247809946537"><ele></ele><time>2017-7-15T18:23:0Z</time></trkpt>
<trkpt lat="44.34600217267871" lon="0.6827110424637794"><ele></ele><time>2017-7-15T18:23:3Z</time></trkpt>
<trkpt lat="44.34543346054852" lon="0.6826202664524317"><ele></ele><time>2017-7-15T18:23:6Z</time></trkpt>
<trkpt lat="44.34485997073352" lon="0.6825901754200459"><ele></ele><time>2017-7-15T18:23:9Z</time></trkpt>
<trkpt lat="44.344595186412334" lon="0.6825848110020161"><ele></ele><time>2017-7-15T18:23:12Z</time></trkpt>
<trkpt lat="44.34403074905276" lon="0.6825537141412497"><ele></ele><time>2017-7-15T18:23:15Z</time></trkpt>
<trkpt lat="44.34365876019001" lon="0.6826703064143658"><ele></ele><time>2017-7-15T18:23:18Z</time></trkpt>
<trkpt lat="44.343525068834424" lon="0.6827786844223738"><ele></ele><time>2017-7-15T18:23:21Z</time></trkpt>
<trkpt lat="44.343118043616414" lon="0.6833292078226805"><ele></ele><time>2017-7-15T18:23:24Z</time></trkpt>
<trkpt lat="44.34278310276568" lon="0.6838483829051256"><ele></ele><time>2017-7-15T18:23:27Z</time></trkpt>
<trkpt lat="44.34239988215268" lon="0.6844206992536783"><ele></ele><time>2017-7-15T18:23:30Z</time></trkpt>
<trkpt lat="44.34199009090662" lon="0.6849635951220989"><ele></ele><time>2017-7-15T18:23:33Z</time></trkpt>
<trkpt lat="44.34189344756305" lon="0.6850540358573198"><ele></ele><time>2017-7-15T18:23:36Z</time></trkpt>
<trkpt lat="44.34141014702618" lon="0.6854018848389387"><ele></ele><time>2017-7-15T18:23:39Z</time></trkpt>
<trkpt lat="44.34091452509165" lon="0.6857541762292385"><ele></ele><time>2017-7-15T18:23:42Z</time></trkpt>
<trkpt lat="44.34042259119451" lon="0.6861076410859823"><ele></ele><time>2017-7-15T18:23:45Z</time></trkpt>
<trkpt lat="44.33993577025831" lon="0.6864441744983196"><ele></ele><time>2017-7-15T18:23:48Z</time></trkpt>
<trkpt lat="44.33941106311977" lon="0.6867490243166685"><ele></ele><time>2017-7-15T18:23:51Z</time></trkpt>
<trkpt lat="44.338853834196925" lon="0.6869366951286793"><ele></ele><time>2017-7-15T18:23:54Z</time></trkpt>
<trkpt lat="44.338465835899115" lon="0.6870356854051352"><ele></ele><time>2017-7-15T18:23:57Z</time></trkpt>
<trkpt lat="44.338413029909134" lon="0.6870497670024633"><ele></ele><time>2017-7-15T18:24:0Z</time></trkpt>
<trkpt lat="44.33788958005607" lon="0.6872532796114683"><ele></ele><time>2017-7-15T18:24:3Z</time></trkpt>
<trkpt lat="44.3374113086611" lon="0.6876109354197979"><ele></ele><time>2017-7-15T18:24:6Z</time></trkpt>
<trkpt lat="44.336964301764965" lon="0.6880406755954027"><ele></ele><time>2017-7-15T18:24:9Z</time></trkpt>
<trkpt lat="44.33652391657233" lon="0.6885259039700031"><ele></ele><time>2017-7-15T18:24:12Z</time></trkpt>
<trkpt lat="44.33613977394998" lon="0.6890890002250671"><ele></ele><time>2017-7-15T18:24:15Z</time></trkpt>
<trkpt lat="44.33580215089023" lon="0.6897341553121805"><ele></ele><time>2017-7-15T18:24:18Z</time></trkpt>
<trkpt lat="44.335353802889585" lon="0.6901989318430424"><ele></ele><time>2017-7-15T18:24:21Z</time></trkpt>
<trkpt lat="44.33487175963819" lon="0.6905588507652283"><ele></ele><time>2017-7-15T18:24:24Z</time></trkpt>
<trkpt lat="44.33438560925424" lon="0.6909131538122892"><ele></ele><time>2017-7-15T18:24:27Z</time></trkpt>
<trkpt lat="44.333931896835566" lon="0.6913470849394798"><ele></ele><time>2017-7-15T18:24:30Z</time></trkpt>
<trkpt lat="44.33364934287965" lon="0.6919922400265932"><ele></ele><time>2017-7-15T18:24:33Z</time></trkpt>
<trkpt lat="44.33345622383058" lon="0.6927119102329016"><ele></ele><time>2017-7-15T18:24:36Z</time></trkpt>
<trkpt lat="44.333249777555466" lon="0.6934522837400436"><ele></ele><time>2017-7-15T18:24:39Z</time></trkpt>
<trkpt lat="44.33304802514613" lon="0.6941953394562006"><ele></ele><time>2017-7-15T18:24:42Z</time></trkpt>
<trkpt lat="44.33285373263061" lon="0.69490822032094"><ele></ele><time>2017-7-15T18:24:45Z</time></trkpt>
<trkpt lat="44.33255659416318" lon="0.6955312471836805"><ele></ele><time>2017-7-15T18:24:48Z</time></trkpt>
<trkpt lat="44.33210070244968" lon="0.695936344563961"><ele></ele><time>2017-7-15T18:24:51Z</time></trkpt>
<trkpt lat="44.33162854984403" lon="0.6963176373392344"><ele></ele><time>2017-7-15T18:24:54Z</time></trkpt>
<trkpt lat="44.33124323375523" lon="0.6968620419502258"><ele></ele><time>2017-7-15T18:24:57Z</time></trkpt>
<trkpt lat="44.330967888236046" lon="0.6975272297859192"><ele></ele><time>2017-7-15T18:25:0Z</time></trkpt>
<trkpt lat="44.33071165345609" lon="0.6981913279742002"><ele></ele><time>2017-7-15T18:25:3Z</time></trkpt>
<trkpt lat="44.33040655218065" lon="0.6988400872796774"><ele></ele><time>2017-7-15T18:25:6Z</time></trkpt>
<trkpt lat="44.33005861938" lon="0.6994470208883286"><ele></ele><time>2017-7-15T18:25:9Z</time></trkpt>
<trkpt lat="44.32979190722108" lon="0.700122769922018"><ele></ele><time>2017-7-15T18:25:12Z</time></trkpt>
<trkpt lat="44.329471634700894" lon="0.7007239200174809"><ele></ele><time>2017-7-15T18:25:15Z</time></trkpt>
<trkpt lat="44.32916661724448" lon="0.7013419177383184"><ele></ele><time>2017-7-15T18:25:18Z</time></trkpt>
<trkpt lat="44.32898514904082" lon="0.7020514458417892"><ele></ele><time>2017-7-15T18:25:21Z</time></trkpt>
<trkpt lat="44.32883016765118" lon="0.7027802523225546"><ele></ele><time>2017-7-15T18:25:24Z</time></trkpt>
<trkpt lat="44.32874140329659" lon="0.7035212963819504"><ele></ele><time>2017-7-15T18:25:27Z</time></trkpt>
<trkpt lat="44.328853553161025" lon="0.7042651064693928"><ele></ele><time>2017-7-15T18:25:30Z</time></trkpt>
<trkpt lat="44.328639982268214" lon="0.7049683481454849"><ele></ele><time>2017-7-15T18:25:33Z</time></trkpt>
<trkpt lat="44.32837930507958" lon="0.705648036673665"><ele></ele><time>2017-7-15T18:25:36Z</time></trkpt>
<trkpt lat="44.32815802283585" lon="0.7063465844839811"><ele></ele><time>2017-7-15T18:25:39Z</time></trkpt>
<trkpt lat="44.327982757240534" lon="0.7070557773113251"><ele></ele><time>2017-7-15T18:25:42Z</time></trkpt>
<trkpt lat="44.327847976237535" lon="0.707789110019803"><ele></ele><time>2017-7-15T18:25:45Z</time></trkpt>
<trkpt lat="44.3278534244746" lon="0.7085460796952248"><ele></ele><time>2017-7-15T18:25:48Z</time></trkpt>
<trkpt lat="44.32771042920649" lon="0.7092998642474413"><ele></ele><time>2017-7-15T18:25:51Z</time></trkpt>
<trkpt lat="44.32738546282053" lon="0.7099017687141895"><ele></ele><time>2017-7-15T18:25:54Z</time></trkpt>
<trkpt lat="44.327131658792496" lon="0.7105662859976292"><ele></ele><time>2017-7-15T18:25:57Z</time></trkpt>
<trkpt lat="44.32718077674508" lon="0.7113187294453382"><ele></ele><time>2017-7-15T18:26:0Z</time></trkpt>
<trkpt lat="44.3272212613374" lon="0.7120796386152506"><ele></ele><time>2017-7-15T18:26:3Z</time></trkpt>
<trkpt lat="44.327442459762096" lon="0.712763350456953"><ele></ele><time>2017-7-15T18:26:6Z</time></trkpt>
<trkpt lat="44.32769265957177" lon="0.7134243473410606"><ele></ele><time>2017-7-15T18:26:9Z</time></trkpt>
<trkpt lat="44.32767673395574" lon="0.7141976617276669"><ele></ele><time>2017-7-15T18:26:12Z</time></trkpt>
<trkpt lat="44.3276356626302" lon="0.7149484287947416"><ele></ele><time>2017-7-15T18:26:15Z</time></trkpt>
<trkpt lat="44.32760942727327" lon="0.7157696038484573"><ele></ele><time>2017-7-15T18:26:18Z</time></trkpt>
<trkpt lat="44.32764722965658" lon="0.7160554267466068"><ele></ele><time>2017-7-15T18:26:21Z</time></trkpt>
<trkpt lat="44.32790690101683" lon="0.7167406473308802"><ele></ele><time>2017-7-15T18:26:24Z</time></trkpt>
<trkpt lat="44.327927101403475" lon="0.7168056070804596"><ele></ele><time>2017-7-15T18:26:27Z</time></trkpt>
<trkpt lat="44.32794445194304" lon="0.7170157413929701"><ele></ele><time>2017-7-15T18:26:30Z</time></trkpt>
<trkpt lat="44.32758637703955" lon="0.7175818551331758"><ele></ele><time>2017-7-15T18:26:33Z</time></trkpt>
<trkpt lat="44.32714305818081" lon="0.7180990185588598"><ele></ele><time>2017-7-15T18:26:36Z</time></trkpt>
<trkpt lat="44.32671558111906" lon="0.7185985799878836"><ele></ele><time>2017-7-15T18:26:39Z</time></trkpt>
<trkpt lat="44.32628952898085" lon="0.7191097922623158"><ele></ele><time>2017-7-15T18:26:42Z</time></trkpt>
<trkpt lat="44.325875882059336" lon="0.7195963617414236"><ele></ele><time>2017-7-15T18:26:45Z</time></trkpt>
<trkpt lat="44.32545678690076" lon="0.7201084122061729"><ele></ele><time>2017-7-15T18:26:48Z</time></trkpt>
<trkpt lat="44.3250229395926" lon="0.7206339575350285"><ele></ele><time>2017-7-15T18:26:51Z</time></trkpt>
<trkpt lat="44.324900982901454" lon="0.7207956444472075"><ele></ele><time>2017-7-15T18:26:54Z</time></trkpt>
<trkpt lat="44.32448674924672" lon="0.7212994806468487"><ele></ele><time>2017-7-15T18:26:57Z</time></trkpt>
<trkpt lat="44.324038652703166" lon="0.7217742316424847"><ele></ele><time>2017-7-15T18:27:0Z</time></trkpt>
<trkpt lat="44.323542108759284" lon="0.7221204042434692"><ele></ele><time>2017-7-15T18:27:3Z</time></trkpt>
<trkpt lat="44.32303718291223" lon="0.7224166207015514"><ele></ele><time>2017-7-15T18:27:6Z</time></trkpt>
<trkpt lat="44.32255631312728" lon="0.7227990031242371"><ele></ele><time>2017-7-15T18:27:9Z</time></trkpt>
<trkpt lat="44.32201844640076" lon="0.7230331934988499"><ele></ele><time>2017-7-15T18:27:12Z</time></trkpt>
<trkpt lat="44.321800684556365" lon="0.7231009192764759"><ele></ele><time>2017-7-15T18:27:15Z</time></trkpt>
<trkpt lat="44.32122786529362" lon="0.723226061090827"><ele></ele><time>2017-7-15T18:27:18Z</time></trkpt>
<trkpt lat="44.320678263902664" lon="0.7233197707682848"><ele></ele><time>2017-7-15T18:27:21Z</time></trkpt>
<trkpt lat="44.320092368870974" lon="0.723330918699503"><ele></ele><time>2017-7-15T18:27:24Z</time></trkpt>
<trkpt lat="44.31952692568302" lon="0.7232633605599403"><ele></ele><time>2017-7-15T18:27:27Z</time></trkpt>
<trkpt lat="44.31898503564298" lon="0.7232053577899933"><ele></ele><time>2017-7-15T18:27:30Z</time></trkpt>
<trkpt lat="44.31842537596822" lon="0.7231471035629511"><ele></ele><time>2017-7-15T18:27:33Z</time></trkpt>
<trkpt lat="44.31823770515621" lon="0.7234375365078449"><ele></ele><time>2017-7-15T18:27:36Z</time></trkpt>
<trkpt lat="44.31805087253451" lon="0.723774740472436"><ele></ele><time>2017-7-15T18:27:39Z</time></trkpt>
<trkpt lat="44.31787778623402" lon="0.7238168176263571"><ele></ele><time>2017-7-15T18:27:42Z</time></trkpt>
<trkpt lat="44.31774300523102" lon="0.7238145545125008"><ele></ele><time>2017-7-15T18:27:45Z</time></trkpt>
</trkseg></trk></gpx>